[[{"header":{"parameterUnit":"m.s-1","parameterCategory":1,"la1":31.0,"la2":29.5877,"lo1":-88.7671,"lo2":-86.6584,"dy":0.0162,"dx":0.0185,"nx":115,"ny":88,"refTime":"2023-10-31T12:00:00:Z","depth":0,"parameterNumber":2,"parameterNumberName":"U-component_of_WINDS"},"data":[0.0,0.0,0.0,0.0,0.0,0.0,0.0,0.0,0.0,0.0,0.0,0.0,0.0,0.0,0.0,0.0,0.0,0.0,0.0,0.0,0.0,0.0,0.0,0.0,0.0,0.0,0.0,0.0,0.0,0.0,0.0,0.0,0.0,0.0,0.0,0.0,0.0,0.0,0.0,0.0,0.0,0.0,0.0,0.0,0.0,0.0,0.0,0.0,0.0,0.0,0.0,0.0,0.0,0.0,0.0,0.0,0.0,0.0,0.0,0.0,0.0,0.0,0.0,0.0,0.0,0.0,0.0,0.0,0.0,0.0,0.0,0.0,0.0,0.0,0.0,0.0,0.0,0.0,0.0,0.0,0.0,0.0,0.0,0.0,0.0,0.0,0.0,0.0,0.0,0.0,0.0,0.0,0.0,0.0,0.0,0.0,0.0,0.0,0.0,0.0,0.0,0.0,0.0,0.0,0.0,0.0,0.0,0.0,0.0,0.0,0.0,0.0,0.0,0.0,0.0,0.0,0.0,0.0,0.0,0.0,0.0,0.0,0.0,0.0,0.0,0.0,0.0,0.0,0.0,0.0,0.0,0.0,0.0,0.0,0.0,0.0,0.0,0.0,0.0,0.0,0.0,0.0,0.0,0.0,0.0,0.0,0.0,0.0,0.0,0.0,0.0,0.0,0.0,0.0,0.0,0.0,0.0,0.0,0.0,0.0,0.0,0.0,0.0,0.0,0.0,0.0,0.0,0.0,0.0,0.0,0.0,0.0,0.0,0.0,0.0,0.0,0.0,0.0,0.0,0.0,0.0,0.0,0.0,0.0,0.0,0.0,0.0,0.0,0.0,0.0,0.0,0.0,0.0,0.0,0.0,0.0,0.0,0.0,0.0,0.0,0.0,0.0,0.0,0.0,0.0,0.0,0.0,0.0,0.0,0.0,0.0,0.0,0.0,0.0,0.0,0.0,0.0,0.0,0.0,0.0,0.0,0.0,0.0,0.0,0.0,0.0,0.0,0.0,0.0,0.0,0.0,0.0,0.0,0.0,0.0,0.0,0.0,0.0,0.0,0.0,0.0,0.0,0.0,0.0,0.0,0.0,0.0,0.0,0.0,0.0,0.0,0.0,0.0,0.0,0.0,0.0,0.0,0.0,0.0,0.0,0.0,0.0,0.0,0.0,0.0,0.0,0.0,0.0,0.0,0.0,0.0,0.0,0.0,0.0,0.0,0.0,0.0,0.0,0.0,0.0,0.0,0.0,0.0,0.0,0.0,0.0,0.0,0.0,0.0,0.0,0.0,0.0,0.0,0.0,0.0,0.0,0.0,0.0,0.0,0.0,0.0,0.0,0.0,0.0,0.0,0.0,0.0,0.0,0.0,0.0,0.0,0.0,0.0,0.0,0.0,0.0,0.0,0.0,0.0,0.0,0.0,0.0,0.0,0.0,0.0,0.0,0.0,0.0,0.0,0.0,0.0,0.0,0.0,0.0,0.0,0.0,0.0,0.0,0.0,0.0,0.0,0.0,0.0,0.0,0.0,0.0,0.0,0.0,0.0,0.0,0.0,0.0,0.0,0.0,0.0,0.0,0.0,0.0,0.0,0.0,0.0,0.0,0.0,0.0,0.0,0.0,0.0,0.0,0.0,0.0,0.0,0.0,0.0,0.0,0.0,0.0,0.0,0.0,0.0,0.0,0.0,0.0,0.0,0.0,0.0,0.0,0.0,0.0,0.0,0.0,0.0,0.0,0.0,0.0,0.0,0.0,0.0,0.0,0.0,0.0,0.0,0.0,0.0,0.0,0.0,0.0,0.0,0.0,0.0,0.0,0.0,0.0,0.0,0.0,0.0,0.0,0.0,0.0,0.0,0.0,0.0,0.0,0.0,0.0,0.0,0.0,0.0,0.0,0.0,0.0,0.0,0.0,0.0,0.0,0.0,0.0,0.0,0.0,0.0,0.0,0.0,0.0,0.0,0.0,0.0,0.0,0.0,0.0,0.0,0.0,0.0,0.0,0.0,0.0,0.0,0.0,0.0,0.0,0.0,0.0,0.0,0.0,0.0,0.0,0.0,0.0,0.0,0.0,0.0,0.0,0.0,0.0,0.0,0.0,0.0,0.0,0.0,0.0,0.0,0.0,0.0,0.0,0.0,0.0,0.0,0.0,0.0,0.0,0.0,0.0,0.0,0.0,0.0,0.0,0.0,0.0,0.0,0.0,0.0,0.0,0.0,0.0,0.0,0.0,0.0,0.0,0.0,0.0,0.0,0.0,0.0,0.0,0.0,0.0,0.0,0.0,0.0,0.0,0.0,0.0,0.0,0.0,0.0,0.0,0.0,0.0,0.0,0.0,0.0,0.0,0.0,0.0,0.0,0.0,0.0,0.0,0.0,0.0,0.0,0.0,0.0,0.0,0.0,0.0,0.0,0.0,0.0,0.0,0.0,0.0,0.0,0.0,0.0,0.0,0.0,0.0,0.0,0.0,0.0,0.0,0.0,0.0,0.0,0.0,0.0,0.0,0.0,0.0,0.0,0.0,0.0,0.0,0.0,0.0,0.0,0.0,0.0,0.0,0.0,0.0,0.0,0.0,0.0,0.0,0.0,0.0,0.0,0.0,0.0,0.0,0.0,0.0,0.0,0.0,0.0,0.0,0.0,0.0,0.0,0.0,0.0,0.0,0.0,0.0,0.0,0.0,0.0,0.0,0.0,0.0,0.0,0.0,0.0,0.0,0.0,0.0,0.0,0.0,0.0,0.0,0.0,0.0,0.0,0.0,0.0,0.0,0.0,0.0,0.0,0.0,0.0,0.0,0.0,0.0,0.0,0.0,0.0,0.0,0.0,0.0,0.0,0.0,0.0,0.0,0.0,0.0,0.0,0.0,0.0,0.0,0.0,0.0,0.0,0.0,0.0,0.0,0.0,0.0,0.0,0.0,0.0,0.0,0.0,0.0,0.0,0.0,0.0,0.0,0.0,0.0,0.0,0.0,0.0,0.0,0.0,0.0,0.0,0.0,0.0,0.0,0.0,0.0,0.0,0.0,0.0,0.0,0.0,0.0,0.0,0.0,0.0,0.0,0.0,0.0,0.0,0.0,0.0,0.0,0.0,0.0,0.0,0.0,0.0,0.0,0.0,0.0,0.0,0.0,0.0,0.0,0.0,0.0,0.0,0.0,0.0,0.0,0.0,0.0,0.0,0.0,0.0,0.0,0.0,0.0,0.0,0.0,0.0,0.0,0.0,0.0,0.0,0.0,0.0,0.0,0.0,0.0,0.0,0.0,0.0,0.0,0.0,0.0,0.0,0.0,0.0,0.0,0.0,0.0,0.0,0.0,0.0,0.0,0.0,0.0,0.0,0.0,0.0,0.0,0.0,0.0,0.0,0.0,0.0,0.0,0.0,0.0,0.0,0.0,0.0,0.0,0.0,0.0,0.0,0.0,0.0,0.0,0.0,0.0,0.0,0.0,0.0,0.0,0.0,0.0,0.0,0.0,0.0,0.0,0.0,0.0,0.0,0.0,0.0,0.0,0.0,0.0,0.0,0.0,0.0,0.0,0.0,0.0,0.0,0.0,0.0,0.0,0.0,0.0,0.0,0.0,0.0,0.0,0.0,0.0,0.0,0.0,0.0,0.0,0.0,0.0,0.0,0.0,0.0,0.0,0.0,0.0,0.0,0.0,0.0,0.0,0.0,0.0,0.0,0.0,0.0,0.0,0.0,0.0,0.0,0.0,0.0,0.0,0.0,0.0,0.0,0.0,0.0,0.0,0.0,0.0,0.0,0.0,0.0,0.0,0.0,0.0,0.0,0.0,0.0,0.0,0.0,0.0,0.0,0.0,0.0,0.0,0.0,0.0,0.0,0.0,0.0,0.0,0.0,0.0,0.0,0.0,0.0,0.0,0.0,0.0,0.0,0.0,0.0,0.0,0.0,0.0,0.0,0.0,0.0,0.0,0.0,0.0,0.0,0.0,0.0,0.0,0.0,0.0,0.0,0.0,0.0,0.0,0.0,0.0,0.0,0.0,0.0,0.0,0.0,0.0,0.0,0.0,0.0,0.0,0.0,0.0,0.0,0.0,0.0,0.0,0.0,0.0,0.0,0.0,0.0,0.0,0.0,0.0,0.0,0.0,0.0,0.0,0.0,0.0,0.0,0.0,0.0,0.0,0.0,0.0,0.0,0.0,0.0,0.0,0.0,0.0,0.0,0.0,0.0,0.0,0.0,0.0,0.0,0.0,0.0,0.0,0.0,0.0,0.0,0.0,0.0,0.0,0.0,0.0,0.0,0.0,1.884,0.0,0.0,0.0,0.0,0.0,0.0,0.0,0.0,0.0,0.0,0.0,0.0,0.0,0.0,0.0,0.0,0.0,0.0,0.0,0.0,0.0,0.0,0.0,0.0,0.0,0.0,0.0,0.0,0.0,0.0,0.0,0.0,0.0,0.0,0.0,0.0,0.0,0.0,0.0,0.0,0.0,0.0,0.0,0.0,0.0,0.0,0.0,0.0,0.0,0.0,0.0,0.0,0.0,0.0,0.0,0.0,0.0,0.0,0.0,0.0,0.0,0.0,0.0,0.0,0.0,0.0,0.0,0.0,0.0,0.0,0.0,0.0,0.0,0.0,0.0,0.0,0.0,0.0,0.0,0.0,0.0,0.0,0.0,0.0,0.0,0.0,0.0,0.0,0.0,0.0,0.0,0.0,0.0,0.0,0.0,0.0,0.0,0.0,0.0,0.0,0.0,0.0,0.0,0.0,0.0,0.0,0.0,0.0,0.0,0.0,1.8538,1.924,1.8576,1.8353,1.8668,0.0,0.0,0.0,0.0,0.0,0.0,0.0,0.0,0.0,0.0,0.0,0.0,0.0,0.0,0.0,0.0,0.0,0.0,0.0,0.0,0.0,0.0,0.0,0.0,0.0,0.0,0.0,0.0,0.0,0.0,0.0,0.0,0.0,0.0,0.0,0.0,0.0,0.0,0.0,0.0,0.0,0.0,0.0,0.0,0.0,0.0,0.0,0.0,0.0,0.0,0.0,0.0,0.0,0.0,0.0,0.0,0.0,0.0,0.0,0.0,0.0,0.0,0.0,0.0,0.0,0.0,0.0,0.0,0.0,0.0,0.0,0.0,0.0,0.0,0.0,0.0,0.0,0.0,0.0,0.0,0.0,0.0,0.0,0.0,0.0,0.0,0.0,0.0,0.0,0.0,0.0,0.0,0.0,0.0,0.0,0.0,0.0,0.0,0.0,0.0,0.0,0.0,0.0,0.0,0.0,0.0,0.0,0.0,0.0,0.0,0.0,0.0,1.9714,1.9318,1.9218,0.0,0.0,0.0,0.0,0.0,0.0,0.0,0.0,0.0,0.0,0.0,0.0,0.0,0.0,0.0,0.0,0.0,0.0,0.0,0.0,0.0,0.0,0.0,0.0,0.0,0.0,0.0,0.0,0.0,0.0,0.0,0.0,0.0,0.0,0.0,0.0,0.0,0.0,0.0,0.0,0.0,0.0,0.0,0.0,0.0,0.0,0.0,0.0,0.0,0.0,0.0,0.0,0.0,0.0,0.0,0.0,0.0,0.0,0.0,0.0,0.0,0.0,0.0,0.0,0.0,0.0,0.0,0.0,0.0,0.0,0.0,0.0,0.0,0.0,0.0,0.0,0.0,0.0,0.0,0.0,0.0,0.0,0.0,0.0,0.0,0.0,0.0,0.0,0.0,0.0,0.0,0.0,0.0,0.0,0.0,0.0,0.0,0.0,0.0,0.0,0.0,0.0,0.0,0.0,0.0,0.0,0.0,0.0,0.0,0.0,2.1279,2.3733,2.3179,0.0,2.2254,0.0,0.0,0.0,0.0,0.0,0.0,0.0,0.0,0.0,0.0,0.0,0.0,0.0,0.0,0.0,0.0,0.0,0.0,0.0,0.0,0.0,0.0,0.0,0.0,0.0,0.0,0.0,0.0,0.0,0.0,0.0,0.0,0.0,0.0,0.0,0.0,0.0,0.0,0.0,0.0,0.0,0.0,0.0,0.0,0.0,0.0,0.0,0.0,0.0,0.0,0.0,0.0,0.0,0.0,0.0,0.0,0.0,0.0,0.0,0.0,0.0,0.0,0.0,0.0,0.0,0.0,0.0,0.0,0.0,0.0,0.0,0.0,0.0,0.0,0.0,0.0,0.0,0.0,0.0,0.0,0.0,0.0,0.0,0.0,0.0,0.0,0.0,0.0,0.0,0.0,0.0,0.0,0.0,0.0,0.0,0.0,0.0,0.0,0.0,0.0,0.0,0.0,0.0,0.0,0.0,0.0,0.0,0.0,0.0,0.0,2.2388,2.4256,2.3813,2.2889,0.0,0.0,0.0,0.0,0.0,0.0,0.0,0.0,0.0,0.0,0.0,0.0,0.0,0.0,0.0,0.0,0.0,0.0,0.0,0.0,0.0,0.0,0.0,0.0,0.0,0.0,0.0,0.0,0.0,0.0,0.0,0.0,0.0,0.0,0.0,0.0,0.0,0.0,0.0,0.0,0.0,0.0,0.0,0.0,0.0,0.0,0.0,0.0,0.0,0.0,0.0,0.0,0.0,0.0,0.0,0.0,0.0,0.0,0.0,0.0,0.0,0.0,0.0,0.0,0.0,0.0,0.0,0.0,0.0,0.0,0.0,0.0,0.0,0.0,0.0,0.0,0.0,0.0,0.0,0.0,0.0,0.0,0.0,0.0,0.0,0.0,0.0,0.0,0.0,0.0,0.0,0.0,0.0,0.0,0.0,0.0,0.0,0.0,0.0,0.0,0.0,0.0,0.0,0.0,0.0,0.0,0.0,0.0,0.0,0.0,2.2767,2.3671,2.5239,2.3929,2.2573,2.1386,0.0,0.0,0.0,0.0,0.0,0.0,0.0,0.0,0.0,0.0,0.0,0.0,0.0,0.0,0.0,0.0,0.0,0.0,0.0,0.0,0.0,0.0,0.0,0.0,0.0,0.0,0.0,0.0,0.0,0.0,0.0,0.0,0.0,0.0,0.0,0.0,0.0,0.0,0.0,0.0,0.0,0.0,0.0,0.0,0.0,0.0,0.0,0.0,0.0,0.0,0.0,0.0,0.0,0.0,0.0,0.0,0.0,0.0,0.0,0.0,0.0,0.0,0.0,0.0,0.0,0.0,0.0,0.0,0.0,0.0,0.0,0.0,0.0,0.0,0.0,0.0,0.0,0.0,0.0,0.0,0.0,0.0,0.0,0.0,0.0,0.0,0.0,0.0,0.0,0.0,0.0,0.0,0.0,0.0,0.0,0.0,0.0,0.0,0.0,0.0,0.0,0.0,0.0,0.0,0.0,0.0,0.0,0.0,2.758,2.5456,2.5487,2.7926,2.3977,2.2099,0.0,0.0,0.0,0.0,0.0,0.0,0.0,0.0,0.0,0.0,0.0,0.0,0.0,0.0,0.0,0.0,0.0,0.0,0.0,0.0,0.0,0.0,0.0,0.0,0.0,0.0,0.0,0.0,0.0,0.0,0.0,0.0,0.0,0.0,0.0,0.0,0.0,0.0,0.0,0.0,0.0,0.0,0.0,0.0,0.0,0.0,0.0,0.0,0.0,0.0,0.0,0.0,0.0,0.0,0.0,0.0,0.0,0.0,0.0,0.0,0.0,0.0,0.0,0.0,0.0,0.0,0.0,0.0,0.0,0.0,0.0,0.0,0.0,0.0,0.0,0.0,0.0,0.0,0.0,0.0,0.0,0.0,0.0,0.0,0.0,0.0,0.0,0.0,0.0,0.0,0.0,0.0,0.0,0.0,0.0,0.0,0.0,0.0,0.0,0.0,0.0,0.0,0.0,0.0,0.0,0.0,0.0,0.0,0.0,2.3127,2.3917,2.521,2.6922,2.4135,2.2748,0.0,0.0,0.0,0.0,0.0,0.0,0.0,0.0,0.0,0.0,0.0,0.0,0.0,0.0,0.0,0.0,0.0,0.0,0.0,0.0,0.0,0.0,0.0,0.0,0.0,0.0,0.0,0.0,0.0,0.0,0.0,0.0,0.0,0.0,0.0,0.0,0.0,0.0,0.0,0.0,0.0,0.0,0.0,0.0,0.0,0.0,0.0,0.0,0.0,0.0,0.0,0.0,0.0,0.0,0.0,0.0,0.0,0.0,0.0,0.0,0.0,0.0,0.0,0.0,0.0,0.0,0.0,0.0,0.0,0.0,0.0,0.0,0.0,0.0,0.0,0.0,0.0,0.0,0.0,0.0,0.0,0.0,0.0,0.0,0.0,0.0,0.0,0.0,0.0,0.0,0.0,0.0,0.0,0.0,0.0,0.0,0.0,0.0,0.0,0.0,0.0,0.0,0.0,0.0,0.0,0.0,0.0,0.0,0.0,2.2582,0.0,2.6534,2.6911,2.4603,2.291,0.0,0.0,0.0,0.0,0.0,0.0,0.0,0.0,0.0,0.0,0.0,0.0,0.0,0.0,0.0,0.0,0.0,0.0,0.0,0.0,0.0,0.0,0.0,0.0,0.0,0.0,0.0,0.0,0.0,0.0,0.0,0.0,0.0,0.0,0.0,0.0,0.0,0.0,0.0,0.0,0.0,0.0,0.0,0.0,0.0,0.0,0.0,0.0,0.0,0.0,0.0,0.0,0.0,0.0,0.0,0.0,0.0,0.0,0.0,0.0,0.0,0.0,0.0,0.0,0.0,0.0,0.0,0.0,0.0,0.0,0.0,0.0,0.0,0.0,0.0,0.0,0.0,0.0,0.0,0.0,0.0,0.0,0.0,0.0,0.0,0.0,0.0,0.0,0.0,0.0,0.0,0.0,0.0,0.0,0.0,0.0,0.0,0.0,0.0,0.0,0.0,0.0,0.0,0.0,0.0,0.0,0.0,0.0,2.2675,2.7088,2.9082,2.9426,2.8406,2.5301,2.252,0.0,0.0,0.0,0.0,0.0,0.0,0.0,0.0,0.0,0.0,0.0,0.0,0.0,0.0,0.0,0.0,0.0,0.0,0.0,0.0,0.0,0.0,0.0,0.0,0.0,0.0,0.0,0.0,0.0,0.0,0.0,0.0,0.0,0.0,0.0,0.0,0.0,0.0,0.0,0.0,0.0,0.0,0.0,0.0,0.0,0.0,0.0,0.0,0.0,0.0,0.0,0.0,0.0,0.0,0.0,0.0,0.0,0.0,0.0,0.0,0.0,0.0,0.0,0.0,0.0,0.0,0.0,0.0,0.0,0.0,0.0,0.0,0.0,0.0,0.0,0.0,0.0,0.0,0.0,0.0,0.0,0.0,0.0,0.0,0.0,0.0,0.0,0.0,0.0,0.0,0.0,0.0,0.0,0.0,0.0,0.0,0.0,0.0,0.0,0.0,0.0,0.0,0.0,0.0,0.0,0.0,0.0,0.0,0.0,2.5281,2.6422,2.8041,2.997,2.4817,2.2953,0.0,0.0,0.0,0.0,0.0,0.0,0.0,0.0,0.0,0.0,0.0,0.0,0.0,0.0,0.0,0.0,0.0,0.0,0.0,0.0,0.0,0.0,0.0,0.0,0.0,0.0,0.0,0.0,0.0,0.0,0.0,0.0,0.0,0.0,0.0,0.0,0.0,0.0,0.0,0.0,0.0,0.0,0.0,0.0,0.0,0.0,0.0,0.0,0.0,0.0,0.0,0.0,0.0,0.0,0.0,0.0,0.0,0.0,0.0,0.0,0.0,0.0,0.0,0.0,0.0,0.0,0.0,0.0,0.0,0.0,0.0,0.0,0.0,0.0,0.0,0.0,0.0,0.0,0.0,0.0,0.0,0.0,0.0,0.0,0.0,0.0,0.0,0.0,0.0,0.0,0.0,0.0,0.0,0.0,0.0,0.0,0.0,0.0,0.0,0.0,0.0,0.0,0.0,0.0,0.0,0.0,0.0,0.0,0.0,2.7952,2.8697,2.9711,3.0981,2.6506,2.4673,2.5841,0.0,0.0,0.0,0.0,0.0,0.0,0.0,0.0,0.0,0.0,0.0,0.0,0.0,0.0,0.0,0.0,0.0,0.0,0.0,0.0,0.0,0.0,0.0,0.0,0.0,0.0,0.0,0.0,0.0,0.0,0.0,0.0,0.0,0.0,0.0,0.0,0.0,0.0,0.0,0.0,0.0,0.0,0.0,0.0,0.0,0.0,0.0,0.0,0.0,0.0,0.0,0.0,0.0,0.0,0.0,0.0,0.0,0.0,0.0,0.0,0.0,0.0,0.0,0.0,0.0,0.0,0.0,0.0,0.0,0.0,0.0,0.0,0.0,0.0,0.0,0.0,0.0,0.0,0.0,0.0,0.0,0.0,0.0,0.0,0.0,0.0,0.0,0.0,0.0,0.0,0.0,0.0,0.0,0.0,0.0,0.0,0.0,0.0,0.0,0.0,0.0,0.0,0.0,0.0,0.0,0.0,0.0,0.0,3.4036,3.5103,3.4284,3.15,2.9931,2.7476,0.0,0.0,0.0,0.0,0.0,0.0,0.0,0.0,0.0,0.0,0.0,0.0,0.0,0.0,0.0,0.0,0.0,0.0,0.0,0.0,0.0,0.0,0.0,0.0,0.0,0.0,0.0,0.0,0.0,0.0,0.0,0.0,0.0,0.0,0.0,0.0,0.0,0.0,0.0,0.0,0.0,0.0,0.0,0.0,0.0,0.0,0.0,0.0,0.0,0.0,0.0,0.0,0.0,0.0,0.0,0.0,0.0,0.0,0.0,0.0,0.0,0.0,0.0,0.0,0.0,0.0,0.0,0.0,0.0,0.0,0.0,0.0,0.0,0.0,0.0,0.0,0.0,0.0,0.0,0.0,0.0,0.0,0.0,0.0,0.0,0.0,0.0,0.0,0.0,0.0,0.0,0.0,0.0,0.0,0.0,0.0,0.0,0.0,0.0,0.0,0.0,0.0,0.0,0.0,0.0,0.0,0.0,0.0,0.0,3.6881,3.9774,3.99,3.6912,3.2508,2.9648,0.0,0.0,0.0,0.0,0.0,0.0,0.0,0.0,0.0,0.0,0.0,0.0,0.0,0.0,0.0,0.0,0.0,0.0,0.0,0.0,0.0,0.0,0.0,0.0,0.0,0.0,0.0,0.0,0.0,0.0,0.0,0.0,0.0,0.0,0.0,0.0,0.0,0.0,0.0,0.0,0.0,0.0,0.0,0.0,0.0,0.0,0.0,0.0,0.0,0.0,0.0,0.0,0.0,0.0,0.0,0.0,0.0,0.0,0.0,0.0,0.0,0.0,0.0,0.0,0.0,0.0,0.0,0.0,0.0,0.0,0.0,0.0,0.0,0.0,0.0,0.0,0.0,0.0,0.0,0.0,0.0,0.0,0.0,0.0,0.0,0.0,0.0,0.0,0.0,0.0,0.0,0.0,0.0,0.0,0.0,0.0,0.0,0.0,0.0,0.0,0.0,0.0,0.0,0.0,0.0,0.0,0.0,0.0,3.7614,3.9992,4.3677,4.4595,4.2376,3.6994,3.2928,0.0,0.0,0.0,0.0,0.0,0.0,0.0,0.0,0.0,0.0,0.0,0.0,0.0,0.0,0.0,0.0,0.0,0.0,0.0,0.0,0.0,0.0,0.0,0.0,0.0,0.0,0.0,0.0,0.0,0.0,0.0,0.0,0.0,0.0,0.0,0.0,0.0,0.0,0.0,0.0,0.0,0.0,0.0,0.0,0.0,0.0,0.0,0.0,0.0,0.0,0.0,0.0,0.0,0.0,0.0,0.0,0.0,0.0,0.0,0.0,0.0,0.0,0.0,0.0,0.0,0.0,0.0,0.0,0.0,0.0,0.0,0.0,0.0,0.0,0.0,0.0,0.0,0.0,0.0,0.0,0.0,0.0,0.0,0.0,0.0,0.0,0.0,0.0,0.0,0.0,0.0,0.0,0.0,0.0,0.0,0.0,0.0,0.0,0.0,0.0,0.0,0.0,0.0,0.0,0.0,0.0,0.0,0.0,4.0236,4.3165,4.6925,4.8316,4.7024,4.1991,3.6525,0.0,0.0,0.0,0.0,0.0,0.0,0.0,0.0,0.0,0.0,0.0,0.0,0.0,0.0,0.0,0.0,0.0,0.0,0.0,0.0,0.0,0.0,0.0,0.0,0.0,0.0,0.0,0.0,0.0,0.0,0.0,0.0,0.0,0.0,0.0,0.0,0.0,0.0,0.0,0.0,0.0,0.0,0.0,0.0,0.0,0.0,0.0,0.0,0.0,0.0,0.0,0.0,0.0,0.0,0.0,0.0,0.0,0.0,0.0,0.0,0.0,0.0,0.0,0.0,0.0,0.0,0.0,0.0,0.0,0.0,0.0,0.0,0.0,0.0,0.0,0.0,0.0,0.0,0.0,0.0,0.0,0.0,0.0,0.0,0.0,0.0,0.0,0.0,0.0,0.0,0.0,0.0,0.0,0.0,0.0,0.0,0.0,0.0,0.0,0.0,0.0,0.0,0.0,0.0,0.0,0.0,0.0,0.0,4.2132,4.5205,4.879,4.9988,4.8655,4.3101,3.805,0.0,0.0,0.0,0.0,0.0,0.0,0.0,0.0,0.0,0.0,0.0,0.0,0.0,0.0,0.0,0.0,0.0,0.0,0.0,0.0,0.0,0.0,0.0,0.0,0.0,0.0,0.0,0.0,0.0,0.0,0.0,0.0,0.0,0.0,0.0,0.0,0.0,0.0,0.0,0.0,0.0,0.0,0.0,0.0,0.0,0.0,0.0,0.0,2.2273,0.0,0.0,0.0,0.0,0.0,0.0,0.0,0.0,0.0,0.0,0.0,0.0,0.0,0.0,0.0,0.0,0.0,0.0,0.0,0.0,0.0,0.0,0.0,0.0,0.0,0.0,0.0,0.0,0.0,0.0,0.0,0.0,0.0,0.0,0.0,0.0,0.0,0.0,0.0,0.0,0.0,0.0,0.0,0.0,0.0,0.0,0.0,0.0,0.0,0.0,0.0,0.0,0.0,0.0,0.0,0.0,0.0,0.0,0.0,4.3519,4.6509,4.9478,5.052,4.9352,4.4643,3.9886,0.0,0.0,0.0,0.0,0.0,0.0,0.0,0.0,0.0,0.0,0.0,0.0,0.0,0.0,0.0,0.0,0.0,0.0,0.0,0.0,0.0,0.0,0.0,0.0,0.0,0.0,0.0,0.0,0.0,0.0,0.0,0.0,0.0,0.0,0.0,0.0,0.0,0.0,0.0,0.0,0.0,0.0,0.0,0.0,0.0,0.0,0.0,0.0,0.0,0.0,0.0,0.0,0.0,0.0,0.0,0.0,0.0,0.0,0.0,0.0,0.0,0.0,0.0,0.0,0.0,0.0,0.0,0.0,0.0,0.0,0.0,0.0,0.0,0.0,0.0,0.0,0.0,0.0,0.0,0.0,0.0,0.0,0.0,0.0,0.0,0.0,0.0,0.0,0.0,0.0,0.0,0.0,0.0,0.0,0.0,0.0,0.0,0.0,0.0,0.0,0.0,0.0,0.0,0.0,0.0,0.0,0.0,4.0404,4.4434,4.762,4.9819,5.0551,4.974,4.6107,4.1637,3.6332,0.0,0.0,0.0,0.0,0.0,0.0,0.0,0.0,0.0,0.0,0.0,0.0,0.0,0.0,0.0,0.0,0.0,0.0,0.0,0.0,0.0,0.0,0.0,0.0,0.0,0.0,0.0,0.0,0.0,0.0,0.0,0.0,0.0,0.0,0.0,0.0,0.0,0.0,2.1012,2.2774,0.0,0.0,0.0,0.0,0.0,0.0,0.0,0.0,2.3548,0.0,0.0,0.0,0.0,0.0,0.0,0.0,0.0,0.0,0.0,0.0,0.0,0.0,0.0,0.0,0.0,0.0,0.0,0.0,0.0,0.0,0.0,0.0,0.0,0.0,0.0,0.0,0.0,0.0,0.0,0.0,0.0,0.0,0.0,0.0,0.0,0.0,0.0,0.0,0.0,0.0,0.0,0.0,0.0,0.0,0.0,0.0,0.0,0.0,0.0,0.0,0.0,0.0,0.0,0.0,0.0,3.9361,4.1349,4.4643,4.9348,5.076,5.076,4.9218,4.6682,4.2422,3.6462,0.0,0.0,0.0,0.0,0.0,0.0,0.0,0.0,0.0,0.0,0.0,0.0,0.0,0.0,0.0,0.0,0.0,0.0,0.0,0.0,0.0,0.0,0.0,0.0,0.0,0.0,0.0,0.0,0.0,0.0,0.0,0.0,0.0,0.0,0.0,0.0,0.0,0.0,0.0,2.6731,2.8194,0.0,0.0,0.0,0.0,0.0,0.0,0.0,0.0,2.4581,0.0,0.0,0.0,0.0,0.0,0.0,0.0,0.0,0.0,0.0,0.0,0.0,0.0,0.0,0.0,0.0,0.0,0.0,0.0,0.0,0.0,0.0,0.0,0.0,0.0,0.0,0.0,0.0,0.0,0.0,0.0,0.0,0.0,0.0,0.0,0.0,0.0,0.0,0.0,0.0,0.0,0.0,0.0,0.0,0.0,0.0,0.0,0.0,0.0,0.0,0.0,0.0,0.0,0.0,0.0,3.8974,4.2892,4.6473,4.9793,5.0995,5.0629,4.8643,4.5506,4.1402,0.0,0.0,0.0,0.0,0.0,0.0,0.0,0.0,0.0,0.0,0.0,0.0,0.0,0.0,0.0,0.0,0.0,0.0,0.0,0.0,0.0,0.0,0.0,0.0,0.0,0.0,0.0,0.0,0.0,0.0,0.0,0.0,0.0,0.0,0.0,0.0,0.0,0.0,0.0,0.0,2.8222,2.9123,2.9757,0.0,0.0,0.0,0.0,0.0,0.0,2.6556,2.5903,0.0,0.0,0.0,0.0,0.0,0.0,0.0,0.0,0.0,0.0,0.0,0.0,0.0,0.0,0.0,0.0,0.0,0.0,0.0,0.0,0.0,0.0,0.0,0.0,0.0,0.0,0.0,0.0,0.0,0.0,0.0,0.0,0.0,0.0,0.0,0.0,0.0,0.0,0.0,0.0,0.0,0.0,0.0,0.0,0.0,0.0,0.0,0.0,0.0,0.0,0.0,0.0,0.0,0.0,0.0,3.8344,4.4094,4.8012,4.9845,5.089,5.0289,4.7914,4.4174,4.0224,0.0,0.0,0.0,0.0,0.0,0.0,0.0,0.0,0.0,0.0,0.0,0.0,0.0,0.0,0.0,0.0,0.0,0.0,0.0,0.0,0.0,0.0,0.0,0.0,0.0,0.0,0.0,0.0,0.0,0.0,0.0,0.0,0.0,0.0,0.0,0.0,0.0,0.0,0.0,0.0,0.0,3.038,3.1377,3.0835,0.0,0.0,0.0,0.0,2.9188,2.8874,0.0,0.0,0.0,0.0,0.0,0.0,0.0,0.0,0.0,0.0,0.0,0.0,0.0,0.0,0.0,0.0,0.0,0.0,0.0,0.0,0.0,0.0,0.0,0.0,0.0,0.0,0.0,0.0,0.0,0.0,0.0,0.0,0.0,0.0,0.0,0.0,0.0,0.0,0.0,0.0,0.0,0.0,0.0,0.0,0.0,0.0,0.0,0.0,0.0,0.0,0.0,0.0,0.0,0.0,0.0,0.0,3.9416,4.4147,4.7649,4.9823,5.0581,4.9531,4.6763,4.3781,4.0067,0.0,0.0,0.0,0.0,0.0,0.0,0.0,0.0,0.0,0.0,0.0,0.0,0.0,0.0,0.0,0.0,0.0,0.0,0.0,0.0,0.0,0.0,0.0,0.0,0.0,0.0,0.0,0.0,0.0,0.0,0.0,0.0,0.0,0.0,0.0,0.0,0.0,0.0,0.0,0.0,0.0,3.4415,3.3445,3.3607,3.3404,0.0,0.0,3.1529,3.2117,3.377,0.0,0.0,0.0,0.0,0.0,0.0,0.0,0.0,0.0,0.0,0.0,0.0,0.0,0.0,0.0,0.0,0.0,0.0,0.0,0.0,0.0,0.0,0.0,0.0,0.0,0.0,0.0,0.0,0.0,0.0,0.0,0.0,0.0,0.0,0.0,0.0,0.0,0.0,0.0,0.0,0.0,0.0,0.0,0.0,0.0,0.0,0.0,0.0,0.0,0.0,0.0,0.0,0.0,0.0,0.0,3.6331,4.0073,4.4892,4.8532,5.0781,5.1465,5.0237,4.702,4.2918,3.9155,0.0,0.0,0.0,0.0,0.0,0.0,0.0,0.0,0.0,0.0,0.0,0.0,0.0,0.0,0.0,0.0,0.0,0.0,0.0,0.0,0.0,0.0,0.0,0.0,0.0,0.0,0.0,0.0,0.0,0.0,0.0,0.0,0.0,0.0,0.0,0.0,0.0,0.0,0.0,0.0,0.0,0.0,3.468,3.5334,0.0,0.0,0.0,3.4455,3.5051,0.0,0.0,0.0,0.0,0.0,0.0,0.0,0.0,0.0,0.0,0.0,0.0,0.0,0.0,0.0,0.0,0.0,0.0,0.0,0.0,0.0,0.0,0.0,0.0,0.0,0.0,0.0,0.0,0.0,0.0,0.0,0.0,0.0,0.0,0.0,0.0,0.0,0.0,0.0,0.0,0.0,0.0,0.0,0.0,0.0,0.0,0.0,0.0,0.0,0.0,0.0,0.0,0.0,0.0,0.0,0.0,0.0,3.9596,4.5225,4.9014,5.083,5.1554,5.0359,4.715,4.2369,0.0,0.0,0.0,0.0,0.0,0.0,0.0,0.0,0.0,0.0,0.0,0.0,0.0,0.0,0.0,0.0,0.0,0.0,0.0,0.0,0.0,0.0,0.0,0.0,0.0,0.0,0.0,2.1158,0.0,0.0,0.0,0.0,0.0,0.0,0.0,0.0,0.0,0.0,0.0,0.0,0.0,0.0,3.641,3.6018,3.7168,3.7795,0.0,0.0,3.7246,3.7403,3.7456,3.6567,0.0,0.0,0.0,0.0,0.0,0.0,0.0,0.0,0.0,0.0,0.0,0.0,0.0,0.0,0.0,0.0,0.0,0.0,0.0,0.0,0.0,0.0,0.0,0.0,0.0,0.0,0.0,0.0,0.0,0.0,0.0,0.0,0.0,0.0,0.0,0.0,0.0,0.0,0.0,0.0,0.0,0.0,0.0,0.0,0.0,0.0,0.0,0.0,0.0,0.0,0.0,0.0,0.0,0.0,3.6076,3.7505,4.4422,4.8338,4.8907,4.9791,4.907,4.6602,4.2526,3.9024,0.0,0.0,0.0,0.0,0.0,0.0,0.0,0.0,0.0,0.0,0.0,0.0,0.0,0.0,0.0,0.0,0.0,0.0,0.0,0.0,0.0,0.0,0.0,0.0,0.0,0.0,0.0,0.0,0.0,0.0,0.0,0.0,0.0,0.0,0.0,0.0,0.0,0.0,0.0,0.0,0.0,3.7769,3.7743,3.9625,4.0959,0.0,4.0437,3.9758,3.8762,4.1219,4.1114,3.468,0.0,0.0,0.0,0.0,0.0,0.0,0.0,0.0,0.0,0.0,0.0,0.0,0.0,0.0,0.0,0.0,0.0,0.0,0.0,0.0,0.0,0.0,0.0,0.0,0.0,0.0,0.0,0.0,0.0,0.0,0.0,0.0,0.0,0.0,0.0,0.0,0.0,0.0,0.0,0.0,0.0,0.0,0.0,0.0,0.0,0.0,0.0,0.0,0.0,0.0,0.0,0.0,0.0,3.5155,3.7503,4.2896,4.63,4.7523,4.8942,4.8221,4.5218,4.2449,3.9442,0.0,0.0,0.0,0.0,0.0,0.0,0.0,0.0,0.0,0.0,0.0,0.0,0.0,0.0,0.0,0.0,0.0,0.0,0.0,0.0,0.0,0.0,0.0,0.0,0.0,0.0,0.0,0.0,2.4308,2.5275,2.6902,0.0,0.0,0.0,0.0,0.0,0.0,0.0,0.0,0.0,0.0,3.955,3.9878,4.1904,0.0,0.0,4.1698,4.1797,4.1202,4.0859,3.9499,3.6007,3.3751,0.0,0.0,0.0,0.0,0.0,0.0,0.0,0.0,0.0,0.0,0.0,0.0,0.0,0.0,0.0,0.0,0.0,0.0,0.0,0.0,0.0,0.0,0.0,0.0,0.0,0.0,0.0,0.0,0.0,0.0,0.0,0.0,0.0,0.0,0.0,0.0,0.0,0.0,0.0,0.0,0.0,0.0,0.0,0.0,0.0,0.0,0.0,0.0,0.0,0.0,0.0,0.0,3.4303,3.687,4.1421,4.4539,4.6196,4.7859,4.7347,4.4464,4.2543,4.0017,0.0,0.0,0.0,0.0,0.0,0.0,0.0,0.0,0.0,0.0,0.0,0.0,0.0,0.0,0.0,0.0,0.0,0.0,0.0,0.0,0.0,0.0,0.0,0.0,0.0,0.0,0.0,0.0,2.5814,2.6902,2.8499,0.0,0.0,0.0,0.0,0.0,0.0,0.0,0.0,0.0,0.0,4.0007,4.0166,4.2281,4.3339,4.1722,4.2217,4.2527,4.1848,3.9927,3.786,3.6026,0.0,0.0,0.0,0.0,0.0,0.0,0.0,0.0,0.0,0.0,0.0,0.0,0.0,0.0,0.0,0.0,0.0,0.0,0.0,0.0,0.0,0.0,0.0,0.0,0.0,0.0,0.0,2.8798,0.0,0.0,2.7764,0.0,0.0,0.0,0.0,0.0,0.0,0.0,0.0,0.0,0.0,0.0,0.0,0.0,0.0,0.0,0.0,0.0,0.0,0.0,0.0,0.0,0.0,3.3628,3.5107,4.014,4.3398,4.4798,4.6402,4.6397,4.46,4.3027,4.0826,3.79,0.0,0.0,0.0,0.0,0.0,0.0,0.0,0.0,0.0,0.0,0.0,0.0,0.0,0.0,0.0,0.0,0.0,0.0,0.0,0.0,0.0,0.0,0.0,0.0,0.0,0.0,2.7385,2.849,2.9161,0.0,0.0,0.0,0.0,0.0,0.0,0.0,0.0,0.0,3.3936,3.6826,3.8731,3.7989,4.0261,4.2097,4.2121,4.2143,4.166,4.0126,3.8852,3.7138,0.0,0.0,0.0,0.0,0.0,0.0,0.0,0.0,0.0,0.0,0.0,0.0,0.0,0.0,0.0,0.0,0.0,0.0,0.0,0.0,0.0,0.0,0.0,0.0,0.0,0.0,0.0,3.1126,3.0807,0.0,0.0,0.0,0.0,0.0,0.0,0.0,0.0,0.0,0.0,0.0,3.0233,3.0992,0.0,0.0,0.0,0.0,0.0,0.0,0.0,0.0,0.0,0.0,0.0,0.0,3.377,3.5402,3.9631,4.2258,4.3028,4.4971,4.5096,4.3251,4.3081,4.1202,3.7429,0.0,0.0,0.0,0.0,0.0,0.0,0.0,0.0,0.0,0.0,0.0,0.0,0.0,0.0,0.0,0.0,0.0,0.0,0.0,0.0,0.0,0.0,0.0,0.0,0.0,2.7419,0.0,0.0,0.0,0.0,0.0,0.0,0.0,0.0,0.0,0.0,0.0,3.3859,3.5551,3.7435,3.8657,3.8751,4.0521,4.168,0.0,0.0,0.0,0.0,0.0,0.0,0.0,0.0,0.0,0.0,0.0,0.0,0.0,0.0,3.5325,3.2028,3.2109,3.2666,3.2498,0.0,0.0,0.0,0.0,0.0,0.0,0.0,0.0,0.0,0.0,0.0,0.0,0.0,0.0,3.3765,0.0,3.2569,0.0,0.0,0.0,0.0,0.0,0.0,0.0,0.0,3.29,3.3242,3.2554,3.2471,3.2067,0.0,3.1319,3.0451,0.0,0.0,0.0,0.0,0.0,0.0,0.0,0.0,3.4105,3.55,3.9312,4.1588,4.2204,4.3683,4.3671,4.2129,4.2106,4.0722,3.7843,3.6735,3.5395,0.0,0.0,0.0,0.0,0.0,0.0,0.0,0.0,0.0,0.0,0.0,0.0,0.0,0.0,0.0,0.0,0.0,0.0,0.0,0.0,0.0,0.0,0.0,2.9603,0.0,0.0,0.0,0.0,0.0,0.0,0.0,0.0,0.0,3.2214,3.329,3.4637,3.6457,3.7811,3.846,3.8024,0.0,0.0,0.0,0.0,0.0,0.0,0.0,3.5042,3.439,3.3984,3.4003,3.467,3.5994,3.6956,3.681,0.0,0.0,3.4314,3.4129,3.4438,3.4438,3.4237,3.4057,3.426,3.4476,3.477,0.0,0.0,0.0,0.0,0.0,0.0,0.0,0.0,3.5046,3.6243,0.0,3.5093,0.0,0.0,0.0,0.0,3.0537,3.3163,0.0,0.0,3.5953,3.6393,3.5259,3.3911,3.3215,3.3189,3.2864,3.2015,3.0736,3.0486,0.0,0.0,0.0,0.0,0.0,0.0,3.4569,3.5666,3.9136,4.1353,4.2276,4.2573,4.2235,4.1263,4.0282,3.9618,3.9097,3.8418,3.772,3.709,3.5469,0.0,0.0,0.0,0.0,0.0,0.0,0.0,0.0,0.0,0.0,0.0,0.0,0.0,0.0,0.0,0.0,0.0,0.0,0.0,0.0,3.3285,0.0,0.0,0.0,0.0,0.0,0.0,0.0,0.0,0.0,0.0,3.2902,3.4575,3.6004,3.6494,0.0,0.0,0.0,0.0,3.893,3.7697,3.8388,3.8717,3.7648,3.768,3.7486,3.6363,0.0,0.0,3.7852,3.8257,3.822,3.6992,3.8581,3.9539,3.8812,3.7702,3.6991,3.6917,3.5817,3.483,3.515,3.5563,3.552,4.1218,0.0,0.0,0.0,0.0,3.7908,3.9065,4.0617,4.0783,4.0417,3.9638,3.7576,0.0,0.0,0.0,0.0,0.0,0.0,3.6129,3.7078,3.7169,3.6786,3.5985,3.5002,3.4173,3.3415,3.3316,3.2977,3.2423,3.2648,3.1365,2.8642,0.0,0.0,0.0,0.0,3.5811,3.8261,4.0034,4.1353,4.2265,4.2349,4.1938,4.1086,4.1128,4.0676,3.9644,4.026,4.0084,3.8896,3.8397,0.0,0.0,0.0,0.0,0.0,0.0,0.0,0.0,0.0,0.0,0.0,0.0,0.0,0.0,0.0,0.0,0.0,0.0,0.0,3.3539,3.4481,3.3938,0.0,0.0,0.0,0.0,0.0,0.0,0.0,0.0,0.0,3.558,3.602,3.659,0.0,0.0,3.7285,3.6952,3.8074,3.9185,3.9786,3.9592,0.0,3.9833,3.8882,3.8121,3.8038,3.9371,4.0755,4.177,4.2274,4.2698,4.2926,4.3234,4.3399,4.307,4.126,3.9869,3.9717,3.9576,3.9529,3.9684,3.9945,4.0234,4.7225,4.3671,4.0526,4.0022,4.1387,4.1889,4.2962,4.4383,4.4256,4.3913,4.3337,4.1219,3.9468,3.8057,3.608,0.0,0.0,0.0,3.7816,3.9364,3.8243,3.7678,3.7527,3.6114,3.5085,3.4487,3.429,3.4165,3.4018,3.431,3.3476,3.1579,0.0,0.0,3.2871,3.5055,3.7156,3.9192,4.0696,4.1747,4.2302,4.1531,4.0963,4.0657,4.0681,4.0721,4.0746,4.1395,4.1692,4.1462,4.081,3.9531,0.0,0.0,0.0,0.0,0.0,0.0,0.0,0.0,0.0,0.0,0.0,3.1522,3.0843,0.0,0.0,0.0,3.5617,3.5363,3.5363,3.4967,0.0,0.0,0.0,0.0,0.0,0.0,0.0,3.2837,3.5811,3.8171,3.8626,3.9106,3.9369,3.9406,3.9288,3.9206,3.9123,0.0,4.0598,4.1089,4.0696,4.0655,4.1524,4.1089,4.0882,4.1653,4.2667,4.3677,4.4505,4.49,4.5273,4.5768,4.5871,4.5809,4.5809,4.4546,4.3197,4.2186,4.2186,4.2352,4.2373,4.2928,4.3466,5.2598,5.1633,4.6884,4.4773,4.4618,4.5637,4.6421,4.692,4.6369,4.6944,4.8097,4.5455,4.4119,4.3646,3.9674,0.0,3.9442,3.8728,3.9344,4.0894,3.931,3.8916,3.9423,3.7195,3.6059,3.6038,3.5749,3.5625,3.5552,3.5625,3.5635,3.5697,3.4921,3.4516,3.462,3.697,3.8543,3.9151,4.1214,4.2265,4.2203,4.0468,3.9647,4.0018,3.9416,4.0097,4.2097,4.2102,4.2796,4.4382,4.3044,4.2242,4.2265,0.0,0.0,0.0,0.0,0.0,0.0,0.0,0.0,0.0,0.0,0.0,0.0,0.0,0.0,0.0,3.8867,0.0,3.8078,3.5634,0.0,0.0,0.0,3.5057,3.7022,3.7802,3.807,3.779,0.0,0.0,4.183,4.2994,4.3553,4.2824,4.2849,4.2704,4.1938,4.2559,4.2849,4.2207,4.2099,4.2373,4.3366,4.3987,4.4795,4.5893,4.6472,4.6431,4.6576,4.6617,4.6596,4.6762,4.6968,4.7196,4.7155,4.7341,4.6947,4.4401,4.3987,4.3967,4.407,4.4611,4.509,5.6454,5.5811,5.4192,5.2046,4.9819,5.0054,5.0524,5.0995,5.0446,4.9923,4.9404,4.7858,4.5948,4.3694,4.1156,4.0743,4.1915,4.1325,4.1476,4.2062,4.0666,3.9821,3.9392,3.8205,3.7473,3.715,3.7396,3.7343,3.7032,3.7363,3.7881,3.8489,3.8303,3.8034,3.7703,3.8323,3.973,4.1901,4.2182,4.212,4.1747,4.0247,3.9537,3.9629,3.9766,4.0705,4.2521,4.3462,4.4853,4.6782,4.651,4.5641,4.4199,4.101,0.0,0.0,0.0,0.0,0.0,0.0,0.0,0.0,0.0,3.3686,3.196,0.0,3.472,0.0,4.0141,4.2575,4.1865,4.152,0.0,0.0,3.7414,3.7286,3.8312,4.0062,4.0933,4.0193,4.2741,4.4443,4.4215,4.5024,4.5871,4.6285,4.4691,4.3615,4.4091,4.465,4.5084,4.5188,4.5664,4.6285,4.6409,4.672,4.7072,4.7775,4.79,4.8127,4.881,4.8977,4.9059,4.9349,4.9245,4.9039,4.8603,4.8396,4.79,4.6947,4.672,4.672,4.672,4.6599,4.6516,5.8908,5.8346,5.7819,5.5953,5.336,5.3667,5.356,5.3139,5.255,5.1354,4.978,4.7977,4.6289,4.4676,4.318,4.2912,4.3524,4.3096,4.2811,4.2636,4.1861,4.101,4.0035,3.9412,3.8854,3.8419,3.8667,3.8647,3.844,3.8667,3.9109,3.9813,4.0034,4.022,4.0365,4.0365,4.1214,4.289,4.2513,4.2182,4.1871,4.0344,3.9316,3.8916,3.8509,3.8845,4.0059,4.1005,4.2457,4.4412,4.4976,4.4753,4.365,4.088,3.8475,0.0,0.0,0.0,0.0,0.0,0.0,0.0,0.0,0.0,0.0,0.0,3.6615,3.7429,4.1443,4.3499,4.2113,4.177,4.1481,4.112,4.0832,4.1384,4.318,4.4505,4.5124,4.4627,4.6139,4.7092,4.6844,4.7237,4.7734,4.8231,4.6989,4.6057,4.6161,4.6409,4.6658,4.6886,4.7361,4.7817,4.7983,4.8211,4.8418,4.8624,4.8729,4.8915,4.9392,4.9495,4.9578,4.9742,4.9661,4.9347,4.8886,4.8616,4.8243,4.7846,4.7722,4.76,4.7441,4.6983,4.671,6.0316,5.9579,5.9046,5.7474,5.5335,5.5951,5.5254,5.3645,5.3258,5.1967,4.9825,4.7344,4.6194,4.608,4.5147,4.4653,4.4568,4.4185,4.3631,4.2915,4.2816,4.221,4.1131,4.0661,4.0241,3.9771,3.9833,3.9813,3.9771,3.9833,4.0081,4.0536,4.0944,4.1602,4.243,4.2472,4.2621,4.2956,4.2559,4.2348,4.2265,4.0468,3.9068,3.8191,3.6846,3.6369,3.6867,3.7395,3.8648,4.0641,4.1667,4.2442,4.2971,4.0362,3.8744,0.0,3.5707,0.0,0.0,0.0,0.0,0.0,0.0,0.0,0.0,3.9849,3.9857,4.1097,4.2669,4.3103,4.1723,4.0703,4.1384,4.4484,4.4919,4.6037,4.8729,4.9102,4.9102,4.9102,4.9102,4.9102,4.9019,4.9102,4.9102,4.9039,4.8915,4.8522,4.8024,4.7859,4.7838,4.79,4.7858,4.8128,4.8459,4.879,4.906,4.9081,4.9081,4.9102,4.9122,4.9122,4.908,4.9014,4.8757,4.8415,4.8007,4.7684,4.7338,4.6757,4.6583,4.6689,4.6966,4.6425,4.6049,6.0527,5.8628,5.8078,5.6462,5.4303,5.4541,5.3598,5.195,5.2792,5.2163,5.0417,4.8717,4.7738,4.7329,4.5976,4.4994,4.4369,4.4252,4.3954,4.3459,4.3048,4.2741,4.2518,4.2083,4.1664,4.127,4.1602,4.1581,4.1193,4.1602,4.1979,4.2393,4.246,4.2807,4.3325,0.0,0.0,0.0,4.3035,4.2621,4.2244,4.0468,3.9102,3.8225,3.6846,0.0,3.738,3.7569,3.8866,4.1471,4.1836,0.0,0.0,0.0,0.0,0.0,0.0,0.0,0.0,0.0,0.0,0.0,3.9575,3.904,4.0022,3.9719,4.0399,4.2627,4.3504,4.4785,4.6711,4.707,4.7444,4.8086,4.819,4.8459,4.906,4.9102,4.9102,4.9102,4.9102,4.9102,4.9102,4.9102,4.9102,4.9102,4.9102,4.9039,4.8853,4.8791,4.8832,4.8853,4.877,4.8853,4.8957,4.906,4.9102,4.9102,4.9102,4.9102,4.9059,4.9059,4.893,4.8544,4.7231,4.608,4.5554,4.4221,4.3334,4.3049,4.2755,4.3449,4.6769,4.5909,4.4517,5.9433,5.7859,5.7536,5.6114,0.0,5.4129,5.2678,5.0343,5.1352,5.0566,4.846,4.7488,4.7065,4.7044,4.6258,4.5553,4.5002,4.5209,4.494,4.4298,4.4298,4.3925,4.3225,4.3035,4.2596,4.1954,4.2182,4.2182,4.1975,4.2182,4.241,4.26,4.2807,4.2998,4.3263,4.3491,4.3615,4.3615,4.3159,4.2807,4.2538,4.1007,3.9889,3.9185,3.786,0.0,0.0,0.0,0.0,0.0,0.0,0.0,0.0,4.4269,0.0,4.5181,4.35,4.3161,4.4604,4.4437,4.4755,4.5944,4.4964,4.3611,4.2128,4.3128,4.4533,4.6005,4.6383,4.7132,4.8563,4.8977,4.9102,4.9102,4.9102,4.9102,4.9102,4.9102,4.9102,4.9102,4.9102,4.9102,4.9102,4.9102,4.9102,4.9102,4.9102,4.9102,4.9102,4.9102,4.9102,4.9102,4.9102,4.9102,4.9102,4.9102,4.9059,4.9102,4.9102,4.9016,4.8802,4.8759,4.8308,4.6971,4.5774,4.4788,4.3264,4.2174,4.1484,4.1276,4.1006,4.1429,4.3727,4.3148,4.2326,5.794,5.6814,5.6814,5.5526,5.3539,5.3593,5.1966,4.9249,0.0,0.0,0.0,4.6244,4.6368,4.6658,4.6658,4.6471,4.6078,4.6409,4.6058,4.525,4.5623,4.5167,4.3987,4.3801,4.3346,4.2679,4.2575,4.2534,4.2534,4.2534,4.2534,4.2575,4.287,4.3039,4.3142,4.3553,4.378,4.3822,4.3304,4.2956,4.2853,4.1648,4.0758,4.0206,3.8978,3.8088,3.7632,3.8452,3.9164,3.9669,4.0803,4.194,4.2863,4.3007,4.3225,4.3584,4.3465,4.4879,4.8113,4.8555,4.9368,5.0893,4.9808,4.7921,4.5107,4.7112,4.8687,4.9081,4.9102,4.9102,4.9102,4.9102,4.9102,4.9102,4.9102,4.9102,4.9102,4.9102,4.9102,4.9102,4.9102,4.9102,4.9102,4.9102,4.9102,4.9102,4.9102,4.8887,4.8695,4.8845,4.893,4.8523,4.8308,4.8394,4.8093,4.7877,4.8179,4.8179,4.803,4.79,4.7771,4.7468,4.6429,4.4504,4.3974,4.2711,4.1006,4.0101,3.9937,3.9544,3.9482,3.9499,3.9453,3.9453,3.9544,5.69,5.4961,5.4961,5.3835,5.2051,5.1713,5.0846,4.9642,4.8546,4.763,4.6948,4.7693,4.8024,4.8128,4.8086,4.7838,4.7444,4.7465,4.701,4.6121,4.6183,4.5954,4.5374,4.4588,4.4132,4.3987,4.3615,4.3428,4.3408,4.3408,4.3408,4.3408,4.3453,4.3698,4.407,4.4174,4.4401,4.4774,4.3946,4.3325,4.2873,4.1959,4.1104,4.0199,3.9309,3.851,3.8109,3.8316,3.8931,4.0199,4.0484,4.2466,4.6566,4.7128,4.8488,5.0795,5.0412,5.0189,5.041,4.9563,4.9133,4.9383,4.9188,4.8853,4.8481,4.8749,4.9039,4.9102,4.9102,4.9102,4.9102,4.9102,4.9102,4.9102,4.9102,4.9102,4.9102,4.9102,4.9102,4.9102,4.9102,4.9102,4.9102,4.9102,4.9059,4.9059,4.8566,4.8394,4.7231,4.8073,4.8245,4.7038,4.6603,4.5929,4.5027,4.4233,4.4895,4.5837,4.4744,4.4284,4.5184,4.4195,4.2978,4.186,4.0599,3.9283,3.8203,3.6684,3.6158,3.5972,3.6018,3.5879,3.5972,3.5925,3.6235,5.4502,5.314,5.3098,5.2581,5.1771,5.1315,5.0591,4.9806,4.9349,4.879,4.8169,4.8356,4.8563,4.877,4.8522,4.8169,4.7672,4.7444,4.6927,4.6327,4.6307,4.6058,4.5664,4.525,4.4795,4.4319,4.4091,4.3863,4.3615,4.3615,4.3615,4.3635,4.3863,4.4215,4.465,4.467,4.4795,4.4981,4.4567,4.4256,4.4049,4.3387,4.2973,4.2787,4.2145,4.1959,4.2249,4.2439,4.3031,4.3957,4.4188,4.5498,4.7888,4.8255,4.9046,5.0546,5.0371,5.0059,4.9934,4.9446,4.9102,4.9102,4.9102,4.9102,4.9102,4.9102,4.9102,4.9102,4.9102,4.9102,4.9102,4.9102,4.9102,4.9102,4.9102,4.9102,4.9102,4.9102,4.9102,4.9102,4.9102,4.9102,4.9102,4.9102,4.8609,4.7771,4.6797,4.5686,4.4788,4.5121,4.5404,4.4788,4.4656,4.4391,4.3478,4.3148,4.3282,4.386,4.2978,4.2487,4.2845,4.1905,4.0961,3.9556,3.8432,3.7499,3.6375,3.5381,3.4803,3.471,3.471,3.471,3.471,3.471,3.5023,5.2806,5.1957,5.206,5.2102,5.2081,5.1626,5.1025,5.0448,5.0508,5.0115,4.9369,4.8936,4.8874,4.9039,4.8625,4.8211,4.7817,4.7486,4.7051,4.6638,4.6596,4.6369,4.5995,4.5809,4.5312,4.465,4.4505,4.4277,4.3967,4.3925,4.3925,4.3967,4.4277,4.4691,4.5147,4.5147,4.5188,4.5291,4.5291,4.5209,4.4981,4.4629,4.4712,4.5229,4.494,4.5188,4.6078,4.6471,4.6824,4.7279,4.7651,4.8086,4.8522,4.8563,4.8729,4.906,4.9102,4.9102,4.9102,4.9102,4.9102,4.9102,4.9102,4.9102,4.9102,4.9102,4.9102,4.9102,4.9102,4.9102,4.9102,4.9102,4.9102,4.9102,4.8652,4.8351,4.8394,4.8073,4.7814,4.7814,4.7727,4.7578,4.7771,4.7641,4.6777,4.5253,4.393,4.3015,4.2523,4.2013,4.1923,4.1806,4.212,4.2031,4.1896,4.1311,4.1158,4.1456,4.0808,4.0311,4.0147,4.0101,3.9163,3.7361,3.6961,3.6375,3.5069,3.471,3.471,3.471,3.471,3.471,3.471,3.471,3.471,5.3194,5.2557,5.2826,5.3075,5.2971,5.2536,5.2247,5.2081,5.1398,5.0777,5.0259,4.9868,4.9433,4.9081,4.8583,4.8397,4.8335,4.8314,4.7962,4.7548,4.7568,4.732,4.6782,4.6078,4.5643,4.5517,4.5126,4.4877,4.4795,4.4815,4.4857,4.4877,4.4919,4.5147,4.5561,4.5662,4.5809,4.6162,4.6183,4.579,4.5043,4.494,4.5333,4.6162,4.6141,4.6534,4.7403,4.7548,4.7775,4.821,4.8293,4.8563,4.8977,4.9039,4.906,4.9102,4.9102,4.9102,4.9102,4.9102,4.9102,4.9102,4.9102,4.9102,4.9102,4.9102,4.9102,4.9102,4.9102,4.9102,4.9102,4.9016,4.8845,4.848,4.7361,4.6453,4.6279,4.4939,4.3923,4.3923,4.3923,4.3442,4.4137,4.3567,4.2729,4.2586,4.1923,4.1051,3.9846,3.9436,3.8843,3.7883,3.8281,3.8631,3.7699,3.69,3.7699,3.8402,3.7269,3.7038,3.7453,3.673,3.521,3.5832,3.521,3.5069,3.4929,3.471,3.471,3.471,3.471,3.471,3.471,3.471,3.471,5.2909,5.2143,5.2578,5.295,5.3095,5.2681,5.2474,5.2412,5.1812,5.1253,5.0798,5.0342,4.9742,4.9102,4.8915,4.8667,4.8376,4.8418,4.8169,4.7693,4.7424,4.7175,4.6948,4.6348,4.5954,4.5685,4.5478,4.525,4.5043,4.5041,4.5126,4.5374,4.5395,4.5623,4.5996,4.6078,4.6265,4.6679,4.672,4.6658,4.6575,4.6326,4.6492,4.7051,4.7134,4.7424,4.8024,4.8086,4.8335,4.8791,4.8832,4.8873,4.9081,4.9102,4.9102,4.9102,4.9102,4.9102,4.9102,4.9102,4.9102,4.9102,4.9102,4.9102,4.9102,4.9102,4.9102,4.9102,4.9102,4.8695,4.7621,4.7404,4.6951,4.5905,4.4983,4.4435,4.4044,4.3397,4.2818,4.255,4.2523,4.2468,4.2531,4.1426,4.0561,4.0253,3.9512,3.8313,3.7469,3.71,3.6591,3.6018,3.6235,3.6421,3.6127,3.5879,3.6111,3.6235,3.5739,3.5428,3.5583,3.5428,3.4756,3.4724,3.4753,3.4753,3.4756,3.471,3.471,3.4724,3.471,3.471,3.471,3.471,3.471,5.2992,5.2474,5.2723,5.3137,5.3489,5.293,5.2681,5.2599,5.206,5.1481,5.0901,5.057,4.999,4.935,4.9185,4.8915,4.8625,4.8604,4.8418,4.8024,4.7486,4.7217,4.7113,4.6576,4.6141,4.5912,4.5871,4.5705,4.5395,4.5354,4.554,4.583,4.5871,4.6058,4.6451,4.6493,4.672,4.7134,4.7217,4.7424,4.7755,4.7568,4.7548,4.7838,4.7921,4.8086,4.8584,4.8604,4.8749,4.9081,4.9102,4.9102,4.9102,4.9102,4.9102,4.9102,4.9102,4.9102,4.9102,4.9102,4.8887,4.8394,4.8347,4.8172,4.7681,4.7611,4.7611,4.7425,4.7425,4.669,4.6496,4.5754,4.4744,4.3371,4.2792,4.221,4.1681,4.1318,4.0743,4.0561,4.0335,4.0722,4.0398,3.9394,3.857,3.8274,3.7148,3.6073,3.6026,3.5806,3.5571,3.5494,3.5241,3.5262,3.5675,3.5579,3.5345,3.5358,3.5135,3.5111,3.5006,3.4973,3.4973,3.5196,3.5002,3.4988,3.5075,3.5031,3.49,3.4856,3.4841,3.4812,3.4724,3.471,3.471,5.3752,5.369,5.3711,5.3938,5.4352,5.3489,5.3137,5.2992,5.2185,5.1315,5.0567,5.0422,5.0177,4.9765,4.935,4.9102,4.9081,4.9081,4.9039,4.8874,4.8066,4.7631,4.7589,4.672,4.6286,4.6224,4.6203,4.6203,4.6162,4.6203,4.6245,4.6265,4.6265,4.6493,4.6865,4.6948,4.7175,4.761,4.7651,4.7879,4.8272,4.8314,4.8335,4.8377,4.8397,4.8604,4.8998,4.906,4.9081,4.9102,4.9102,4.9102,4.9102,4.9102,4.9102,4.9102,4.9102,4.9059,4.9016,4.893,4.8222,4.6706,4.6606,4.5978,4.4534,4.4525,4.4517,4.3845,4.3667,4.3923,4.5348,4.4307,4.3159,4.2317,4.094,3.9913,3.9258,3.8219,3.7133,3.71,3.7253,3.7215,3.6481,3.6337,3.6528,3.6322,3.5876,3.5735,3.5787,3.5673,3.5673,3.5658,3.5596,3.5493,3.4979,3.5194,3.5309,3.5306,3.5438,3.5577,3.5636,3.565,3.5621,3.5606,3.5518,3.5518,3.5606,3.5562,3.5416,3.5313,3.5211,3.5123,3.4973,3.4783,3.4812,5.3427,5.3447,5.3669,5.3897,5.398,5.3447,5.3013,5.2681,5.2081,5.1626,5.1294,5.1005,5.0777,5.057,4.9889,4.9557,4.9557,4.9557,4.9392,4.9019,4.8107,4.7672,4.7589,4.672,4.6307,4.6307,4.6307,4.6307,4.6307,4.6307,4.6307,4.6369,4.6617,4.6844,4.701,4.732,4.7672,4.8128,4.8169,4.8397,4.8791,4.8853,4.8853,4.8853,4.8874,4.8936,4.9102,4.9102,4.9102,4.9102,4.9102,4.9102,4.9102,4.9102,4.9102,4.9102,4.9102,4.8566,4.7448,4.7231,4.6547,4.497,4.4853,4.4707,4.4177,4.4004,4.3949,4.3688,4.2392,4.2175,4.2288,4.1926,4.0692,3.9162,3.8691,3.8259,3.7491,3.6811,3.6426,3.6137,3.6134,3.6206,3.6275,3.6216,3.6147,3.5973,3.5826,3.5738,3.5694,3.5694,3.5723,3.5694,3.5694,3.5621,3.5445,3.543,3.5518,3.5533,3.5621,3.5665,3.5723,3.5767,3.5738,3.5782,3.5797,3.5811,3.5826,3.5797,3.5694,3.5621,3.5518,3.5474,3.5386,3.5225,3.5255,5.353,5.3489,5.3835,5.3918,5.3752,5.3364,5.2955,5.2454,5.1998,5.1729,5.1522,5.1087,5.088,5.0733,4.9963,4.9655,4.9785,4.964,4.9412,4.9039,4.8149,4.7672,4.7548,4.672,4.6307,4.6307,4.6307,4.6307,4.6307,4.6307,4.6389,4.6555,4.6865,4.7155,4.7423,4.7775,4.819,4.8542,4.8646,4.8812,4.9081,4.9102,4.9102,4.9102,4.9102,4.9102,4.9102,4.9102,4.9102,4.9102,4.9102,4.9102,4.9102,4.9102,4.8802,4.8265,4.8159,4.7398,4.5796,4.5463,4.4811,4.3352,4.324,4.3217,4.2678,4.2463,4.2405,4.196,4.0883,3.9684,3.9456,3.9282,3.848,3.6985,3.7091,3.7085,3.6319,3.6312,3.6238,3.6114,3.6192,3.6363,3.6524,3.6392,3.629,3.6275,3.607,3.6017,3.6002,3.6002,3.6002,3.6002,3.6046,3.6061,3.5953,3.5983,3.5914,3.5851,3.5953,3.5973,3.5929,3.5943,3.5958,3.5973,3.5987,3.6002,3.6002,3.5987,3.5943,3.587,3.5826,3.5749,3.5709,3.565,3.5636,5.4166,5.3814,5.429,5.4104,5.3649,5.3282,5.2888,5.2412,5.1957,5.1522,5.117,5.065,5.0482,5.0272,4.9571,4.9348,4.9655,4.9326,4.9121,4.9019,4.819,4.7713,4.7631,4.6782,4.6348,4.6307,4.6307,4.6307,4.6369,4.6389,4.6576,4.6927,4.7072,4.7548,4.8334,4.8334,4.8646,4.8957,4.9039,4.9081,4.9102,4.9102,4.9102,4.9102,4.9102,4.9102,4.9102,4.9102,4.9102,4.9102,4.9102,4.9102,4.9059,4.893,4.8179,4.673,4.6318,4.5438,4.4128,4.3868,4.3233,4.1919,4.186,4.1252,3.9971,3.9562,3.9356,3.8846,3.8085,3.7307,3.6984,3.7133,3.7067,3.6474,3.6585,3.6486,3.6019,3.6002,3.6231,3.6466,3.6553,3.6597,3.6597,3.6568,3.6539,3.6524,3.6509,3.648,3.6451,3.6451,3.6539,3.6539,3.6451,3.6363,3.648,3.6568,3.6378,3.6231,3.6363,3.6422,3.6348,3.6334,3.6305,3.6319,3.6305,3.6319,3.6305,3.629,3.6261,3.6187,3.6144,3.6056,3.6046,3.5973,3.5885,5.3752,5.3468,5.3835,5.3566,5.295,5.2764,5.2454,5.1978,5.1522,5.1232,5.1043,5.0586,5.0391,5.0155,4.9453,4.9274,4.9653,4.8999,4.8802,4.8913,4.848,4.7982,4.761,4.7092,4.6617,4.6348,4.6307,4.6472,4.672,4.6762,4.701,4.7444,4.7796,4.8086,4.8439,4.8729,4.8998,4.9081,4.9102,4.9102,4.9102,4.9102,4.9102,4.9102,4.9102,4.9102,4.9102,4.9102,4.9102,4.9122,4.9102,4.9102,4.8887,4.7857,4.6959,4.6513,4.5294,4.394,4.2633,4.2289,4.1628,4.0384,4.0105,3.9964,3.9467,3.8954,3.868,3.8502,3.7974,3.7366,3.7204,3.7177,3.6941,3.6303,3.6695,3.6813,3.6359,3.6378,3.648,3.6568,3.6612,3.6612,3.6612,3.6612,3.6612,3.6612,3.6612,3.6612,3.6612,3.6612,3.6597,3.6612,3.6612,3.6612,3.6612,3.6612,3.6509,3.6407,3.6524,3.6612,3.6612,3.6612,3.6612,3.6612,3.6612,3.6612,3.6612,3.6568,3.6495,3.6495,3.6422,3.6363,3.6319,3.6246,3.6144,5.3731,5.3675,5.3633,5.3282,5.2743,5.2578,5.2031,5.1359,5.1149,5.0915,5.0568,5.0258,5.0022,4.9709,4.8924,4.8667,4.8861,4.8337,4.8372,4.874,4.854,4.8127,4.7631,4.7051,4.6617,4.6369,4.6307,4.6555,4.6968,4.701,4.7299,4.79,4.8273,4.8522,4.8667,4.8936,4.9102,4.9102,4.9102,4.9102,4.9102,4.9102,4.9102,4.9122,4.9267,4.8942,4.838,4.9063,4.9494,4.9261,4.8826,4.8493,4.8298,4.6655,4.5356,4.4601,4.3715,4.2364,4.0956,4.0693,4.0434,3.958,3.9225,3.9207,3.9332,3.8753,3.8444,3.8243,3.7907,3.7471,3.7145,3.7091,3.6854,3.6383,3.6697,3.6943,3.6661,3.6612,3.6597,3.6612,3.6612,3.6612,3.6612,3.6612,3.6612,3.6612,3.6612,3.6612,3.6612,3.6612,3.6612,3.6612,3.6612,3.6612,3.6612,3.6612,3.6612,3.6583,3.6583,3.6612,3.6612,3.6612,3.6612,3.6612,3.6612,3.6612,3.6612,3.6612,3.6568,3.6597,3.6612,3.6539,3.6466,3.6495,3.6451,5.3974,5.4147,5.3463,5.3095,5.2904,5.2532,5.1614,5.0617,5.0719,5.0412,4.9808,4.9592,4.9326,4.8791,4.8131,4.7877,4.7712,4.7799,4.7958,4.829,4.8347,4.8189,4.7755,4.6844,4.6451,4.6493,4.6431,4.6658,4.7196,4.7217,4.7548,4.8355,4.8501,4.8667,4.8977,4.9102,4.9102,4.9102,4.9102,4.9102,4.9122,4.9185,4.9185,4.9162,4.9296,4.8652,4.7597,4.8554,4.9582,4.9451,4.7983,4.7094,4.6857,4.5338,4.3437,4.2157,4.1633,4.0821,3.9627,3.958,3.9515,3.956,3.925,3.8971,3.8907,3.8451,3.7946,3.7647,3.7421,3.7125,3.6745,3.6647,3.6583,3.6597,3.6632,3.6661,3.6612,3.6612,3.6612,3.6612,3.6612,3.6612,3.6612,3.6612,3.6612,3.6612,3.6612,3.6612,3.6612,3.6612,3.6612,3.6612,3.6612,3.6612,3.6612,3.6612,3.6612,3.6612,3.6612,3.6612,3.6612,3.6612,3.6612,3.6612,3.6612,3.6612,3.6612,3.6612,3.6612,3.6612,3.6612,3.6612,3.6612,3.6612,3.6612,5.2802,5.134,5.224,5.2291,5.1708,5.1498,5.1036,5.0277,4.9772,4.9501,4.9141,4.8832,4.8474,4.7987,4.8061,4.7883,4.7646,4.7638,4.7721,4.7918,4.827,4.8369,4.7961,4.6906,4.6658,4.7175,4.6968,4.7258,4.7962,4.7962,4.8272,4.8915,4.8894,4.8957,4.9102,4.9102,4.9102,4.9102,4.9102,4.9122,4.9185,4.9454,4.962,4.9531,4.8634,4.786,4.712,4.6693,4.7076,4.783,4.6169,4.5202,4.5075,4.3441,4.2173,4.1787,4.0625,3.9883,3.9707,3.9609,3.9511,3.9249,3.902,3.8825,3.8433,3.7942,3.7598,3.7303,3.7056,3.6809,3.6612,3.6612,3.6612,3.6612,3.6612,3.6612,3.6612,3.6612,3.6612,3.6612,3.6612,3.6612,3.6612,3.6612,3.6612,3.6612,3.6612,3.6612,3.6612,3.6612,3.6612,3.6612,3.6612,3.6612,3.6612,3.6612,3.6612,3.6612,3.6612,3.6612,3.6612,3.6612,3.6612,3.6612,3.6612,3.6612,3.6612,3.6612,3.6612,3.6612,3.6612,3.6612,3.6612,3.6612,3.6612,5.1427,5.0368,5.1457,5.1687,5.1311,5.092,5.0373,4.9808,4.9417,4.8882,4.8544,4.8531,4.8179,4.7662,4.7981,4.785,4.7366,4.7509,4.7535,4.7465,4.7664,4.7994,4.7981,4.7175,4.6968,4.7589,4.7444,4.7713,4.8231,4.8418,4.8667,4.9019,4.9102,4.9102,4.9102,4.9102,4.9102,4.9102,4.9122,4.9185,4.9412,4.964,4.9258,4.8915,4.7943,4.7496,4.6595,4.4289,4.3937,4.5409,4.4736,4.373,4.3543,4.1889,4.0981,4.1053,4.0013,3.9497,3.9445,3.946,3.9216,3.8727,3.8482,3.8188,3.7844,3.7401,3.7056,3.7007,3.6745,3.6612,3.6612,3.6612,3.6612,3.6612,3.6612,3.6612,3.6612,3.6612,3.6612,3.6612,3.6612,3.6612,3.6612,3.6612,3.6612,3.6612,3.6612,3.6612,3.6612,3.6612,3.6612,3.6612,3.6612,3.6612,3.6612,3.6612,3.6612,3.6612,3.6612,3.6612,3.6612,3.6612,3.6612,3.6612,3.6612,3.6612,3.6612,3.6612,3.6612,3.6612,3.6612,3.6612,3.6612,3.6612,3.6612,5.0103,5.0221,5.0384,5.0767,5.0805,5.0248,4.9497,4.9168,4.9241,4.8717,4.7987,4.8464,4.8216,4.7558,4.8073,4.7832,4.7076,4.747,4.7379,4.7275,4.7271,4.758,4.8396,4.7444,4.7403,4.7838,4.7817,4.8045,4.8459,4.8542,4.8708,4.9019,4.9102,4.9102,4.9102,4.9102,4.9143,4.9226,4.9267,4.9475,4.9632,4.9576,4.89,4.7937,4.7014,4.6113,4.4435,4.2167,4.1426,4.4375,4.3205,4.2499,4.2215,4.0626,3.9979,3.9915,3.9753,3.9428,3.9054,3.8971,3.8678,3.8203,3.7697,3.7352,3.7253,3.6893,3.6711,3.6711,3.6612,3.6612,3.6612,3.6612,3.6612,3.6612,3.6612,3.6612,3.6612,3.6612,3.6612,3.6612,3.6612,3.6612,3.6612,3.6612,3.6612,3.6612,3.6612,3.6612,3.6612,3.6612,3.6612,3.6612,3.6612,3.6612,3.6612,3.6612,3.6612,3.6612,3.6612,3.6612,3.6612,3.6612,3.6612,3.6612,3.6612,3.6612,3.6612,3.6612,3.6612,3.6612,3.6612,3.6612,3.6612,3.6612,3.6612,4.9024,4.7098,4.6547,4.6841,4.7476,4.7419,4.7965,4.8875,4.864,4.8261,4.7838,4.8144,4.7891,4.7187,4.8125,4.8288,4.7461,4.7503,4.7583,4.7551,4.7135,4.7799,4.8435,4.7693,4.7755,4.8355,4.8397,4.8522,4.879,4.8915,4.8998,4.9081,4.9102,4.9102,4.9102,4.9164,4.9309,4.9578,4.964,4.9781,4.9755,4.902,4.8258,4.7436,4.5332,4.3084,4.1479,4.0287,4.0206,4.0674,4.0755,4.0659,4.0513,4.0093,3.9768,3.967,3.9362,3.9118,3.8923,3.8531,3.8139,3.7647,3.745,3.7204,3.6809,3.6696,3.6612,3.6612,3.6612,3.6612,3.6612,3.6612,3.6612,3.6612,3.6612,3.6612,3.6612,3.6612,3.6612,3.6612,3.6612,3.6612,3.6612,3.6612,3.6612,3.6612,3.6612,3.6612,3.6612,3.6612,3.6612,3.6612,3.6612,3.6612,3.6612,3.6612,3.6612,3.6612,3.6612,3.6612,3.6612,3.6612,3.6612,3.6612,3.6612,3.6612,3.6612,3.6612,3.6612,3.6612,3.6612,3.6612,3.6612,3.6612,3.6612,4.7302,4.5716,4.4709,4.5708,4.7539,4.6775,4.7214,4.8624,4.8633,4.8262,4.8027,4.832,4.8125,4.7598,4.8183,4.8209,4.7643,4.7193,4.7361,4.7645,4.7399,4.7793,4.8724,4.8272,4.8189,4.8977,4.8874,4.8915,4.906,4.9102,4.9081,4.9102,4.9102,4.9102,4.9164,4.9266,4.9537,4.9785,4.999,4.9929,4.9206,4.8596,4.6933,4.5518,4.2941,4.0756,3.9995,3.9865,3.9817,3.9817,3.9817,3.9817,3.9719,3.9557,3.9411,3.9313,3.8923,3.8482,3.8237,3.7991,3.7598,3.7106,3.7056,3.6908,3.6661,3.6612,3.6612,3.6612,3.6612,3.6612,3.6612,3.6612,3.6612,3.6612,3.6612,3.6612,3.6612,3.6612,3.6612,3.6612,3.6612,3.6612,3.6612,3.6612,3.6612,3.6612,3.6612,3.6612,3.6612,3.6612,3.6612,3.6612,3.6612,3.6612,3.6612,3.6612,3.6612,3.6612,3.6612,3.6612,3.6612,3.6612,3.6612,3.6612,3.6612,3.6612,3.6612,3.6612,3.6612,3.6612,3.6612,3.6612,3.6612,3.6612,3.6612,4.6205,4.5469,4.407,4.5679,4.8347,4.6747,4.6981,4.8755,4.8894,4.8542,4.8242,4.862,4.832,4.8066,4.8047,4.7871,4.7402,4.7056,4.7282,4.7872,4.7598,4.808,4.8764,4.8749,4.8646,4.9081,4.906,4.9102,4.9102,4.9102,4.9102,4.9102,4.9102,4.882,4.8858,4.9017,4.8844,4.8691,4.8795,4.8688,4.7735,4.7209,4.534,4.2768,4.1142,4.0093,3.9817,3.9817,3.9817,3.9817,3.9719,3.9655,3.9557,3.9313,3.902,3.902,3.8482,3.7942,3.7647,3.7352,3.7056,3.6612,3.6612,3.6612,3.6612,3.6612,3.6612,3.6612,3.6612,3.6612,3.6612,3.6612,3.6612,3.6612,3.6612,3.6612,3.6612,3.6612,3.6612,3.6612,3.6612,3.6612,3.6612,3.6612,3.6612,3.6612,3.6612,3.6612,3.6612,3.6612,3.6612,3.6612,3.6612,3.6612,3.6612,3.6612,3.6612,3.6612,3.6612,3.6612,3.6612,3.6612,3.6612,3.6612,3.6612,3.6612,3.6612,3.6612,3.6612,3.6612,3.6612,3.6612,3.6612,3.6612,3.6612,4.771,4.6672,4.4459,4.4708,4.6261,4.5979,4.6981,4.8709,4.8894,4.8464,4.7897,4.8125,4.793,4.7461,4.7558,4.7422,4.7168,4.7056,4.7465,4.7953,4.7902,4.8421,4.8972,4.8699,4.8784,4.9081,4.8845,4.863,4.9059,4.9102,4.9143,4.9122,4.8972,4.8472,4.7622,4.7185,4.6953,4.661,4.6611,4.6435,4.589,4.4547,4.3037,4.0756,4.0044,3.9865,3.9817,3.9817,3.9817,3.9768,3.9362,3.9167,3.9069,3.8971,3.8923,3.8678,3.8041,3.745,3.7303,3.6958,3.6745,3.6597,3.6612,3.6612,3.6612,3.6612,3.6612,3.6612,3.6612,3.6612,3.6612,3.6612,3.6612,3.6612,3.6612,3.6612,3.6612,3.6612,3.6612,3.6612,3.6612,3.6612,3.6612,3.6612,3.6612,3.6612,3.6612,3.6612,3.6612,3.6612,3.6612,3.6612,3.6612,3.6612,3.6612,3.6612,3.6612,3.6612,3.6612,3.6612,3.6612,3.6612,3.6612,3.6612,3.6612,3.6612,3.6612,3.6612,3.6612,3.6612,3.6612,3.6612,3.6612,3.6612,3.6612,4.7438,4.6503,4.409,4.4784,4.6934,4.6214,4.6981,4.8709,4.8894,4.8679,4.8366,4.8203,4.8008,4.7598,4.7266,4.7109,4.6967,4.6855,4.7465,4.8109,4.8208,4.8563,4.9006,4.8281,4.7684,4.7275,4.6753,4.7445,4.893,4.9102,4.9075,4.9131,4.8525,4.757,4.697,4.6297,4.5635,4.5094,4.5202,4.4916,4.4169,4.2313,4.0707,4.0141,3.9817,3.9817,3.9817,3.9817,3.967,3.9411,3.9118,3.8874,3.8629,3.8335,3.8188,3.8041,3.745,3.7007,3.7007,3.6696,3.6612,3.6612,3.6612,3.6612,3.6612,3.6612,3.6612,3.6612,3.6612,3.6612,3.6612,3.6612,3.6612,3.6612,3.6612,3.6612,3.6612,3.6612,3.6612,3.6612,3.6612,3.6612,3.6612,3.6612,3.6612,3.6612,3.6612,3.6612,3.6612,3.6612,3.6612,3.6612,3.6612,3.6612,3.6612,3.6612,3.6612,3.6612,3.6612,3.6612,3.6612,3.6612,3.6612,3.6612,3.6612,3.6612,3.6612,3.6612,3.6612,3.6612,3.6612,3.6612,3.6612,3.6612,3.6612,4.7309,4.6629,4.4768,4.5784,4.8204,4.7035,4.7221,4.8527,4.8659,4.8581,4.8581,4.8125,4.7851,4.7637,4.7168,4.6797,4.6733,4.6523,4.7326,4.821,4.814,4.8435,4.8157,4.7383,4.6162,4.5615,4.48,4.5053,4.7062,4.7605,4.8194,4.7822,4.675,4.6139,4.5796,4.4773,4.4565,4.4173,4.4322,4.3617,4.2169,4.0707,3.9817,3.9817,3.9817,3.9817,3.9817,3.9622,3.9508,3.9216,3.8874,3.8482,3.8154,3.7613,3.7253,3.7155,3.6795,3.6661,3.6597,3.6597,3.6612,3.6612,3.6612,3.6612,3.6612,3.6612,3.6612,3.6612,3.6612,3.6612,3.6612,3.6612,3.6612,3.6612,3.6612,3.6612,3.6612,3.6612,3.6612,3.6612,3.6612,3.6612,3.6612,3.6612,3.6612,3.6612,3.6612,3.6612,3.6612,3.6612,3.6612,3.6612,3.6612,3.6612,3.6612,3.6612,3.6612,3.6612,3.6612,3.6612,3.6612,3.6612,3.6612,3.6612,3.6612,3.6612,3.6612,3.6612,3.6612,3.6612,3.6612,3.6612,3.6612,3.6612,3.6612,4.8998,4.8555,4.8246,4.8245,4.8229,4.7935,4.7962,4.8196,4.7949,4.7734,4.7812,4.7324,4.6953,4.666,4.6543,4.6406,4.6465,4.6729,4.712,4.7754,4.7841,4.7372,4.6761,4.6468,4.4971,4.4133,4.3641,4.3993,4.4704,4.4775,4.5007,4.5234,4.5119,4.4186,4.3543,4.2887,4.1781,4.0818,4.0691,4.0627,4.0336,3.9963,3.9817,3.9817,3.9817,3.9768,3.967,3.9427,3.9216,3.9313,3.8237,3.7893,3.7957,3.7204,3.6795,3.6696,3.6597,3.6612,3.6612,3.6612,3.6612,3.6612,3.6612,3.6612,3.6612,3.6612,3.6612,3.6612,3.6612,3.6612,3.6612,3.6612,3.6612,3.6612,3.6612,3.6612,3.6612,3.6612,3.6612,3.6612,3.6612,3.6612,3.6612,3.6612,3.6612,3.6612,3.6612,3.6612,3.6612,3.6612,3.6612,3.6612,3.6612,3.6612,3.6612,3.6612,3.6612,3.6612,3.6612,3.6612,3.6612,3.6612,3.6612,3.6612,3.6612,3.6612,3.6612,3.6612,3.6612,3.6612,3.6612,3.6612,3.6612,3.6612,3.6612,4.9089,4.8894,4.8894,4.8659,4.8223,4.8203,4.8066,4.7851,4.7676,4.7623,4.75,4.7084,4.6655,4.6367,4.6308,4.6483,4.6697,4.6831,4.6861,4.6738,4.6733,4.6078,4.49,4.3854,4.2692,4.2379,4.1441,4.0831,4.1606,4.3309,4.4371,4.4424,4.3681,4.3082,4.2087,4.1311,4.0561,4.0061,3.9865,3.9817,3.9817,3.9817,3.9817,3.9817,3.9817,3.9622,3.9362,3.9167,3.8727,3.8531,3.7598,3.7352,3.7253,3.6859,3.6612,3.6612,3.6612,3.6612,3.6612,3.6612,3.6612,3.6612,3.6612,3.6612,3.6612,3.6612,3.6612,3.6612,3.6612,3.6612,3.6612,3.6612,3.6612,3.6612,3.6612,3.6612,3.6612,3.6612,3.6612,3.6612,3.6612,3.6612,3.6612,3.6612,3.6612,3.6612,3.6612,3.6612,3.6612,3.6612,3.6612,3.6612,3.6612,3.6612,3.6612,3.6612,3.6612,3.6612,3.6612,3.6612,3.6612,3.6612,3.6612,3.6612,3.6612,3.6612,3.6612,3.6612,3.6612,3.6612,3.6612,3.6612,3.6612,3.6612,3.6612,4.8835,4.8757,4.8855,4.8542,4.791,4.7988,4.7793,4.7441,4.7266,4.7305,4.7285,4.6953,4.6582,4.6367,4.6352,4.6527,4.692,4.6625,4.6381,4.5972,4.5299,4.4461,4.337,4.1907,4.1147,4.0583,3.9869,3.9546,4.0327,4.1623,4.3029,4.368,4.2127,4.1708,4.1509,4.0772,3.9882,3.9849,3.9817,3.9817,3.9817,3.9817,3.9817,3.9768,3.967,3.9411,3.9069,3.8629,3.809,3.7893,3.7352,3.7056,3.6958,3.6745,3.6612,3.6612,3.6612,3.667,3.6685,3.6685,3.6626,3.6612,3.6612,3.6612,3.6612,3.6612,3.6612,3.6612,3.6612,3.6612,3.6612,3.6612,3.6612,3.6612,3.6612,3.6612,3.6612,3.6612,3.6612,3.6612,3.6612,3.6612,3.6612,3.6612,3.6612,3.6612,3.6612,3.6612,3.6612,3.6612,3.6612,3.6612,3.6612,3.6612,3.6612,3.6612,3.6612,3.6612,3.6612,3.6612,3.6612,3.6612,3.6612,3.6612,3.6612,3.6612,3.6612,3.6612,3.6612,3.6612,3.6612,3.6612,3.6612,3.6612,3.6612,4.8659,4.8281,4.8718,4.8144,4.7109,4.7461,4.7383,4.6909,4.6582,4.6591,4.6584,4.645,4.6104,4.6153,4.6172,4.6498,4.7003,4.5547,4.5521,4.5359,4.4515,4.3054,4.196,4.1175,4.0688,3.9689,3.9212,3.9419,3.9706,4.019,4.0561,4.0093,4.0561,4.019,4.0205,4.0204,3.9928,3.9912,3.9896,3.9848,3.9833,3.9817,3.9768,3.967,3.9313,3.902,3.8923,3.8139,3.7697,3.781,3.7155,3.6958,3.6958,3.6745,3.6612,3.6612,3.667,3.6787,3.689,3.6802,3.6641,3.6612,3.6641,3.6656,3.6612,3.6612,3.6612,3.6612,3.6612,3.6612,3.6612,3.6612,3.6612,3.6612,3.6612,3.6612,3.6612,3.6612,3.6612,3.6612,3.6612,3.6612,3.6612,3.6612,3.6612,3.6612,3.6612,3.6612,3.6612,3.6612,3.6612,3.6612,3.6612,3.6612,3.6612,3.6612,3.6612,3.6612,3.6612,3.6612,3.6612,3.6612,3.6612,3.6612,3.6612,3.6612,3.6612,3.6612,3.6612,3.6612,3.6612,3.6612,3.6612,3.6612,3.6612,4.8203,4.7871,4.8281,4.7871,4.6909,4.7383,4.7187,4.6582,4.6367,4.5601,4.4825,4.4592,4.4536,4.4725,4.5306,4.6351,4.7463,4.6555,4.5773,4.4589,4.3299,4.1488,4.0497,4.0098,3.9738,3.9356,3.9418,3.9593,3.9785,3.9817,3.9943,4.0023,3.9944,4.0008,4.0087,4.0229,4.0294,4.0167,4.007,4.0022,3.9833,3.9768,3.967,3.9264,3.9167,3.858,3.809,3.7647,3.7401,3.7155,3.6809,3.6859,3.6923,3.6711,3.6641,3.667,3.6787,3.6978,3.708,3.6992,3.6905,3.6905,3.689,3.6831,3.667,3.6612,3.6612,3.6612,3.6612,3.6612,3.6612,3.6612,3.6612,3.6612,3.6612,3.6612,3.6612,3.6612,3.6612,3.6612,3.6612,3.6612,3.6612,3.6612,3.6612,3.6612,3.6612,3.6612,3.6612,3.6612,3.6612,3.6612,3.6612,3.6612,3.6612,3.6612,3.6612,3.6612,3.6612,3.6612,3.6612,3.6612,3.6612,3.6612,3.6612,3.6612,3.6612,3.6612,3.6612,3.6612,3.6612,3.6612,3.6612,3.6612,3.6612,4.8047,4.7832,4.8223,4.7832,4.7031,4.7266,4.7051,4.6543,4.6348,4.5249,4.3573,4.3573,4.3646,4.4036,4.538,4.6178,4.7028,4.6245,4.5076,4.362,4.1889,4.0337,3.9515,3.9324,3.9596,3.945,3.9577,3.9817,3.9817,3.9817,3.9959,4.0086,4.0086,4.0165,4.0419,4.0626,4.0658,4.0499,4.0403,4.026,4.0039,3.9796,3.9523,3.9003,3.8678,3.8188,3.7598,3.7253,3.7007,3.6809,3.6612,3.6612,3.6641,3.6685,3.6744,3.6861,3.7022,3.7256,3.7344,3.7285,3.7256,3.7241,3.7095,3.6963,3.6817,3.667,3.6612,3.6612,3.6612,3.6612,3.6612,3.6612,3.6612,3.6612,3.6612,3.6612,3.6612,3.6612,3.6612,3.6612,3.6612,3.6612,3.6612,3.6612,3.6612,3.6612,3.6612,3.6612,3.6612,3.6612,3.6612,3.6612,3.6612,3.6612,3.6612,3.6612,3.6612,3.6612,3.6612,3.6612,3.6612,3.6612,3.6612,3.6612,3.6612,3.6612,3.6612,3.6612,3.6612,3.6612,3.6612,3.6612,3.6612,3.6612,3.6612,4.8183,4.8242,4.8659,4.8047,4.6992,4.6909,4.6909,4.6728,4.624,4.5116,4.3533,4.3524,4.3633,4.427,4.5562,4.6348,4.5898,4.5031,4.3866,4.2481,4.102,4.0013,3.9754,3.9721,3.9689,3.9785,3.9817,3.9817,3.9817,3.9817,4.0023,4.0308,4.0451,4.0531,4.0769,4.0801,4.0801,4.0769,4.0769,4.0531,4.0207,3.9751,3.935,3.8811,3.8272,3.7744,3.7462,3.715,3.6887,3.6764,3.6758,3.6758,3.67,3.6963,3.7065,3.7109,3.7402,3.7695,3.7973,3.7724,3.7622,3.7563,3.7417,3.7212,3.7051,3.6846,3.667,3.6729,3.6641,3.6612,3.6612,3.6612,3.6612,3.6612,3.6612,3.6612,3.6612,3.6714,3.6744,3.6802,3.6714,3.6626,3.6626,3.6612,3.6612,3.6612,3.6612,3.6612,3.6612,3.6612,3.6612,3.6612,3.6612,3.6612,3.6612,3.6612,3.6612,3.6612,3.6612,3.6612,3.6612,3.6612,3.6612,3.6612,3.6612,3.6612,3.6612,3.6612,3.6612,3.6612,3.6612,3.6612,3.6612,3.6656,3.6714,4.8047,4.7812,4.7994,4.7598,4.7006,4.7558,4.748,4.6687,4.5344,4.363,4.18,4.1017,4.0654,4.1447,4.3085,4.4458,4.4734,4.3862,4.2777,4.2366,4.061,4.0028,3.9817,3.9817,3.9817,3.9817,3.9817,3.9817,3.9817,3.9848,4.0198,4.0515,4.0975,4.1214,4.1246,4.1293,4.1404,4.1134,4.0928,4.0572,4.0112,3.9691,3.92,3.8664,3.8164,3.7799,3.7534,3.7268,3.7095,3.6978,3.7051,3.7095,3.7022,3.7226,3.7402,3.7475,3.7775,3.8046,3.828,3.8236,3.8119,3.7943,3.7768,3.7578,3.7431,3.7109,3.6978,3.6875,3.6744,3.6685,3.6612,3.6612,3.6612,3.6612,3.6612,3.6612,3.6641,3.6861,3.6978,3.7065,3.7051,3.6978,3.6934,3.6758,3.67,3.6656,3.6656,3.6626,3.6612,3.6612,3.6612,3.6612,3.6612,3.6612,3.6612,3.6612,3.6612,3.6612,3.6612,3.6612,3.6612,3.6612,3.6612,3.6612,3.6612,3.6612,3.6612,3.6612,3.6612,3.6612,3.6612,3.6612,3.6612,3.6758,3.6963,4.7695,4.7623,4.7623,4.7324,4.6987,4.7383,4.7207,4.6271,4.4146,4.2192,4.1035,3.968,3.9336,4.0129,4.1591,4.224,4.3439,4.311,4.1977,4.1737,4.0513,3.9914,3.9817,3.9817,3.9817,3.9817,3.9817,3.9817,3.9833,3.9944,4.034,4.096,4.1532,4.1544,4.1544,4.1659,4.1655,4.1468,4.1258,4.0898,4.0338,3.9764,3.9204,3.8595,3.8156,3.7903,3.7664,3.7548,3.7504,3.7402,3.7402,3.749,3.7402,3.7534,3.7724,3.7892,3.8046,3.8309,3.8418,3.8514,3.8353,3.8251,3.8148,3.8024,3.779,3.7446,3.7314,3.7168,3.6934,3.6905,3.689,3.6861,3.6641,3.6656,3.6729,3.6744,3.6802,3.7007,3.7226,3.7314,3.7344,3.7285,3.7153,3.6978,3.6802,3.6744,3.67,3.667,3.6626,3.6612,3.6612,3.6612,3.6612,3.6612,3.6612,3.6612,3.6612,3.6612,3.6626,3.6656,3.6612,3.6612,3.6612,3.6612,3.6626,3.6626,3.6612,3.6612,3.6612,3.6612,3.6612,3.6612,3.6612,3.6831,3.7124,4.7187,4.7519,4.7558,4.7285,4.6831,4.6362,4.6123,4.5884,4.2638,4.1493,4.174,3.9514,3.9122,4.0701,4.2946,4.2922,4.1873,4.2226,4.1414,4.0465,3.9914,3.9817,3.9817,3.9817,3.9817,3.9817,3.9817,3.9817,3.9848,4.0054,4.0562,4.1134,4.1516,4.1623,4.1703,4.1648,4.1699,4.162,4.1375,4.0944,4.0361,3.9826,3.913,3.854,3.8088,3.7935,3.7768,3.7753,3.768,3.7636,3.7651,3.7622,3.7695,3.79,3.8017,3.8163,3.8382,3.8418,3.8477,3.8491,3.8529,3.8426,3.8265,3.8185,3.8053,3.7848,3.7687,3.7461,3.7256,3.7358,3.7417,3.7065,3.6729,3.6831,3.6948,3.6978,3.7007,3.7183,3.7402,3.7555,3.7519,3.7431,3.7168,3.6978,3.6802,3.6729,3.6685,3.6685,3.6641,3.6612,3.6612,3.6612,3.6612,3.6612,3.6612,3.6612,3.6612,3.6612,3.6714,3.6744,3.6685,3.6729,3.6875,3.689,3.6714,3.6641,3.6626,3.6612,3.6612,3.6612,3.6656,3.6744,3.6787,3.7007,3.7256,4.7285,4.7129,4.7109,4.6875,4.6265,4.4902,4.442,4.4278,4.2063,4.0627,3.9327,3.799,3.8088,3.8894,4.0135,4.0428,4.0544,4.0465,4.0352,3.9898,3.9817,3.9817,3.9817,3.9817,3.9817,3.9817,3.9817,3.9817,3.9896,4.0117,4.0499,4.0912,4.1389,4.1576,4.1581,4.1423,4.1541,4.1494,4.1215,4.0707,4.0199,3.958,3.8956,3.8509,3.8317,3.8178,3.8178,3.8192,3.8119,3.7995,3.8148,3.8119,3.7607,3.8075,3.8397,3.836,3.8448,3.8491,3.8491,3.8543,3.8477,3.8462,3.8397,3.8426,3.8309,3.8119,3.7965,3.779,3.7446,3.7417,3.7344,3.708,3.689,3.6948,3.6992,3.6948,3.6992,3.7183,3.7453,3.7548,3.7563,3.7387,3.7139,3.6919,3.6758,3.6685,3.6656,3.6685,3.667,3.6626,3.6612,3.6612,3.6612,3.6612,3.6612,3.6612,3.6612,3.6626,3.6758,3.6905,3.6992,3.708,3.7226,3.7197,3.7051,3.6817,3.6626,3.6641,3.6714,3.6729,3.6773,3.6875,3.7007,3.727,3.749,4.6914,4.6699,4.6635,4.6523,4.6002,4.4207,4.3223,4.235,4.0549,3.9136,3.8431,3.7165,3.7083,3.8102,3.883,3.9324,3.9659,3.9883,3.9865,3.9865,3.9817,3.9817,3.9817,3.9817,3.9817,3.9817,3.9817,3.9817,3.9944,4.0276,4.0674,4.1039,4.1341,4.1442,4.1427,4.1218,4.1063,4.0965,4.0682,4.0256,3.9762,3.932,3.8945,3.8589,3.8543,3.8491,3.8491,3.8491,3.8353,3.8214,3.8382,3.8309,3.7914,3.8265,3.8477,3.8462,3.8477,3.8491,3.8514,3.8382,3.8389,3.8374,3.8324,3.8221,3.8309,3.8236,3.8134,3.7987,3.7622,3.7314,3.7197,3.708,3.7065,3.7051,3.6948,3.6831,3.6978,3.7139,3.7329,3.7504,3.7446,3.7285,3.7095,3.6875,3.6744,3.67,3.6714,3.6758,3.67,3.6612,3.6612,3.6612,3.6612,3.6612,3.6612,3.6626,3.6685,3.6758,3.6919,3.7065,3.7241,3.7373,3.7446,3.7446,3.7387,3.7153,3.689,3.6846,3.6875,3.6905,3.7007,3.7168,3.7373,3.7687,3.7892,4.6289,4.6206,4.6075,4.5744,4.5524,4.3523,4.1761,4.0164,3.8251,3.7812,3.8096,3.6947,3.6914,3.8055,3.864,3.9021,3.9387,3.9673,3.9817,3.9817,3.9817,3.9817,3.9817,3.9817,3.9817,3.9817,3.9833,3.9864,4.0039,4.0324,4.0769,4.1293,4.1417,4.1454,4.1119,4.08,4.0559,4.0224,4.0053,3.9744,3.9485,3.9293,3.91,3.8633,3.8491,3.8491,3.8477,3.8418,3.8368,3.8265,3.8192,3.8221,3.8251,3.8178,3.8339,3.8456,3.8426,3.8353,3.828,3.8119,3.8178,3.8119,3.7943,3.7885,3.7987,3.8104,3.8017,3.79,3.7519,3.7417,3.7329,3.7007,3.6861,3.6919,3.6919,3.6831,3.6861,3.7022,3.7197,3.7329,3.7256,3.7109,3.6963,3.6758,3.6714,3.67,3.6714,3.6773,3.6744,3.6641,3.6612,3.6612,3.6612,3.6612,3.6612,3.6656,3.6802,3.6905,3.7065,3.7329,3.7578,3.7636,3.7651,3.7665,3.7665,3.7446,3.7241,3.7183,3.7139,3.7168,3.735,3.7555,3.7775,3.8024,3.8119,4.6113,4.569,4.424,4.2963,4.1699,3.98,3.886,3.8127,3.6235,3.6017,3.6622,3.6544,3.7055,3.8308,3.8609,3.8989,3.9594,3.9673,3.9801,3.9817,3.9817,3.9817,3.9817,3.9817,3.9768,3.9817,3.9848,3.9781,3.9987,4.0322,4.0671,4.1147,4.1224,4.1002,4.0811,4.043,3.9943,3.9603,3.9256,3.9256,3.9308,3.8945,3.8595,3.8491,3.8491,3.8491,3.8485,3.8309,3.8207,3.809,3.7856,3.79,3.8112,3.7914,3.7958,3.8119,3.8207,3.8119,3.7929,3.7797,3.7797,3.7782,3.7665,3.7665,3.7695,3.7768,3.7739,3.7607,3.7519,3.749,3.7344,3.6948,3.67,3.6817,3.689,3.6817,3.6744,3.6905,3.708,3.7065,3.7022,3.6934,3.6802,3.6729,3.6685,3.6656,3.6641,3.667,3.6714,3.6656,3.6641,3.6626,3.6612,3.6612,3.6612,3.6656,3.6787,3.7007,3.7197,3.7519,3.787,3.7987,3.8046,3.7987,3.7914,3.7739,3.7592,3.749,3.7526,3.754,3.7643,3.7834,3.7973,3.8207,3.8339,4.5672,4.461,4.3519,4.1996,4.0303,3.9233,3.8448,3.7315,3.5506,3.5256,3.6127,3.6312,3.7024,3.8356,3.8609,3.9085,3.9705,3.9801,3.9817,3.9817,3.9817,3.9817,3.9817,3.9768,3.9557,3.9508,3.9231,3.921,3.9724,3.9806,4.0034,4.045,4.0438,4.0521,4.0374,3.9795,3.9441,3.9033,3.8633,3.8737,3.9048,3.8699,3.8491,3.8491,3.8491,3.8491,3.8448,3.8324,3.8119,3.7856,3.7548,3.7856,3.8031,3.8046,3.7995,3.8017,3.8046,3.7965,3.7636,3.7461,3.7431,3.7446,3.7212,3.7139,3.7285,3.7344,3.73,3.7183,3.727,3.7241,3.7036,3.6685,3.6802,3.6934,3.6817,3.6685,3.667,3.6744,3.6817,3.6802,3.6787,3.6773,3.667,3.667,3.667,3.689,3.6846,3.6817,3.6817,3.6729,3.67,3.6641,3.6612,3.6612,3.6612,3.6656,3.6758,3.7007,3.7285,3.7592,3.79,3.8265,3.8404,3.8309,3.8178,3.809,3.7958,3.7826,3.7848,3.7848,3.7965,3.8127,3.8251,3.8382,3.8441,4.4436,4.2647,4.2451,4.122,3.9464,3.9513,3.8677,3.7038,3.5506,3.5303,3.6173,3.6312,3.7023,3.7898,3.8498,3.918,3.9626,3.9785,3.9817,3.9817,3.9817,3.9817,3.9817,3.9768,3.9508,3.9118,3.8776,3.8853,3.9076,3.92,3.9293,3.9361,3.9688,4.0097,3.9635,3.9502,3.939,3.8819,3.8543,3.8543,3.8543,3.8491,3.8491,3.8491,3.8491,3.8462,3.8448,3.8331,3.8104,3.7651,3.7256,3.7578,3.79,3.7973,3.7856,3.7856,3.79,3.7746,3.7431,3.7139,3.7212,3.7197,3.6817,3.6744,3.6934,3.7007,3.6948,3.6978,3.7065,3.6978,3.6773,3.67,3.6861,3.6963,3.6787,3.6744,3.6758,3.6758,3.6758,3.6758,3.6758,3.6773,3.6758,3.6744,3.6861,3.7065,3.7139,3.7124,3.7065,3.6934,3.6846,3.6714,3.6612,3.6612,3.6612,3.667,3.6744,3.7007,3.73,3.7607,3.7929,3.8258,3.8477,3.8477,3.8412,3.8309,3.8251,3.8134,3.8171,3.8156,3.8192,3.8295,3.8368,3.847,3.85,4.1001,3.7916,3.7855,3.686,3.5578,3.5774,3.5568,3.5335,3.5366,3.5615,3.6096,3.6684,3.7429,3.8545,3.864,3.9053,3.9642,3.9769,3.9817,3.9817,3.9768,3.9768,3.9768,3.9606,3.9411,3.9069,3.8758,3.8817,3.8583,3.8646,3.892,3.9099,3.9648,3.9708,3.9182,3.9167,3.9242,3.8723,3.8491,3.8491,3.8491,3.8491,3.8491,3.8491,3.8543,3.8382,3.8236,3.8163,3.7768,3.7314,3.7022,3.7314,3.7622,3.7841,3.7665,3.7607,3.7651,3.7431,3.7153,3.6948,3.7007,3.6963,3.67,3.67,3.6875,3.7051,3.7036,3.7051,3.7065,3.6905,3.6744,3.6744,3.6846,3.6934,3.6875,3.7109,3.7241,3.727,3.7285,3.7285,3.7285,3.7285,3.7285,3.7285,3.73,3.7461,3.749,3.7446,3.7285,3.7139,3.7036,3.6875,3.6729,3.6612,3.6612,3.667,3.6787,3.7036,3.7344,3.7724,3.8075,3.8331,3.8491,3.8491,3.8491,3.847,3.8412,3.8353,3.8382,3.8368,3.8374,3.8448,3.8491,3.8491,3.8491]},{"header":{"parameterUnit":"m.s-1","parameterCategory":1,"la1":31.0,"la2":29.5877,"lo1":-88.7671,"lo2":-86.6584,"dy":0.0162,"dx":0.0185,"nx":115,"ny":88,"refTime":"2023-10-31T12:00:00:Z","depth":0,"parameterNumber":3,"parameterNumberName":"V-component_of_WINDS"},"data":[0.0,0.0,0.0,0.0,0.0,0.0,0.0,0.0,0.0,0.0,0.0,0.0,0.0,0.0,0.0,0.0,0.0,0.0,0.0,0.0,0.0,0.0,0.0,0.0,0.0,0.0,0.0,0.0,0.0,0.0,0.0,0.0,0.0,0.0,0.0,0.0,0.0,0.0,0.0,0.0,0.0,0.0,0.0,0.0,0.0,0.0,0.0,0.0,0.0,0.0,0.0,0.0,0.0,0.0,0.0,0.0,0.0,0.0,0.0,0.0,0.0,0.0,0.0,0.0,0.0,0.0,0.0,0.0,0.0,0.0,0.0,0.0,0.0,0.0,0.0,0.0,0.0,0.0,0.0,0.0,0.0,0.0,0.0,0.0,0.0,0.0,0.0,0.0,0.0,0.0,0.0,0.0,0.0,0.0,0.0,0.0,0.0,0.0,0.0,0.0,0.0,0.0,0.0,0.0,0.0,0.0,0.0,0.0,0.0,0.0,0.0,0.0,0.0,0.0,0.0,0.0,0.0,0.0,0.0,0.0,0.0,0.0,0.0,0.0,0.0,0.0,0.0,0.0,0.0,0.0,0.0,0.0,0.0,0.0,0.0,0.0,0.0,0.0,0.0,0.0,0.0,0.0,0.0,0.0,0.0,0.0,0.0,0.0,0.0,0.0,0.0,0.0,0.0,0.0,0.0,0.0,0.0,0.0,0.0,0.0,0.0,0.0,0.0,0.0,0.0,0.0,0.0,0.0,0.0,0.0,0.0,0.0,0.0,0.0,0.0,0.0,0.0,0.0,0.0,0.0,0.0,0.0,0.0,0.0,0.0,0.0,0.0,0.0,0.0,0.0,0.0,0.0,0.0,0.0,0.0,0.0,0.0,0.0,0.0,0.0,0.0,0.0,0.0,0.0,0.0,0.0,0.0,0.0,0.0,0.0,0.0,0.0,0.0,0.0,0.0,0.0,0.0,0.0,0.0,0.0,0.0,0.0,0.0,0.0,0.0,0.0,0.0,0.0,0.0,0.0,0.0,0.0,0.0,0.0,0.0,0.0,0.0,0.0,0.0,0.0,0.0,0.0,0.0,0.0,0.0,0.0,0.0,0.0,0.0,0.0,0.0,0.0,0.0,0.0,0.0,0.0,0.0,0.0,0.0,0.0,0.0,0.0,0.0,0.0,0.0,0.0,0.0,0.0,0.0,0.0,0.0,0.0,0.0,0.0,0.0,0.0,0.0,0.0,0.0,0.0,0.0,0.0,0.0,0.0,0.0,0.0,0.0,0.0,0.0,0.0,0.0,0.0,0.0,0.0,0.0,0.0,0.0,0.0,0.0,0.0,0.0,0.0,0.0,0.0,0.0,0.0,0.0,0.0,0.0,0.0,0.0,0.0,0.0,0.0,0.0,0.0,0.0,0.0,0.0,0.0,0.0,0.0,0.0,0.0,0.0,0.0,0.0,0.0,0.0,0.0,0.0,0.0,0.0,0.0,0.0,0.0,0.0,0.0,0.0,0.0,0.0,0.0,0.0,0.0,0.0,0.0,0.0,0.0,0.0,0.0,0.0,0.0,0.0,0.0,0.0,0.0,0.0,0.0,0.0,0.0,0.0,0.0,0.0,0.0,0.0,0.0,0.0,0.0,0.0,0.0,0.0,0.0,0.0,0.0,0.0,0.0,0.0,0.0,0.0,0.0,0.0,0.0,0.0,0.0,0.0,0.0,0.0,0.0,0.0,0.0,0.0,0.0,0.0,0.0,0.0,0.0,0.0,0.0,0.0,0.0,0.0,0.0,0.0,0.0,0.0,0.0,0.0,0.0,0.0,0.0,0.0,0.0,0.0,0.0,0.0,0.0,0.0,0.0,0.0,0.0,0.0,0.0,0.0,0.0,0.0,0.0,0.0,0.0,0.0,0.0,0.0,0.0,0.0,0.0,0.0,0.0,0.0,0.0,0.0,0.0,0.0,0.0,0.0,0.0,0.0,0.0,0.0,0.0,0.0,0.0,0.0,0.0,0.0,0.0,0.0,0.0,0.0,0.0,0.0,0.0,0.0,0.0,0.0,0.0,0.0,0.0,0.0,0.0,0.0,0.0,0.0,0.0,0.0,0.0,0.0,0.0,0.0,0.0,0.0,0.0,0.0,0.0,0.0,0.0,0.0,0.0,0.0,0.0,0.0,0.0,0.0,0.0,0.0,0.0,0.0,0.0,0.0,0.0,0.0,0.0,0.0,0.0,0.0,0.0,0.0,0.0,0.0,0.0,0.0,0.0,0.0,0.0,0.0,0.0,0.0,0.0,0.0,0.0,0.0,0.0,0.0,0.0,0.0,0.0,0.0,0.0,0.0,0.0,0.0,0.0,0.0,0.0,0.0,0.0,0.0,0.0,0.0,0.0,0.0,0.0,0.0,0.0,0.0,0.0,0.0,0.0,0.0,0.0,0.0,0.0,0.0,0.0,0.0,0.0,0.0,0.0,0.0,0.0,0.0,0.0,0.0,0.0,0.0,0.0,0.0,0.0,0.0,0.0,0.0,0.0,0.0,0.0,0.0,0.0,0.0,0.0,0.0,0.0,0.0,0.0,0.0,0.0,0.0,0.0,0.0,0.0,0.0,0.0,0.0,0.0,0.0,0.0,0.0,0.0,0.0,0.0,0.0,0.0,0.0,0.0,0.0,0.0,0.0,0.0,0.0,0.0,0.0,0.0,0.0,0.0,0.0,0.0,0.0,0.0,0.0,0.0,0.0,0.0,0.0,0.0,0.0,0.0,0.0,0.0,0.0,0.0,0.0,0.0,0.0,0.0,0.0,0.0,0.0,0.0,0.0,0.0,0.0,0.0,0.0,0.0,0.0,0.0,0.0,0.0,0.0,0.0,0.0,0.0,0.0,0.0,0.0,0.0,0.0,0.0,0.0,0.0,0.0,0.0,0.0,0.0,0.0,0.0,0.0,0.0,0.0,0.0,0.0,0.0,0.0,0.0,0.0,0.0,0.0,0.0,0.0,0.0,0.0,0.0,0.0,0.0,0.0,0.0,0.0,0.0,0.0,0.0,0.0,0.0,0.0,0.0,0.0,0.0,0.0,0.0,0.0,0.0,0.0,0.0,0.0,0.0,0.0,0.0,0.0,0.0,0.0,0.0,0.0,0.0,0.0,0.0,0.0,0.0,0.0,0.0,0.0,0.0,0.0,0.0,0.0,0.0,0.0,0.0,0.0,0.0,0.0,0.0,0.0,0.0,0.0,0.0,0.0,0.0,0.0,0.0,0.0,0.0,0.0,0.0,0.0,0.0,0.0,0.0,0.0,0.0,0.0,0.0,0.0,0.0,0.0,0.0,0.0,0.0,0.0,0.0,0.0,0.0,0.0,0.0,0.0,0.0,0.0,0.0,0.0,0.0,0.0,0.0,0.0,0.0,0.0,0.0,0.0,0.0,0.0,0.0,0.0,0.0,0.0,0.0,0.0,0.0,0.0,0.0,0.0,0.0,0.0,0.0,0.0,0.0,0.0,0.0,0.0,0.0,0.0,0.0,0.0,0.0,0.0,0.0,0.0,0.0,0.0,0.0,0.0,0.0,0.0,0.0,0.0,0.0,0.0,0.0,0.0,0.0,0.0,0.0,0.0,0.0,0.0,0.0,0.0,0.0,0.0,0.0,0.0,0.0,0.0,0.0,0.0,0.0,0.0,0.0,0.0,0.0,0.0,0.0,0.0,0.0,0.0,0.0,0.0,0.0,0.0,0.0,0.0,0.0,0.0,0.0,0.0,0.0,0.0,0.0,0.0,0.0,0.0,0.0,0.0,0.0,0.0,0.0,0.0,0.0,0.0,0.0,0.0,0.0,0.0,0.0,0.0,0.0,0.0,0.0,0.0,0.0,0.0,0.0,0.0,0.0,0.0,0.0,0.0,0.0,0.0,0.0,0.0,0.0,0.0,0.0,0.0,0.0,0.0,0.0,0.0,0.0,0.0,0.0,0.0,0.0,0.0,0.0,0.0,0.0,0.0,0.0,0.0,0.0,0.0,0.0,0.0,0.0,0.0,0.0,0.0,0.0,0.0,0.0,0.0,0.0,0.0,0.0,0.0,0.0,0.0,0.0,0.0,0.0,0.0,0.0,0.0,0.0,0.0,0.0,0.0,0.0,0.0,0.0,0.0,0.0,0.0,0.0,0.0,0.0,0.0,0.0,0.0,0.0,0.0,0.0,0.0,0.0,0.0,0.0,0.0,0.0,0.0,0.0,0.0,0.0,0.0,0.0,0.0,0.0,0.0,0.0,0.0,0.0,0.0,0.0,1.4653,0.0,0.0,0.0,0.0,0.0,0.0,0.0,0.0,0.0,0.0,0.0,0.0,0.0,0.0,0.0,0.0,0.0,0.0,0.0,0.0,0.0,0.0,0.0,0.0,0.0,0.0,0.0,0.0,0.0,0.0,0.0,0.0,0.0,0.0,0.0,0.0,0.0,0.0,0.0,0.0,0.0,0.0,0.0,0.0,0.0,0.0,0.0,0.0,0.0,0.0,0.0,0.0,0.0,0.0,0.0,0.0,0.0,0.0,0.0,0.0,0.0,0.0,0.0,0.0,0.0,0.0,0.0,0.0,0.0,0.0,0.0,0.0,0.0,0.0,0.0,0.0,0.0,0.0,0.0,0.0,0.0,0.0,0.0,0.0,0.0,0.0,0.0,0.0,0.0,0.0,0.0,0.0,0.0,0.0,0.0,0.0,0.0,0.0,0.0,0.0,0.0,0.0,0.0,0.0,0.0,0.0,0.0,0.0,0.0,0.0,1.4532,1.4965,1.4546,1.4387,1.4618,0.0,0.0,0.0,0.0,0.0,0.0,0.0,0.0,0.0,0.0,0.0,0.0,0.0,0.0,0.0,0.0,0.0,0.0,0.0,0.0,0.0,0.0,0.0,0.0,0.0,0.0,0.0,0.0,0.0,0.0,0.0,0.0,0.0,0.0,0.0,0.0,0.0,0.0,0.0,0.0,0.0,0.0,0.0,0.0,0.0,0.0,0.0,0.0,0.0,0.0,0.0,0.0,0.0,0.0,0.0,0.0,0.0,0.0,0.0,0.0,0.0,0.0,0.0,0.0,0.0,0.0,0.0,0.0,0.0,0.0,0.0,0.0,0.0,0.0,0.0,0.0,0.0,0.0,0.0,0.0,0.0,0.0,0.0,0.0,0.0,0.0,0.0,0.0,0.0,0.0,0.0,0.0,0.0,0.0,0.0,0.0,0.0,0.0,0.0,0.0,0.0,0.0,0.0,0.0,0.0,0.0,0.0,0.0,0.0,0.0,0.0,0.0,1.5437,1.5246,1.5372,0.0,0.0,0.0,0.0,0.0,0.0,0.0,0.0,0.0,0.0,0.0,0.0,0.0,0.0,0.0,0.0,0.0,0.0,0.0,0.0,0.0,0.0,0.0,0.0,0.0,0.0,0.0,0.0,0.0,0.0,0.0,0.0,0.0,0.0,0.0,0.0,0.0,0.0,0.0,0.0,0.0,0.0,0.0,0.0,0.0,0.0,0.0,0.0,0.0,0.0,0.0,0.0,0.0,0.0,0.0,0.0,0.0,0.0,0.0,0.0,0.0,0.0,0.0,0.0,0.0,0.0,0.0,0.0,0.0,0.0,0.0,0.0,0.0,0.0,0.0,0.0,0.0,0.0,0.0,0.0,0.0,0.0,0.0,0.0,0.0,0.0,0.0,0.0,0.0,0.0,0.0,0.0,0.0,0.0,0.0,0.0,0.0,0.0,0.0,0.0,0.0,0.0,0.0,0.0,0.0,0.0,0.0,0.0,0.0,0.0,1.6606,1.8542,1.8109,0.0,1.8447,0.0,0.0,0.0,0.0,0.0,0.0,0.0,0.0,0.0,0.0,0.0,0.0,0.0,0.0,0.0,0.0,0.0,0.0,0.0,0.0,0.0,0.0,0.0,0.0,0.0,0.0,0.0,0.0,0.0,0.0,0.0,0.0,0.0,0.0,0.0,0.0,0.0,0.0,0.0,0.0,0.0,0.0,0.0,0.0,0.0,0.0,0.0,0.0,0.0,0.0,0.0,0.0,0.0,0.0,0.0,0.0,0.0,0.0,0.0,0.0,0.0,0.0,0.0,0.0,0.0,0.0,0.0,0.0,0.0,0.0,0.0,0.0,0.0,0.0,0.0,0.0,0.0,0.0,0.0,0.0,0.0,0.0,0.0,0.0,0.0,0.0,0.0,0.0,0.0,0.0,0.0,0.0,0.0,0.0,0.0,0.0,0.0,0.0,0.0,0.0,0.0,0.0,0.0,0.0,0.0,0.0,0.0,0.0,0.0,0.0,1.7472,1.8951,1.907,1.8722,0.0,0.0,0.0,0.0,0.0,0.0,0.0,0.0,0.0,0.0,0.0,0.0,0.0,0.0,0.0,0.0,0.0,0.0,0.0,0.0,0.0,0.0,0.0,0.0,0.0,0.0,0.0,0.0,0.0,0.0,0.0,0.0,0.0,0.0,0.0,0.0,0.0,0.0,0.0,0.0,0.0,0.0,0.0,0.0,0.0,0.0,0.0,0.0,0.0,0.0,0.0,0.0,0.0,0.0,0.0,0.0,0.0,0.0,0.0,0.0,0.0,0.0,0.0,0.0,0.0,0.0,0.0,0.0,0.0,0.0,0.0,0.0,0.0,0.0,0.0,0.0,0.0,0.0,0.0,0.0,0.0,0.0,0.0,0.0,0.0,0.0,0.0,0.0,0.0,0.0,0.0,0.0,0.0,0.0,0.0,0.0,0.0,0.0,0.0,0.0,0.0,0.0,0.0,0.0,0.0,0.0,0.0,0.0,0.0,0.0,1.7748,1.8494,1.9786,1.9486,1.892,1.8145,0.0,0.0,0.0,0.0,0.0,0.0,0.0,0.0,0.0,0.0,0.0,0.0,0.0,0.0,0.0,0.0,0.0,0.0,0.0,0.0,0.0,0.0,0.0,0.0,0.0,0.0,0.0,0.0,0.0,0.0,0.0,0.0,0.0,0.0,0.0,0.0,0.0,0.0,0.0,0.0,0.0,0.0,0.0,0.0,0.0,0.0,0.0,0.0,0.0,0.0,0.0,0.0,0.0,0.0,0.0,0.0,0.0,0.0,0.0,0.0,0.0,0.0,0.0,0.0,0.0,0.0,0.0,0.0,0.0,0.0,0.0,0.0,0.0,0.0,0.0,0.0,0.0,0.0,0.0,0.0,0.0,0.0,0.0,0.0,0.0,0.0,0.0,0.0,0.0,0.0,0.0,0.0,0.0,0.0,0.0,0.0,0.0,0.0,0.0,0.0,0.0,0.0,0.0,0.0,0.0,0.0,0.0,0.0,2.1548,1.9889,1.9913,2.1867,1.9612,1.8875,0.0,0.0,0.0,0.0,0.0,0.0,0.0,0.0,0.0,0.0,0.0,0.0,0.0,0.0,0.0,0.0,0.0,0.0,0.0,0.0,0.0,0.0,0.0,0.0,0.0,0.0,0.0,0.0,0.0,0.0,0.0,0.0,0.0,0.0,0.0,0.0,0.0,0.0,0.0,0.0,0.0,0.0,0.0,0.0,0.0,0.0,0.0,0.0,0.0,0.0,0.0,0.0,0.0,0.0,0.0,0.0,0.0,0.0,0.0,0.0,0.0,0.0,0.0,0.0,0.0,0.0,0.0,0.0,0.0,0.0,0.0,0.0,0.0,0.0,0.0,0.0,0.0,0.0,0.0,0.0,0.0,0.0,0.0,0.0,0.0,0.0,0.0,0.0,0.0,0.0,0.0,0.0,0.0,0.0,0.0,0.0,0.0,0.0,0.0,0.0,0.0,0.0,0.0,0.0,0.0,0.0,0.0,0.0,0.0,1.8048,1.8686,1.9696,2.1058,2.0096,1.9797,0.0,0.0,0.0,0.0,0.0,0.0,0.0,0.0,0.0,0.0,0.0,0.0,0.0,0.0,0.0,0.0,0.0,0.0,0.0,0.0,0.0,0.0,0.0,0.0,0.0,0.0,0.0,0.0,0.0,0.0,0.0,0.0,0.0,0.0,0.0,0.0,0.0,0.0,0.0,0.0,0.0,0.0,0.0,0.0,0.0,0.0,0.0,0.0,0.0,0.0,0.0,0.0,0.0,0.0,0.0,0.0,0.0,0.0,0.0,0.0,0.0,0.0,0.0,0.0,0.0,0.0,0.0,0.0,0.0,0.0,0.0,0.0,0.0,0.0,0.0,0.0,0.0,0.0,0.0,0.0,0.0,0.0,0.0,0.0,0.0,0.0,0.0,0.0,0.0,0.0,0.0,0.0,0.0,0.0,0.0,0.0,0.0,0.0,0.0,0.0,0.0,0.0,0.0,0.0,0.0,0.0,0.0,0.0,0.0,1.7603,0.0,2.073,2.1072,2.0874,2.0381,0.0,0.0,0.0,0.0,0.0,0.0,0.0,0.0,0.0,0.0,0.0,0.0,0.0,0.0,0.0,0.0,0.0,0.0,0.0,0.0,0.0,0.0,0.0,0.0,0.0,0.0,0.0,0.0,0.0,0.0,0.0,0.0,0.0,0.0,0.0,0.0,0.0,0.0,0.0,0.0,0.0,0.0,0.0,0.0,0.0,0.0,0.0,0.0,0.0,0.0,0.0,0.0,0.0,0.0,0.0,0.0,0.0,0.0,0.0,0.0,0.0,0.0,0.0,0.0,0.0,0.0,0.0,0.0,0.0,0.0,0.0,0.0,0.0,0.0,0.0,0.0,0.0,0.0,0.0,0.0,0.0,0.0,0.0,0.0,0.0,0.0,0.0,0.0,0.0,0.0,0.0,0.0,0.0,0.0,0.0,0.0,0.0,0.0,0.0,0.0,0.0,0.0,0.0,0.0,0.0,0.0,0.0,0.0,1.7676,2.1163,2.2798,2.3119,2.2268,2.1801,2.0523,0.0,0.0,0.0,0.0,0.0,0.0,0.0,0.0,0.0,0.0,0.0,0.0,0.0,0.0,0.0,0.0,0.0,0.0,0.0,0.0,0.0,0.0,0.0,0.0,0.0,0.0,0.0,0.0,0.0,0.0,0.0,0.0,0.0,0.0,0.0,0.0,0.0,0.0,0.0,0.0,0.0,0.0,0.0,0.0,0.0,0.0,0.0,0.0,0.0,0.0,0.0,0.0,0.0,0.0,0.0,0.0,0.0,0.0,0.0,0.0,0.0,0.0,0.0,0.0,0.0,0.0,0.0,0.0,0.0,0.0,0.0,0.0,0.0,0.0,0.0,0.0,0.0,0.0,0.0,0.0,0.0,0.0,0.0,0.0,0.0,0.0,0.0,0.0,0.0,0.0,0.0,0.0,0.0,0.0,0.0,0.0,0.0,0.0,0.0,0.0,0.0,0.0,0.0,0.0,0.0,0.0,0.0,0.0,0.0,1.9796,2.1373,2.3218,2.5175,2.2468,2.1948,0.0,0.0,0.0,0.0,0.0,0.0,0.0,0.0,0.0,0.0,0.0,0.0,0.0,0.0,0.0,0.0,0.0,0.0,0.0,0.0,0.0,0.0,0.0,0.0,0.0,0.0,0.0,0.0,0.0,0.0,0.0,0.0,0.0,0.0,0.0,0.0,0.0,0.0,0.0,0.0,0.0,0.0,0.0,0.0,0.0,0.0,0.0,0.0,0.0,0.0,0.0,0.0,0.0,0.0,0.0,0.0,0.0,0.0,0.0,0.0,0.0,0.0,0.0,0.0,0.0,0.0,0.0,0.0,0.0,0.0,0.0,0.0,0.0,0.0,0.0,0.0,0.0,0.0,0.0,0.0,0.0,0.0,0.0,0.0,0.0,0.0,0.0,0.0,0.0,0.0,0.0,0.0,0.0,0.0,0.0,0.0,0.0,0.0,0.0,0.0,0.0,0.0,0.0,0.0,0.0,0.0,0.0,0.0,0.0,2.369,2.4321,2.56,2.753,2.5071,2.4326,2.5645,0.0,0.0,0.0,0.0,0.0,0.0,0.0,0.0,0.0,0.0,0.0,0.0,0.0,0.0,0.0,0.0,0.0,0.0,0.0,0.0,0.0,0.0,0.0,0.0,0.0,0.0,0.0,0.0,0.0,0.0,0.0,0.0,0.0,0.0,0.0,0.0,0.0,0.0,0.0,0.0,0.0,0.0,0.0,0.0,0.0,0.0,0.0,0.0,0.0,0.0,0.0,0.0,0.0,0.0,0.0,0.0,0.0,0.0,0.0,0.0,0.0,0.0,0.0,0.0,0.0,0.0,0.0,0.0,0.0,0.0,0.0,0.0,0.0,0.0,0.0,0.0,0.0,0.0,0.0,0.0,0.0,0.0,0.0,0.0,0.0,0.0,0.0,0.0,0.0,0.0,0.0,0.0,0.0,0.0,0.0,0.0,0.0,0.0,0.0,0.0,0.0,0.0,0.0,0.0,0.0,0.0,0.0,0.0,3.1774,3.1124,3.0399,2.9568,2.9285,2.7656,0.0,0.0,0.0,0.0,0.0,0.0,0.0,0.0,0.0,0.0,0.0,0.0,0.0,0.0,0.0,0.0,0.0,0.0,0.0,0.0,0.0,0.0,0.0,0.0,0.0,0.0,0.0,0.0,0.0,0.0,0.0,0.0,0.0,0.0,0.0,0.0,0.0,0.0,0.0,0.0,0.0,0.0,0.0,0.0,0.0,0.0,0.0,0.0,0.0,0.0,0.0,0.0,0.0,0.0,0.0,0.0,0.0,0.0,0.0,0.0,0.0,0.0,0.0,0.0,0.0,0.0,0.0,0.0,0.0,0.0,0.0,0.0,0.0,0.0,0.0,0.0,0.0,0.0,0.0,0.0,0.0,0.0,0.0,0.0,0.0,0.0,0.0,0.0,0.0,0.0,0.0,0.0,0.0,0.0,0.0,0.0,0.0,0.0,0.0,0.0,0.0,0.0,0.0,0.0,0.0,0.0,0.0,0.0,0.0,3.648,3.8831,3.8869,3.6393,3.3553,3.1586,0.0,0.0,0.0,0.0,0.0,0.0,0.0,0.0,0.0,0.0,0.0,0.0,0.0,0.0,0.0,0.0,0.0,0.0,0.0,0.0,0.0,0.0,0.0,0.0,0.0,0.0,0.0,0.0,0.0,0.0,0.0,0.0,0.0,0.0,0.0,0.0,0.0,0.0,0.0,0.0,0.0,0.0,0.0,0.0,0.0,0.0,0.0,0.0,0.0,0.0,0.0,0.0,0.0,0.0,0.0,0.0,0.0,0.0,0.0,0.0,0.0,0.0,0.0,0.0,0.0,0.0,0.0,0.0,0.0,0.0,0.0,0.0,0.0,0.0,0.0,0.0,0.0,0.0,0.0,0.0,0.0,0.0,0.0,0.0,0.0,0.0,0.0,0.0,0.0,0.0,0.0,0.0,0.0,0.0,0.0,0.0,0.0,0.0,0.0,0.0,0.0,0.0,0.0,0.0,0.0,0.0,0.0,0.0,3.7902,4.164,4.5575,4.6534,4.417,3.9584,3.5895,0.0,0.0,0.0,0.0,0.0,0.0,0.0,0.0,0.0,0.0,0.0,0.0,0.0,0.0,0.0,0.0,0.0,0.0,0.0,0.0,0.0,0.0,0.0,0.0,0.0,0.0,0.0,0.0,0.0,0.0,0.0,0.0,0.0,0.0,0.0,0.0,0.0,0.0,0.0,0.0,0.0,0.0,0.0,0.0,0.0,0.0,0.0,0.0,0.0,0.0,0.0,0.0,0.0,0.0,0.0,0.0,0.0,0.0,0.0,0.0,0.0,0.0,0.0,0.0,0.0,0.0,0.0,0.0,0.0,0.0,0.0,0.0,0.0,0.0,0.0,0.0,0.0,0.0,0.0,0.0,0.0,0.0,0.0,0.0,0.0,0.0,0.0,0.0,0.0,0.0,0.0,0.0,0.0,0.0,0.0,0.0,0.0,0.0,0.0,0.0,0.0,0.0,0.0,0.0,0.0,0.0,0.0,0.0,4.329,4.6594,5.1097,5.2843,5.143,4.5976,4.0123,0.0,0.0,0.0,0.0,0.0,0.0,0.0,0.0,0.0,0.0,0.0,0.0,0.0,0.0,0.0,0.0,0.0,0.0,0.0,0.0,0.0,0.0,0.0,0.0,0.0,0.0,0.0,0.0,0.0,0.0,0.0,0.0,0.0,0.0,0.0,0.0,0.0,0.0,0.0,0.0,0.0,0.0,0.0,0.0,0.0,0.0,0.0,0.0,0.0,0.0,0.0,0.0,0.0,0.0,0.0,0.0,0.0,0.0,0.0,0.0,0.0,0.0,0.0,0.0,0.0,0.0,0.0,0.0,0.0,0.0,0.0,0.0,0.0,0.0,0.0,0.0,0.0,0.0,0.0,0.0,0.0,0.0,0.0,0.0,0.0,0.0,0.0,0.0,0.0,0.0,0.0,0.0,0.0,0.0,0.0,0.0,0.0,0.0,0.0,0.0,0.0,0.0,0.0,0.0,0.0,0.0,0.0,0.0,4.5528,4.9441,5.3362,5.4912,5.3801,4.7711,4.2167,0.0,0.0,0.0,0.0,0.0,0.0,0.0,0.0,0.0,0.0,0.0,0.0,0.0,0.0,0.0,0.0,0.0,0.0,0.0,0.0,0.0,0.0,0.0,0.0,0.0,0.0,0.0,0.0,0.0,0.0,0.0,0.0,0.0,0.0,0.0,0.0,0.0,0.0,0.0,0.0,0.0,0.0,0.0,0.0,0.0,0.0,0.0,0.0,2.4307,0.0,0.0,0.0,0.0,0.0,0.0,0.0,0.0,0.0,0.0,0.0,0.0,0.0,0.0,0.0,0.0,0.0,0.0,0.0,0.0,0.0,0.0,0.0,0.0,0.0,0.0,0.0,0.0,0.0,0.0,0.0,0.0,0.0,0.0,0.0,0.0,0.0,0.0,0.0,0.0,0.0,0.0,0.0,0.0,0.0,0.0,0.0,0.0,0.0,0.0,0.0,0.0,0.0,0.0,0.0,0.0,0.0,0.0,0.0,4.7701,5.1371,5.4531,5.5801,5.4751,4.9582,4.4298,0.0,0.0,0.0,0.0,0.0,0.0,0.0,0.0,0.0,0.0,0.0,0.0,0.0,0.0,0.0,0.0,0.0,0.0,0.0,0.0,0.0,0.0,0.0,0.0,0.0,0.0,0.0,0.0,0.0,0.0,0.0,0.0,0.0,0.0,0.0,0.0,0.0,0.0,0.0,0.0,0.0,0.0,0.0,0.0,0.0,0.0,0.0,0.0,0.0,0.0,0.0,0.0,0.0,0.0,0.0,0.0,0.0,0.0,0.0,0.0,0.0,0.0,0.0,0.0,0.0,0.0,0.0,0.0,0.0,0.0,0.0,0.0,0.0,0.0,0.0,0.0,0.0,0.0,0.0,0.0,0.0,0.0,0.0,0.0,0.0,0.0,0.0,0.0,0.0,0.0,0.0,0.0,0.0,0.0,0.0,0.0,0.0,0.0,0.0,0.0,0.0,0.0,0.0,0.0,0.0,0.0,0.0,4.4726,4.9403,5.2946,5.5329,5.6142,5.5242,5.1207,4.6192,4.035,0.0,0.0,0.0,0.0,0.0,0.0,0.0,0.0,0.0,0.0,0.0,0.0,0.0,0.0,0.0,0.0,0.0,0.0,0.0,0.0,0.0,0.0,0.0,0.0,0.0,0.0,0.0,0.0,0.0,0.0,0.0,0.0,0.0,0.0,0.0,0.0,0.0,0.0,2.0806,2.3404,0.0,0.0,0.0,0.0,0.0,0.0,0.0,0.0,2.621,0.0,0.0,0.0,0.0,0.0,0.0,0.0,0.0,0.0,0.0,0.0,0.0,0.0,0.0,0.0,0.0,0.0,0.0,0.0,0.0,0.0,0.0,0.0,0.0,0.0,0.0,0.0,0.0,0.0,0.0,0.0,0.0,0.0,0.0,0.0,0.0,0.0,0.0,0.0,0.0,0.0,0.0,0.0,0.0,0.0,0.0,0.0,0.0,0.0,0.0,0.0,0.0,0.0,0.0,0.0,0.0,4.3667,4.5872,4.9582,5.4807,5.6374,5.6374,5.4662,5.1846,4.7166,4.0495,0.0,0.0,0.0,0.0,0.0,0.0,0.0,0.0,0.0,0.0,0.0,0.0,0.0,0.0,0.0,0.0,0.0,0.0,0.0,0.0,0.0,0.0,0.0,0.0,0.0,0.0,0.0,0.0,0.0,0.0,0.0,0.0,0.0,0.0,0.0,0.0,0.0,0.0,0.0,2.8107,3.0004,0.0,0.0,0.0,0.0,0.0,0.0,0.0,0.0,2.733,0.0,0.0,0.0,0.0,0.0,0.0,0.0,0.0,0.0,0.0,0.0,0.0,0.0,0.0,0.0,0.0,0.0,0.0,0.0,0.0,0.0,0.0,0.0,0.0,0.0,0.0,0.0,0.0,0.0,0.0,0.0,0.0,0.0,0.0,0.0,0.0,0.0,0.0,0.0,0.0,0.0,0.0,0.0,0.0,0.0,0.0,0.0,0.0,0.0,0.0,0.0,0.0,0.0,0.0,0.0,4.3333,4.7637,5.1614,5.53,5.6636,5.6229,5.4023,5.054,4.5982,0.0,0.0,0.0,0.0,0.0,0.0,0.0,0.0,0.0,0.0,0.0,0.0,0.0,0.0,0.0,0.0,0.0,0.0,0.0,0.0,0.0,0.0,0.0,0.0,0.0,0.0,0.0,0.0,0.0,0.0,0.0,0.0,0.0,0.0,0.0,0.0,0.0,0.0,0.0,0.0,3.0298,3.154,3.276,0.0,0.0,0.0,0.0,0.0,0.0,2.9493,2.8768,0.0,0.0,0.0,0.0,0.0,0.0,0.0,0.0,0.0,0.0,0.0,0.0,0.0,0.0,0.0,0.0,0.0,0.0,0.0,0.0,0.0,0.0,0.0,0.0,0.0,0.0,0.0,0.0,0.0,0.0,0.0,0.0,0.0,0.0,0.0,0.0,0.0,0.0,0.0,0.0,0.0,0.0,0.0,0.0,0.0,0.0,0.0,0.0,0.0,0.0,0.0,0.0,0.0,0.0,0.0,4.2586,4.9025,5.3382,5.5358,5.652,5.5852,5.3155,4.9006,4.4625,0.0,0.0,0.0,0.0,0.0,0.0,0.0,0.0,0.0,0.0,0.0,0.0,0.0,0.0,0.0,0.0,0.0,0.0,0.0,0.0,0.0,0.0,0.0,0.0,0.0,0.0,0.0,0.0,0.0,0.0,0.0,0.0,0.0,0.0,0.0,0.0,0.0,0.0,0.0,0.0,0.0,3.3409,3.4772,3.4208,0.0,0.0,0.0,0.0,3.238,3.2032,0.0,0.0,0.0,0.0,0.0,0.0,0.0,0.0,0.0,0.0,0.0,0.0,0.0,0.0,0.0,0.0,0.0,0.0,0.0,0.0,0.0,0.0,0.0,0.0,0.0,0.0,0.0,0.0,0.0,0.0,0.0,0.0,0.0,0.0,0.0,0.0,0.0,0.0,0.0,0.0,0.0,0.0,0.0,0.0,0.0,0.0,0.0,0.0,0.0,0.0,0.0,0.0,0.0,0.0,0.0,0.0,4.3776,4.903,5.292,5.5273,5.6115,5.501,5.1878,4.8571,4.4451,0.0,0.0,0.0,0.0,0.0,0.0,0.0,0.0,0.0,0.0,0.0,0.0,0.0,0.0,0.0,0.0,0.0,0.0,0.0,0.0,0.0,0.0,0.0,0.0,0.0,0.0,0.0,0.0,0.0,0.0,0.0,0.0,0.0,0.0,0.0,0.0,0.0,0.0,0.0,0.0,0.0,3.7764,3.7063,3.7284,3.7099,0.0,0.0,3.5055,3.563,3.7506,0.0,0.0,0.0,0.0,0.0,0.0,0.0,0.0,0.0,0.0,0.0,0.0,0.0,0.0,0.0,0.0,0.0,0.0,0.0,0.0,0.0,0.0,0.0,0.0,0.0,0.0,0.0,0.0,0.0,0.0,0.0,0.0,0.0,0.0,0.0,0.0,0.0,0.0,0.0,0.0,0.0,0.0,0.0,0.0,0.0,0.0,0.0,0.0,0.0,0.0,0.0,0.0,0.0,0.0,0.0,4.1656,4.4603,5.119,5.5219,5.646,5.7158,5.5794,5.2278,4.7666,4.3485,0.0,0.0,0.0,0.0,0.0,0.0,0.0,0.0,0.0,0.0,0.0,0.0,0.0,0.0,0.0,0.0,0.0,0.0,0.0,0.0,0.0,0.0,0.0,0.0,0.0,0.0,0.0,0.0,0.0,0.0,0.0,0.0,0.0,0.0,0.0,0.0,0.0,0.0,0.0,0.0,0.0,0.0,3.8474,3.9199,0.0,0.0,0.0,3.8308,3.8928,0.0,0.0,0.0,0.0,0.0,0.0,0.0,0.0,0.0,0.0,0.0,0.0,0.0,0.0,0.0,0.0,0.0,0.0,0.0,0.0,0.0,0.0,0.0,0.0,0.0,0.0,0.0,0.0,0.0,0.0,0.0,0.0,0.0,0.0,0.0,0.0,0.0,0.0,0.0,0.0,0.0,0.0,0.0,0.0,0.0,0.0,0.0,0.0,0.0,0.0,0.0,0.0,0.0,0.0,0.0,0.0,0.0,4.5701,5.3838,5.7898,5.7516,5.8335,5.6733,5.2423,4.7056,0.0,0.0,0.0,0.0,0.0,0.0,0.0,0.0,0.0,0.0,0.0,0.0,0.0,0.0,0.0,0.0,0.0,0.0,0.0,0.0,0.0,0.0,0.0,0.0,0.0,0.0,0.0,2.3421,0.0,0.0,0.0,0.0,0.0,0.0,0.0,0.0,0.0,0.0,0.0,0.0,0.0,0.0,4.0437,4.0002,4.1279,4.1976,0.0,0.0,4.1366,4.1541,4.1599,4.0612,0.0,0.0,0.0,0.0,0.0,0.0,0.0,0.0,0.0,0.0,0.0,0.0,0.0,0.0,0.0,0.0,0.0,0.0,0.0,0.0,0.0,0.0,0.0,0.0,0.0,0.0,0.0,0.0,0.0,0.0,0.0,0.0,0.0,0.0,0.0,0.0,0.0,0.0,0.0,0.0,0.0,0.0,0.0,0.0,0.0,0.0,0.0,0.0,0.0,0.0,0.0,0.0,0.0,0.0,4.6072,4.7681,5.6603,6.0228,5.8091,5.9338,5.739,5.1813,4.723,4.334,0.0,0.0,0.0,0.0,0.0,0.0,0.0,0.0,0.0,0.0,0.0,0.0,0.0,0.0,0.0,0.0,0.0,0.0,0.0,0.0,0.0,0.0,0.0,0.0,0.0,0.0,0.0,0.0,0.0,0.0,0.0,0.0,0.0,0.0,0.0,0.0,0.0,0.0,0.0,0.0,0.0,4.1947,4.1918,4.4008,4.554,0.0,4.4959,4.4204,4.305,4.5779,4.5611,3.8474,0.0,0.0,0.0,0.0,0.0,0.0,0.0,0.0,0.0,0.0,0.0,0.0,0.0,0.0,0.0,0.0,0.0,0.0,0.0,0.0,0.0,0.0,0.0,0.0,0.0,0.0,0.0,0.0,0.0,0.0,0.0,0.0,0.0,0.0,0.0,0.0,0.0,0.0,0.0,0.0,0.0,0.0,0.0,0.0,0.0,0.0,0.0,0.0,0.0,0.0,0.0,0.0,0.0,4.7509,4.9263,5.7379,6.1025,5.9878,5.9636,5.7341,5.2768,4.8032,4.3805,0.0,0.0,0.0,0.0,0.0,0.0,0.0,0.0,0.0,0.0,0.0,0.0,0.0,0.0,0.0,0.0,0.0,0.0,0.0,0.0,0.0,0.0,0.0,0.0,0.0,0.0,0.0,0.0,2.6997,2.8071,2.9813,0.0,0.0,0.0,0.0,0.0,0.0,0.0,0.0,0.0,0.0,4.4703,4.7106,4.7887,0.0,0.0,4.7652,4.6573,4.6214,4.5578,4.3964,4.0431,3.7732,0.0,0.0,0.0,0.0,0.0,0.0,0.0,0.0,0.0,0.0,0.0,0.0,0.0,0.0,0.0,0.0,0.0,0.0,0.0,0.0,0.0,0.0,0.0,0.0,0.0,0.0,0.0,0.0,0.0,0.0,0.0,0.0,0.0,0.0,0.0,0.0,0.0,0.0,0.0,0.0,0.0,0.0,0.0,0.0,0.0,0.0,0.0,0.0,0.0,0.0,0.0,0.0,4.9275,5.1334,5.8882,6.2514,6.1934,6.0709,5.8014,5.376,4.8833,4.4443,0.0,0.0,0.0,0.0,0.0,0.0,0.0,0.0,0.0,0.0,0.0,0.0,0.0,0.0,0.0,0.0,0.0,0.0,0.0,0.0,0.0,0.0,0.0,0.0,0.0,0.0,0.0,0.0,2.8638,2.9813,3.1582,0.0,0.0,0.0,0.0,0.0,0.0,0.0,0.0,0.0,0.0,4.6894,5.0157,5.0444,5.052,5.1008,4.9321,4.8068,4.8247,4.5931,4.3794,4.2792,0.0,0.0,0.0,0.0,0.0,0.0,0.0,0.0,0.0,0.0,0.0,0.0,0.0,0.0,0.0,0.0,0.0,0.0,0.0,0.0,0.0,0.0,0.0,0.0,0.0,0.0,0.0,2.3529,0.0,0.0,2.4563,0.0,0.0,0.0,0.0,0.0,0.0,0.0,0.0,0.0,0.0,0.0,0.0,0.0,0.0,0.0,0.0,0.0,0.0,0.0,0.0,0.0,0.0,5.1659,5.3866,6.159,6.5103,6.4053,6.2852,5.972,5.471,4.9551,4.5292,4.2092,0.0,0.0,0.0,0.0,0.0,0.0,0.0,0.0,0.0,0.0,0.0,0.0,0.0,0.0,0.0,0.0,0.0,0.0,0.0,0.0,0.0,0.0,0.0,0.0,0.0,0.0,3.0481,3.1642,3.2351,0.0,0.0,0.0,0.0,0.0,0.0,0.0,0.0,0.0,4.1582,4.5173,4.8204,5.0071,5.1129,5.1812,5.1842,4.9947,4.8563,4.8731,4.7552,4.6377,0.0,0.0,0.0,0.0,0.0,0.0,0.0,0.0,0.0,0.0,0.0,0.0,0.0,0.0,0.0,0.0,0.0,0.0,0.0,0.0,0.0,0.0,0.0,0.0,0.0,0.0,0.0,2.8304,2.8822,0.0,0.0,0.0,0.0,0.0,0.0,0.0,0.0,0.0,0.0,0.0,3.5515,3.6408,0.0,0.0,0.0,0.0,0.0,0.0,0.0,0.0,0.0,0.0,0.0,0.0,5.3008,5.5905,6.2058,6.5384,6.5395,6.2685,5.9438,5.5733,5.0945,4.6214,4.157,0.0,0.0,0.0,0.0,0.0,0.0,0.0,0.0,0.0,0.0,0.0,0.0,0.0,0.0,0.0,0.0,0.0,0.0,0.0,0.0,0.0,0.0,0.0,0.0,0.0,3.0451,0.0,0.0,0.0,0.0,0.0,0.0,0.0,0.0,0.0,0.0,0.0,4.3094,4.633,4.8676,5.1183,5.4264,5.4326,5.4626,0.0,0.0,0.0,0.0,0.0,0.0,0.0,0.0,0.0,0.0,0.0,0.0,0.0,0.0,4.5418,4.0856,4.119,4.2093,4.1877,0.0,0.0,0.0,0.0,0.0,0.0,0.0,0.0,0.0,0.0,0.0,0.0,0.0,0.0,3.2571,0.0,3.2783,0.0,0.0,0.0,0.0,0.0,0.0,0.0,0.0,3.7391,3.875,3.9228,4.0054,4.0677,0.0,4.2037,4.0687,0.0,0.0,0.0,0.0,0.0,0.0,0.0,0.0,5.4184,5.6812,6.2306,6.5674,6.6486,6.3115,6.0107,5.7654,5.2055,4.6897,4.2353,4.0933,3.9354,0.0,0.0,0.0,0.0,0.0,0.0,0.0,0.0,0.0,0.0,0.0,0.0,0.0,0.0,0.0,0.0,0.0,0.0,0.0,0.0,0.0,0.0,0.0,3.3058,0.0,0.0,0.0,0.0,0.0,0.0,0.0,0.0,0.0,4.1652,4.3928,4.6969,5.0525,5.2342,5.4231,5.6573,0.0,0.0,0.0,0.0,0.0,0.0,0.0,4.9184,4.9689,4.9447,4.9245,4.9399,5.052,5.1513,5.1905,0.0,0.0,4.7012,4.676,4.7454,4.7454,4.7887,4.8302,4.8589,4.9582,5.0709,0.0,0.0,0.0,0.0,0.0,0.0,0.0,0.0,3.478,3.6125,0.0,3.6379,0.0,0.0,0.0,0.0,3.3952,3.6791,0.0,0.0,4.2188,4.3758,4.282,4.3747,4.4229,4.4395,4.661,4.6582,4.4617,4.3793,0.0,0.0,0.0,0.0,0.0,0.0,5.5322,5.7077,6.2555,6.6099,6.741,6.4244,6.1741,6.0039,5.2794,4.7477,4.4582,4.3044,4.1938,4.1192,3.9392,0.0,0.0,0.0,0.0,0.0,0.0,0.0,0.0,0.0,0.0,0.0,0.0,0.0,0.0,0.0,0.0,0.0,0.0,0.0,0.0,3.7048,0.0,0.0,0.0,0.0,0.0,0.0,0.0,0.0,0.0,0.0,4.5286,4.7208,5.0129,5.3977,0.0,0.0,0.0,0.0,5.7988,5.6086,5.4951,5.4719,5.5554,5.6192,5.6837,5.7701,0.0,0.0,5.7392,5.599,5.5352,5.5102,5.8221,5.8896,5.4412,5.2613,5.168,5.1637,5.1932,5.1942,5.2668,5.4828,5.6432,4.4297,0.0,0.0,0.0,0.0,3.9255,4.1121,4.3843,4.2883,4.2638,4.2833,4.0962,0.0,0.0,0.0,0.0,0.0,0.0,4.1106,4.3846,4.489,4.6507,4.8742,4.8733,4.9032,4.9598,5.0275,5.0358,4.9927,5.0153,4.8471,4.5067,0.0,0.0,0.0,0.0,5.7309,6.1305,6.4067,6.6099,6.7556,6.4439,6.0949,5.7204,5.3178,4.9896,4.7456,4.6314,4.496,4.3245,4.2644,0.0,0.0,0.0,0.0,0.0,0.0,0.0,0.0,0.0,0.0,0.0,0.0,0.0,0.0,0.0,0.0,0.0,0.0,0.0,3.901,4.0106,4.0311,0.0,0.0,0.0,0.0,0.0,0.0,0.0,0.0,0.0,5.4723,5.4809,5.5743,0.0,0.0,5.8596,5.8992,6.027,6.1508,6.2376,6.1479,0.0,6.23,6.096,6.0055,6.08,6.3007,6.4906,6.5882,6.6117,6.6541,6.7462,6.8192,6.8041,6.672,6.3611,6.1393,6.1305,6.1675,6.2123,6.2441,6.3385,6.431,5.1934,4.7243,4.4615,4.3965,4.4674,4.5167,4.6834,4.9238,4.8139,4.7923,4.813,4.5779,4.3834,4.2266,4.1096,0.0,0.0,0.0,4.6028,4.9598,4.9335,5.0745,5.3407,5.3102,5.3133,5.3616,5.3696,5.3822,5.3915,5.4378,5.3056,5.005,0.0,0.0,5.2605,5.6031,5.9463,6.2797,6.5127,6.6728,6.7533,6.4645,6.1233,5.7462,5.5228,5.2949,5.0543,4.9607,4.8279,4.6505,4.5674,4.4145,0.0,0.0,0.0,0.0,0.0,0.0,0.0,0.0,0.0,0.0,0.0,3.5009,3.4254,0.0,0.0,0.0,4.2166,4.2379,4.2379,4.2655,0.0,0.0,0.0,0.0,0.0,0.0,0.0,5.1981,5.7171,6.1086,6.1815,6.2205,6.2547,6.2986,6.2875,6.2742,6.261,0.0,6.505,6.5757,6.5127,6.5061,6.6452,6.5757,6.5425,6.674,6.8364,6.9898,7.1223,7.1943,7.2539,7.3243,7.3409,7.331,7.331,7.1289,6.9046,6.7512,6.7512,6.7777,6.7811,6.8615,6.9476,5.8609,5.7533,5.2242,4.978,4.9499,5.0685,5.1556,5.2052,5.1497,5.2136,5.3358,5.0428,4.9107,4.8955,4.7073,0.0,4.8382,4.9849,5.2034,5.4827,5.492,5.5772,5.7227,5.6935,5.6738,5.6705,5.6933,5.7011,5.6964,5.7011,5.7097,5.7196,5.5885,5.517,5.5336,5.9164,6.1682,6.273,6.5955,6.7556,6.7456,6.4763,6.2233,6.0033,5.8367,5.6278,5.376,5.2811,5.1743,5.0442,4.8705,4.7537,4.694,0.0,0.0,0.0,0.0,0.0,0.0,0.0,0.0,0.0,0.0,0.0,0.0,0.0,0.0,0.0,4.9691,0.0,4.7074,4.597,0.0,0.0,0.0,5.2777,5.8393,5.9841,6.0411,6.0403,0.0,0.0,6.686,6.8804,6.9699,6.845,6.8572,6.8341,6.7115,6.8109,6.8572,6.7546,6.7291,6.7811,6.9401,7.0394,7.1686,7.3533,7.4461,7.4395,7.4627,7.4693,7.466,7.4925,7.5257,7.5621,7.5555,7.5761,7.5132,7.1057,7.0394,7.0361,7.0527,7.1479,7.2423,6.4586,6.3851,6.1998,5.8891,5.5329,5.5591,5.6113,5.6636,5.6026,5.5445,5.4809,5.3152,5.2394,5.242,5.2264,5.3277,5.5183,5.509,5.6631,5.9242,5.8552,5.9036,6.0585,6.0187,5.9679,5.9236,5.9773,5.9761,5.9264,5.9794,6.0622,6.167,6.1372,6.0941,6.0411,6.1405,6.3658,6.7138,6.7423,6.7324,6.6728,6.4487,6.3042,6.243,6.0294,5.8335,5.6684,5.5817,5.4654,5.3169,5.2628,5.1362,4.9088,4.5547,0.0,0.0,0.0,0.0,0.0,0.0,0.0,0.0,0.0,3.7371,3.5456,0.0,4.0877,0.0,5.0975,5.6692,5.8087,5.8478,0.0,0.0,5.8097,5.8457,6.1089,6.3957,6.5348,6.4244,6.8317,7.1123,7.0759,7.2142,7.3409,7.4072,7.1521,6.9798,7.056,7.1455,7.215,7.2316,7.3078,7.4072,7.427,7.4767,7.533,7.6457,7.6655,7.702,7.8113,7.8285,7.8511,7.8974,7.8809,7.8384,7.7782,7.745,7.6655,7.5132,7.4767,7.4767,7.4767,7.5211,7.5629,6.7991,6.7341,6.666,6.4865,6.2407,6.1263,6.0472,6.0063,6.0785,6.0062,5.8221,5.7494,5.7163,5.7247,5.8287,5.9403,6.0598,6.1334,6.2436,6.3733,6.317,6.3074,6.3375,6.2843,6.2179,6.1483,6.1881,6.1848,6.1516,6.1881,6.2664,6.3791,6.4067,6.4365,6.4597,6.4597,6.5955,6.8639,6.7953,6.7423,6.6926,6.4564,6.2996,6.2278,6.0086,5.7998,5.6161,5.5037,5.3676,5.2172,5.1739,5.0584,4.8478,4.5401,4.2731,0.0,0.0,0.0,0.0,0.0,0.0,0.0,0.0,0.0,0.0,0.0,4.6393,4.8286,5.7042,6.2339,6.1635,6.2292,6.342,6.5092,6.495,6.5987,6.9103,7.1223,7.2126,7.1331,7.3748,7.5363,7.4966,7.5595,7.639,7.7185,7.5198,7.3707,7.3873,7.427,7.4668,7.5124,7.5794,7.6431,7.6696,7.706,7.7391,7.7815,7.7888,7.8186,7.8947,7.9113,7.9245,7.9604,7.9378,7.9067,7.871,7.8372,7.796,7.7792,7.7685,7.7392,7.6664,7.6763,7.6975,7.0233,6.9681,6.9058,6.9106,6.9487,6.7274,6.5053,6.3088,6.5039,6.4678,6.2639,6.2685,6.2714,6.2846,6.4476,6.5198,6.5304,6.7393,6.8077,6.7607,6.7532,6.6898,6.5823,6.5149,6.4399,6.3725,6.3824,6.3791,6.3725,6.3824,6.4222,6.4951,6.5525,6.6496,6.7821,6.7887,6.8208,6.8828,6.8109,6.7688,6.7556,6.4763,6.2598,6.1119,5.8966,5.6678,5.4338,5.2974,5.158,5.0075,4.9328,4.8662,4.7986,4.4974,4.3172,0.0,4.0227,0.0,0.0,0.0,0.0,0.0,0.0,0.0,0.0,5.2583,5.467,5.8489,6.4696,6.6931,6.3261,6.3737,6.6309,7.1189,7.1885,7.3674,7.7888,7.8484,7.8484,7.8484,7.8484,7.8484,7.8351,7.8484,7.8484,7.8384,7.8186,7.7557,7.6854,7.6497,7.6556,7.6563,7.6589,7.6927,7.7457,7.808,7.8418,7.8451,7.8451,7.8484,7.8517,7.8517,7.8544,7.863,7.879,7.8909,7.9113,7.9262,7.9469,7.9676,7.9778,7.9263,7.7779,7.7648,7.769,7.3425,7.3706,7.3095,7.3169,7.3722,7.3205,7.0885,6.7474,6.6369,6.6169,6.6678,6.7594,6.8098,6.8383,6.9627,7.0034,6.9646,7.0136,7.0001,6.9297,6.8724,6.8317,6.8042,6.7347,6.6595,6.5966,6.6496,6.6463,6.5922,6.6496,6.7181,6.7844,6.8032,6.8506,6.9334,0.0,0.0,0.0,6.8871,6.8208,6.7523,6.4763,6.2577,6.1098,5.8966,0.0,5.5028,5.4663,5.3555,5.1614,5.1319,0.0,0.0,0.0,0.0,0.0,0.0,0.0,0.0,0.0,0.0,0.0,5.5739,5.5304,5.5467,5.6593,5.9824,6.5797,6.8205,7.0723,7.3943,7.4963,7.5835,7.6861,7.7027,7.7457,7.8418,7.8484,7.8484,7.8484,7.8484,7.8484,7.8484,7.8484,7.8484,7.8484,7.8484,7.8384,7.8086,7.7987,7.8053,7.8086,7.7954,7.8086,7.8252,7.8418,7.8484,7.8484,7.8484,7.8484,7.8511,7.8511,7.8591,7.883,7.9487,8.0115,8.0415,8.1022,8.15,8.1607,8.1805,8.1395,7.9398,7.9718,8.0414,7.7193,7.6869,7.6526,7.6705,0.0,7.5537,7.4365,7.3421,7.1087,7.0402,7.0923,7.1155,7.153,7.2011,7.2611,7.2548,7.2018,7.2349,7.1918,7.0891,7.0891,7.0295,6.9259,6.8871,6.8085,6.7059,6.7423,6.7423,6.7092,6.7423,6.7787,6.8175,6.8506,6.8894,6.9235,6.9599,6.9798,6.9798,6.9069,6.8506,6.8076,6.5624,6.3835,6.2709,6.0589,0.0,0.0,0.0,0.0,0.0,0.0,0.0,0.0,5.5529,0.0,5.7248,5.6627,5.7082,5.9124,6.0466,6.26,6.592,6.7533,6.6835,6.3274,6.5937,6.9401,7.3002,7.378,7.5062,7.7623,7.8285,7.8484,7.8484,7.8484,7.8484,7.8484,7.8484,7.8484,7.8484,7.8484,7.8484,7.8484,7.8484,7.8484,7.8484,7.8484,7.8484,7.8484,7.8484,7.8484,7.8484,7.8484,7.8484,7.8484,7.8484,7.8511,7.8484,7.8484,7.8537,7.8671,7.8697,7.8929,7.9641,8.029,8.08,8.1582,8.2106,8.2414,8.2561,8.2696,8.2529,8.1379,8.1687,8.2072,8.0207,7.9284,7.9284,7.9668,8.0126,7.7254,7.7042,7.8529,0.0,0.0,0.0,7.4005,7.4204,7.476,7.476,7.437,7.374,7.427,7.3799,7.2415,7.3011,7.2283,7.0394,7.0096,6.9368,6.8218,6.8052,6.7986,6.7986,6.7986,6.7986,6.8052,6.8606,6.896,6.9126,6.9699,7.0063,7.0129,6.9301,6.8828,6.8662,6.6651,6.5227,6.442,6.2378,6.0953,6.0225,5.9565,5.91,5.895,5.8885,5.9138,5.9678,5.9671,6.0044,6.0892,6.1217,6.2991,6.668,6.7758,7.0342,7.5363,7.7435,7.6411,7.149,7.5121,7.7821,7.8451,7.8484,7.8484,7.8484,7.8484,7.8484,7.8484,7.8484,7.8484,7.8484,7.8484,7.8484,7.8484,7.8484,7.8484,7.8484,7.8484,7.8484,7.8484,7.8484,7.8617,7.8691,7.8644,7.8591,7.8797,7.8929,7.8876,7.906,7.9191,7.9008,7.9008,7.9053,7.9131,7.921,7.9392,7.9913,8.0912,8.1201,8.1829,8.2696,8.3138,8.3261,8.3491,8.3478,8.3513,8.3534,8.3534,8.3491,8.0326,8.0627,8.0627,8.1336,8.2397,8.127,8.0294,7.9251,7.7034,7.5672,7.5223,7.6324,7.6854,7.6927,7.6954,7.6556,7.5835,7.596,7.5231,7.3898,7.3997,7.3541,7.2614,7.1355,7.0626,7.0394,6.9798,6.95,6.9467,6.9467,6.9467,6.9467,6.9623,6.9931,7.0527,7.0693,7.1057,7.1653,7.0328,6.9334,6.8695,6.7148,6.5701,6.4332,6.2908,6.1703,6.0986,6.0948,6.0743,6.0663,6.0661,6.2151,6.5434,6.5465,6.6891,7.0478,7.1996,7.3196,7.4038,7.5777,7.7124,7.7891,7.8337,7.8086,7.7398,7.7921,7.8384,7.8484,7.8484,7.8484,7.8484,7.8484,7.8484,7.8484,7.8484,7.8484,7.8484,7.8484,7.8484,7.8484,7.8484,7.8484,7.8484,7.8484,7.8511,7.8511,7.877,7.8876,7.9487,7.9027,7.8922,7.9556,7.9812,8.0156,8.0711,8.1149,8.0785,8.0299,8.0824,8.1033,8.0579,8.1081,8.1688,8.2267,8.2896,8.3528,8.4071,8.4872,8.5182,8.5261,8.5242,8.53,8.5261,8.5281,8.5107,8.2441,8.2025,8.1959,8.2338,8.285,8.2121,8.0962,7.961,7.8974,7.808,7.7086,7.7292,7.7623,7.7954,7.7557,7.6994,7.6291,7.5927,7.519,7.4229,7.4196,7.3799,7.3078,7.2415,7.1686,7.0924,7.056,7.0196,6.9798,6.9798,6.9798,6.9831,7.0196,7.0759,7.1455,7.1488,7.1686,7.1985,7.1322,7.0825,7.0494,6.9434,6.8771,6.8473,6.7446,6.7148,6.7612,6.7999,6.8366,6.875,6.9112,7.0313,7.2437,7.2475,7.3403,7.5737,7.6555,7.6993,7.7167,7.799,7.8484,7.8484,7.8484,7.8484,7.8484,7.8484,7.8484,7.8484,7.8484,7.8484,7.8484,7.8484,7.8484,7.8484,7.8484,7.8484,7.8484,7.8484,7.8484,7.8484,7.8484,7.8484,7.8484,7.8484,7.8744,7.921,7.9744,8.034,8.08,8.0569,8.0455,8.08,8.0873,8.1019,8.1556,8.1687,8.1616,8.1307,8.1688,8.1945,8.1759,8.2244,8.2718,8.3399,8.3966,8.4472,8.5048,8.555,8.5871,8.5909,8.5909,8.5909,8.5909,8.5909,8.574,8.4506,8.3148,8.3314,8.338,8.3347,8.2618,8.1658,8.0636,8.0829,8.02,7.9007,7.8219,7.8119,7.8384,7.7722,7.706,7.6523,7.5993,7.5389,7.4726,7.466,7.4296,7.3608,7.331,7.2515,7.1455,7.1223,7.0858,7.0361,7.0295,7.0295,7.0361,7.0858,7.1521,7.225,7.225,7.2316,7.2481,7.2481,7.2349,7.1985,7.1421,7.1554,7.2382,7.1918,7.2316,7.374,7.437,7.5025,7.5754,7.6258,7.6861,7.7557,7.7623,7.7888,7.8418,7.8484,7.8484,7.8484,7.8484,7.8484,7.8484,7.8484,7.8484,7.8484,7.8484,7.8484,7.8484,7.8484,7.8484,7.8484,7.8484,7.8484,7.8484,7.8717,7.8902,7.8876,7.9027,7.9184,7.9184,7.9236,7.928,7.921,7.9288,7.971,8.0495,8.1225,8.1757,8.2014,8.2233,8.2279,8.2382,8.2222,8.2268,8.2336,8.2631,8.2664,8.2471,8.275,8.2994,8.3117,8.3138,8.3628,8.4534,8.4752,8.5048,8.5721,8.5909,8.5909,8.5909,8.5909,8.5909,8.5909,8.5909,8.5909,8.5231,8.4109,8.454,8.4937,8.4771,8.4076,8.3612,8.3347,8.2254,8.126,8.0432,7.9709,7.9014,7.8451,7.7749,7.7358,7.7258,7.7225,7.6755,7.6092,7.6125,7.5728,7.4958,7.374,7.3045,7.2755,7.2216,7.1819,7.1686,7.172,7.1786,7.1819,7.1885,7.225,7.2912,7.2987,7.331,7.3964,7.3997,7.3368,7.2084,7.1918,7.2548,7.3964,7.3931,7.4561,7.586,7.6092,7.6457,7.7152,7.7285,7.7623,7.8285,7.8384,7.8418,7.8484,7.8484,7.8484,7.8484,7.8484,7.8484,7.8484,7.8484,7.8484,7.8484,7.8484,7.8484,7.8484,7.8484,7.8484,7.8484,7.8537,7.8644,7.8823,7.941,7.9854,7.9955,8.076,8.1318,8.1318,8.1318,8.1487,8.129,8.1509,8.1863,8.2026,8.2279,8.2674,8.3305,8.3499,8.3777,8.4344,8.4121,8.3918,8.4426,8.4864,8.4426,8.4023,8.4574,8.4676,8.4493,8.4852,8.5663,8.532,8.5663,8.5721,8.5778,8.5909,8.5909,8.5909,8.5909,8.5909,8.5909,8.5909,8.5909,8.4672,8.3446,8.4142,8.4738,8.497,8.4308,8.3976,8.3877,8.2916,8.2022,8.1293,8.0564,7.9604,7.8484,7.8186,7.7788,7.7417,7.7391,7.6994,7.6324,7.5894,7.5588,7.5223,7.4262,7.3541,7.3111,7.278,7.2415,7.2084,7.1993,7.2216,7.2614,7.2647,7.3011,7.3699,7.374,7.413,7.4793,7.4859,7.476,7.4535,7.4138,7.4403,7.5297,7.543,7.5894,7.6854,7.6954,7.7258,7.7987,7.8053,7.8212,7.8451,7.8484,7.8484,7.8484,7.8484,7.8484,7.8484,7.8484,7.8484,7.8484,7.8484,7.8484,7.8484,7.8484,7.8484,7.8484,7.8484,7.8691,7.9254,7.9384,7.9608,8.0215,8.0736,8.0994,8.1119,8.1511,8.1816,8.1956,8.2454,8.279,8.2801,8.3316,8.3741,8.3803,8.3895,8.4192,8.4529,8.4691,8.4912,8.5242,8.5107,8.5028,8.5238,8.53,8.5202,8.5107,8.5359,8.5531,8.5509,8.5531,8.589,8.5945,8.6018,8.6018,8.589,8.5909,8.5909,8.5945,8.5909,8.5909,8.5909,8.5909,8.5909,8.4805,8.3976,8.4374,8.5037,8.56,8.4705,8.4308,8.4175,8.3314,8.2386,8.1459,8.0929,8.0001,7.8881,7.8616,7.8186,7.7722,7.7689,7.7391,7.6854,7.5993,7.5562,7.5489,7.4627,7.3931,7.3475,7.3409,7.3144,7.2647,7.2581,7.2879,7.3343,7.3409,7.3799,7.4428,7.4494,7.4859,7.5522,7.5562,7.5894,7.6424,7.6125,7.6092,7.6556,7.6596,7.6954,7.7656,7.7689,7.7921,7.8451,7.8484,7.8484,7.8484,7.8484,7.8484,7.8484,7.8484,7.8484,7.8484,7.8484,7.8617,7.8876,7.9088,7.9287,7.9355,7.9533,7.9533,7.9417,7.9417,7.9761,7.9829,8.0256,8.0824,8.1569,8.1874,8.2176,8.2358,8.2759,8.3305,8.3393,8.4326,8.4661,8.4816,8.533,8.5748,8.5838,8.5948,8.6024,8.6044,8.6178,8.6275,8.6222,8.641,8.6191,8.5598,8.5764,8.5861,8.6025,8.6285,8.6632,8.6506,8.6561,8.6561,8.6977,8.6634,8.6597,8.6815,8.6706,8.638,8.6271,8.6235,8.6163,8.5945,8.5909,8.5909,8.6126,8.6026,8.606,8.6424,8.7087,8.56,8.5037,8.4805,8.3513,8.2121,8.1023,8.0791,8.0299,7.9543,7.8881,7.8484,7.8451,7.8451,7.8384,7.8119,7.6828,7.6225,7.6159,7.4859,7.4163,7.4064,7.403,7.403,7.3964,7.403,7.4097,7.413,7.413,7.4494,7.5091,7.5223,7.5588,7.6192,7.6258,7.6622,7.7252,7.7318,7.7258,7.7325,7.7358,7.7689,7.8318,7.8418,7.8451,7.8484,7.8484,7.8484,7.8484,7.8484,7.8484,7.8484,7.8484,7.8511,7.8537,7.8591,7.8981,7.9887,8.0623,8.1163,8.1385,8.1791,8.1884,8.1493,8.1588,8.1318,8.0666,8.1287,8.1814,8.2164,8.2903,8.3445,8.3712,8.5092,8.604,8.6224,8.6839,8.7407,8.7801,8.786,8.7781,8.7824,8.7965,8.7896,8.7748,8.7879,8.7879,8.7843,8.7826,8.7573,8.6306,8.6429,8.6846,8.6974,8.73,8.7918,8.8063,8.8099,8.8027,8.799,8.7773,8.7773,8.799,8.7882,8.752,8.7266,8.7013,8.6795,8.6561,8.609,8.6163,8.55,8.5533,8.5993,8.6358,8.649,8.5533,8.4838,8.4308,8.3347,8.2618,8.2088,8.1624,8.126,8.0929,7.9742,7.9212,7.9212,7.9212,7.8947,7.8351,7.6987,7.6291,7.6159,7.4859,7.4196,7.4196,7.4196,7.4196,7.4196,7.4196,7.4196,7.4296,7.4693,7.5058,7.5323,7.5728,7.6291,7.6927,7.6994,7.7358,7.7987,7.8086,7.8086,7.8086,7.8119,7.8219,7.8484,7.8484,7.8484,7.8484,7.8484,7.8484,7.8484,7.8484,7.8484,7.8484,7.8484,7.877,7.9358,7.9487,8.0116,8.1547,8.1968,8.2448,8.2866,8.2869,8.2766,8.3037,8.3311,8.3334,8.367,8.3634,8.3894,8.4705,8.5393,8.593,8.6353,8.6985,8.74,8.7647,8.8324,8.9054,8.9363,8.9218,8.8909,8.8896,8.8534,8.8316,8.8208,8.8208,8.828,8.8208,8.8208,8.8027,8.7592,8.7556,8.7773,8.7809,8.8027,8.8135,8.828,8.8389,8.8316,8.8425,8.8461,8.8497,8.8534,8.8461,8.8208,8.8027,8.7773,8.7665,8.7447,8.7049,8.7121,8.5666,8.56,8.6258,8.6391,8.6126,8.5401,8.4643,8.3943,8.3215,8.2784,8.2453,8.1757,8.1426,8.1288,8.0249,7.9658,7.9577,7.9345,7.898,7.8384,7.696,7.6291,7.6092,7.4859,7.4196,7.4196,7.4196,7.4196,7.4196,7.4196,7.4329,7.4594,7.5091,7.5555,7.5986,7.6457,7.7027,7.759,7.7755,7.802,7.8451,7.8484,7.8484,7.8484,7.8484,7.8484,7.8484,7.8484,7.8484,7.8484,7.8484,7.8484,7.8484,7.8484,7.8671,7.8955,7.8974,7.957,8.0637,8.087,8.1679,8.3389,8.3842,8.4249,8.4786,8.4588,8.4705,8.497,8.5233,8.5712,8.6204,8.6197,8.6302,8.6868,8.7248,8.7632,8.7952,8.8209,8.8577,8.8965,8.9439,9.0002,9.04,9.0074,8.9821,8.9785,8.9277,8.9004,8.8968,8.8968,8.8968,8.8968,8.9077,8.9113,8.8988,8.906,8.8751,8.8734,8.8988,8.8896,8.8787,8.8823,8.8859,8.8896,8.8932,8.8968,8.8968,8.8932,8.8823,8.8642,8.8534,8.8481,8.8244,8.8099,8.8063,8.6789,8.6225,8.6987,8.6689,8.596,8.5268,8.4639,8.3877,8.3148,8.2453,8.1889,8.1155,8.0984,8.0746,8.0399,7.994,7.9658,7.9034,7.861,7.8351,7.7027,7.6357,7.6225,7.4958,7.4262,7.4196,7.4196,7.4196,7.4296,7.4329,7.4627,7.519,7.5422,7.6092,7.7351,7.7351,7.7755,7.8252,7.8384,7.8451,7.8484,7.8484,7.8484,7.8484,7.8484,7.8484,7.8484,7.8484,7.8484,7.8484,7.8484,7.8484,7.8511,7.8591,7.9008,7.9828,8.0023,8.0929,8.2449,8.2721,8.3494,8.512,8.6063,8.6486,8.6827,8.7315,8.7493,8.7251,8.733,8.7623,8.7929,8.8417,8.853,8.8057,8.8053,8.8221,8.8455,8.8968,8.9676,9.0255,9.0473,9.0581,9.0581,9.0509,9.0436,9.04,9.0364,9.0292,9.0219,9.0219,9.0436,9.0436,9.0219,9.0002,9.0292,9.0509,9.0038,8.9676,9.0002,9.0147,8.9966,8.9929,8.9857,8.9893,8.9857,8.9893,8.9857,8.9821,8.9748,8.9567,8.9459,8.9241,8.9077,8.8896,8.8678,8.6126,8.5567,8.6258,8.5828,8.4738,8.444,8.3943,8.3181,8.2453,8.1989,8.1785,8.1747,8.1729,8.1645,8.1296,8.0902,8.0532,7.9375,7.8671,7.8372,7.749,7.6788,7.6192,7.5363,7.4693,7.4262,7.4196,7.4461,7.4859,7.4925,7.5323,7.5927,7.649,7.6954,7.7424,7.7888,7.8318,7.8451,7.8484,7.8484,7.8484,7.8484,7.8484,7.8484,7.8484,7.8484,7.8484,7.8484,7.8484,7.8517,7.8484,7.8484,7.8617,7.9158,7.992,8.0767,8.1502,8.2638,8.424,8.4588,8.535,8.6851,8.7496,8.7947,8.8385,8.8399,8.8562,8.8682,8.8654,8.8701,8.9404,8.9753,8.9597,8.9014,8.9276,8.9565,8.9709,9.0038,9.0292,9.0509,9.0618,9.0618,9.0618,9.0618,9.0618,9.0618,9.0618,9.0618,9.0618,9.0618,9.0581,9.0618,9.0618,9.0618,9.0618,9.0618,9.0364,9.011,9.04,9.0618,9.0618,9.0618,9.0618,9.0618,9.0618,9.0618,9.0618,9.0509,9.0328,9.0328,9.0147,9.0002,8.9893,8.9712,8.9459,8.6093,8.5898,8.5832,8.5268,8.4407,8.4142,8.347,8.2692,8.2455,8.2278,8.2217,8.2315,8.2231,8.1918,8.1524,8.0995,8.0422,7.9461,7.8936,7.8571,7.7775,7.702,7.6225,7.5297,7.4693,7.4296,7.4196,7.4594,7.5257,7.5323,7.5787,7.6655,7.7159,7.7557,7.7788,7.8219,7.8484,7.8484,7.8484,7.8484,7.8484,7.8484,7.8484,7.8517,7.8749,7.9089,7.9434,7.9382,7.9206,7.9121,7.9482,7.9914,7.9986,8.0911,8.1825,8.2682,8.3419,8.4507,8.6107,8.6405,8.6957,8.8249,8.8621,8.8842,8.9257,8.9127,8.9346,8.9687,8.9575,8.9631,9.0231,9.038,9.0224,8.991,9.0119,9.0441,9.0598,9.0618,9.0581,9.0618,9.0618,9.0618,9.0618,9.0618,9.0618,9.0618,9.0618,9.0618,9.0618,9.0618,9.0618,9.0618,9.0618,9.0618,9.0618,9.0618,9.0618,9.0545,9.0545,9.0618,9.0618,9.0618,9.0618,9.0618,9.0618,9.0618,9.0618,9.0618,9.0509,9.0581,9.0618,9.0436,9.0255,9.0328,9.0219,8.6586,8.7076,8.5662,8.497,8.4767,8.4171,8.3407,8.2599,8.2766,8.277,8.2588,8.2536,8.2194,8.1604,8.1406,8.0875,7.9701,7.9649,7.9325,7.8802,7.8033,7.7212,7.6424,7.5058,7.4428,7.4494,7.4395,7.476,7.5621,7.5654,7.6092,7.7384,7.7523,7.7788,7.8285,7.8484,7.8484,7.8484,7.8484,7.8484,7.8517,7.8616,7.8616,7.8676,7.9467,8.0275,8.0904,8.1108,8.0713,8.0106,8.1357,8.219,8.2505,8.3394,8.4224,8.5134,8.5478,8.6431,8.7714,8.7992,8.8364,8.9114,8.9336,8.9628,8.9613,8.9767,8.994,9.0192,9.0202,9.0324,9.0521,9.0561,9.0545,9.0581,9.0525,9.0598,9.0618,9.0618,9.0618,9.0618,9.0618,9.0618,9.0618,9.0618,9.0618,9.0618,9.0618,9.0618,9.0618,9.0618,9.0618,9.0618,9.0618,9.0618,9.0618,9.0618,9.0618,9.0618,9.0618,9.0618,9.0618,9.0618,9.0618,9.0618,9.0618,9.0618,9.0618,9.0618,9.0618,9.0618,9.0618,9.0618,9.0618,9.0618,9.0618,8.6483,8.6724,8.504,8.4091,8.3763,8.3525,8.3488,8.3263,8.2427,8.218,8.1987,8.208,8.1884,8.1264,8.2308,8.2004,8.0785,8.0472,8.0014,7.9258,7.8769,7.7974,7.6847,7.5157,7.476,7.5496,7.5257,7.5628,7.6755,7.6755,7.7252,7.8186,7.8153,7.8252,7.8484,7.8484,7.8484,7.8484,7.8484,7.8517,7.8616,7.9047,7.9312,7.9459,8.0742,8.1656,8.213,8.327,8.31,8.181,8.2758,8.3468,8.367,8.4573,8.5518,8.6272,8.6997,8.7769,8.8663,8.8963,8.9135,8.9464,8.9607,8.9692,8.986,9.0069,9.0213,9.0335,9.0437,9.0537,9.0618,9.0618,9.0618,9.0618,9.0618,9.0618,9.0618,9.0618,9.0618,9.0618,9.0618,9.0618,9.0618,9.0618,9.0618,9.0618,9.0618,9.0618,9.0618,9.0618,9.0618,9.0618,9.0618,9.0618,9.0618,9.0618,9.0618,9.0618,9.0618,9.0618,9.0618,9.0618,9.0618,9.0618,9.0618,9.0618,9.0618,9.0618,9.0618,9.0618,9.0618,9.0618,9.0618,9.0618,9.0618,8.6763,8.7021,8.4695,8.373,8.3732,8.3604,8.3525,8.3408,8.2959,8.2368,8.2206,8.2802,8.251,8.1727,8.2897,8.2566,8.1221,8.0956,8.0397,7.9484,7.8452,7.7747,7.6973,7.5496,7.5257,7.6159,7.5927,7.6357,7.7185,7.7391,7.7788,7.8351,7.8484,7.8484,7.8484,7.8484,7.8484,7.8484,7.8517,7.8616,7.898,7.9345,8.0087,8.0709,8.2106,8.2995,8.3952,8.5763,8.5768,8.4289,8.4692,8.5479,8.5574,8.6483,8.7262,8.7789,8.8311,8.8842,8.925,8.9414,8.9521,8.9734,8.9839,8.9965,9.011,9.0295,9.0437,9.0457,9.0521,9.0618,9.0618,9.0618,9.0618,9.0618,9.0618,9.0618,9.0618,9.0618,9.0618,9.0618,9.0618,9.0618,9.0618,9.0618,9.0618,9.0618,9.0618,9.0618,9.0618,9.0618,9.0618,9.0618,9.0618,9.0618,9.0618,9.0618,9.0618,9.0618,9.0618,9.0618,9.0618,9.0618,9.0618,9.0618,9.0618,9.0618,9.0618,9.0618,9.0618,9.0618,9.0618,9.0618,9.0618,9.0618,9.0618,8.7219,8.7647,8.4793,8.3971,8.445,8.4146,8.382,8.347,8.3699,8.3327,8.2803,8.3836,8.3302,8.2374,8.3159,8.2847,8.1435,8.1296,8.0534,7.9461,7.8188,7.7359,7.745,7.5927,7.586,7.6556,7.6523,7.6887,7.7457,7.759,7.7855,7.8351,7.8484,7.8484,7.8484,7.8484,7.855,7.8682,7.8749,7.908,7.9718,8.0212,8.1083,8.2199,8.3628,8.4929,8.6391,8.791,8.7959,8.5586,8.7012,8.762,8.7887,8.8761,8.914,8.9126,8.9156,8.9343,8.955,8.9628,8.9755,9.0001,9.0172,9.0315,9.0356,9.0461,9.0578,9.0578,9.0618,9.0618,9.0618,9.0618,9.0618,9.0618,9.0618,9.0618,9.0618,9.0618,9.0618,9.0618,9.0618,9.0618,9.0618,9.0618,9.0618,9.0618,9.0618,9.0618,9.0618,9.0618,9.0618,9.0618,9.0618,9.0618,9.0618,9.0618,9.0618,9.0618,9.0618,9.0618,9.0618,9.0618,9.0618,9.0618,9.0618,9.0618,9.0618,9.0618,9.0618,9.0618,9.0618,9.0618,9.0618,9.0618,9.0618,8.7427,8.8347,8.6515,8.56,8.5428,8.5326,8.4886,8.4229,8.3824,8.3276,8.2754,8.3389,8.2949,8.1731,8.3355,8.3531,8.2205,8.1864,8.1184,7.9433,7.8543,7.8096,7.7795,7.6324,7.6424,7.7384,7.7358,7.7557,7.808,7.8186,7.8318,7.8451,7.8484,7.8484,7.8484,7.8583,7.8815,7.9245,7.9345,7.9763,8.0699,8.1786,8.2645,8.3524,8.5481,8.7246,8.8323,8.9044,8.8995,8.861,8.8659,8.8832,8.8899,8.9132,8.932,8.9364,8.9457,8.9564,8.9649,8.9818,8.9986,9.0192,9.0274,9.0376,9.0537,9.0541,9.0618,9.0618,9.0618,9.0618,9.0618,9.0618,9.0618,9.0618,9.0618,9.0618,9.0618,9.0618,9.0618,9.0618,9.0618,9.0618,9.0618,9.0618,9.0618,9.0618,9.0618,9.0618,9.0618,9.0618,9.0618,9.0618,9.0618,9.0618,9.0618,9.0618,9.0618,9.0618,9.0618,9.0618,9.0618,9.0618,9.0618,9.0618,9.0618,9.0618,9.0618,9.0618,9.0618,9.0618,9.0618,9.0618,9.0618,9.0618,9.0618,8.8149,8.8763,8.7392,8.6078,8.5214,8.5592,8.5395,8.4645,8.4234,8.3592,8.3186,8.3693,8.3355,8.2441,8.3456,8.3396,8.2415,8.1638,8.0907,7.9786,7.8886,7.8374,7.8259,7.7252,7.7119,7.8285,7.8119,7.8186,7.8418,7.8484,7.8451,7.8484,7.8484,7.8484,7.8583,7.8842,7.9179,7.9577,8.0001,8.0684,8.1993,8.2809,8.4344,8.5382,8.7317,8.8788,8.9176,8.9277,8.9299,8.9299,8.9299,8.9299,8.9342,8.9371,8.9436,8.9479,8.9649,8.9839,8.9944,9.0048,9.0213,9.0416,9.0437,9.0497,9.0598,9.0618,9.0618,9.0618,9.0618,9.0618,9.0618,9.0618,9.0618,9.0618,9.0618,9.0618,9.0618,9.0618,9.0618,9.0618,9.0618,9.0618,9.0618,9.0618,9.0618,9.0618,9.0618,9.0618,9.0618,9.0618,9.0618,9.0618,9.0618,9.0618,9.0618,9.0618,9.0618,9.0618,9.0618,9.0618,9.0618,9.0618,9.0618,9.0618,9.0618,9.0618,9.0618,9.0618,9.0618,9.0618,9.0618,9.0618,9.0618,9.0618,9.0618,8.8641,8.8758,8.7671,8.6137,8.4804,8.5651,8.5524,8.466,8.458,8.3971,8.3558,8.4106,8.3693,8.3253,8.3219,8.2915,8.2103,8.1401,8.0772,7.9969,7.9314,7.8748,7.8418,7.7921,7.7755,7.8451,7.8418,7.8484,7.8484,7.8484,7.8484,7.8484,7.8484,7.8797,7.9049,7.9502,8.0295,8.0935,8.1511,8.2347,8.3624,8.419,8.561,8.7445,8.8481,8.9132,8.9299,8.9299,8.9299,8.9299,8.9342,8.9328,8.9371,8.9479,8.9607,8.9607,8.9839,9.0069,9.0192,9.0315,9.0437,9.0618,9.0618,9.0618,9.0618,9.0618,9.0618,9.0618,9.0618,9.0618,9.0618,9.0618,9.0618,9.0618,9.0618,9.0618,9.0618,9.0618,9.0618,9.0618,9.0618,9.0618,9.0618,9.0618,9.0618,9.0618,9.0618,9.0618,9.0618,9.0618,9.0618,9.0618,9.0618,9.0618,9.0618,9.0618,9.0618,9.0618,9.0618,9.0618,9.0618,9.0618,9.0618,9.0618,9.0618,9.0618,9.0618,9.0618,9.0618,9.0618,9.0618,9.0618,9.0618,9.0618,9.0618,8.7529,8.7202,8.7256,8.6689,8.5871,8.6022,8.5524,8.4686,8.458,8.3836,8.2855,8.3355,8.3016,8.2205,8.2374,8.2137,8.1697,8.1401,8.0982,8.0103,7.9723,7.9501,7.8657,7.8505,7.8452,7.8451,7.8644,7.8777,7.8511,7.8484,7.855,7.8517,7.8657,7.9195,8.0345,8.101,8.2046,8.3228,8.3764,8.4531,8.5405,8.6377,8.727,8.8788,8.9154,8.9277,8.9299,8.9299,8.9299,8.932,8.9457,8.9543,8.9586,8.9628,8.9649,8.9755,9.0027,9.0274,9.0335,9.0477,9.0521,9.0581,9.0618,9.0618,9.0618,9.0618,9.0618,9.0618,9.0618,9.0618,9.0618,9.0618,9.0618,9.0618,9.0618,9.0618,9.0618,9.0618,9.0618,9.0618,9.0618,9.0618,9.0618,9.0618,9.0618,9.0618,9.0618,9.0618,9.0618,9.0618,9.0618,9.0618,9.0618,9.0618,9.0618,9.0618,9.0618,9.0618,9.0618,9.0618,9.0618,9.0618,9.0618,9.0618,9.0618,9.0618,9.0618,9.0618,9.0618,9.0618,9.0618,9.0618,9.0618,9.0618,9.0618,8.7143,8.7115,8.7355,8.6606,8.5549,8.5896,8.5524,8.4686,8.458,8.4208,8.3667,8.349,8.3152,8.2441,8.1866,8.1596,8.1452,8.1156,8.0982,8.0464,8.0132,7.9735,7.9096,7.9174,7.9262,7.9461,7.9769,7.9451,7.8591,7.8484,7.8823,7.9202,7.9575,8.0557,8.1766,8.2776,8.3722,8.5033,8.5462,8.6053,8.6921,8.797,8.881,8.911,8.9299,8.9299,8.9299,8.9299,8.9364,8.9436,8.9564,8.9671,8.9776,8.9902,8.9965,9.0027,9.0274,9.0457,9.0457,9.0541,9.0618,9.0618,9.0618,9.0618,9.0618,9.0618,9.0618,9.0618,9.0618,9.0618,9.0618,9.0618,9.0618,9.0618,9.0618,9.0618,9.0618,9.0618,9.0618,9.0618,9.0618,9.0618,9.0618,9.0618,9.0618,9.0618,9.0618,9.0618,9.0618,9.0618,9.0618,9.0618,9.0618,9.0618,9.0618,9.0618,9.0618,9.0618,9.0618,9.0618,9.0618,9.0618,9.0618,9.0618,9.0618,9.0618,9.0618,9.0618,9.0618,9.0618,9.0618,9.0618,9.0618,9.0618,9.0618,8.668,8.6781,8.6922,8.5993,8.466,8.5181,8.5079,8.4476,8.4174,8.4039,8.4039,8.3355,8.2881,8.2509,8.1697,8.1054,8.1046,8.0581,8.0746,8.0632,8.0218,7.9721,7.9752,7.9942,8.0158,8.083,8.1239,8.0965,7.9995,7.9719,7.9912,8.0681,8.1487,8.2282,8.3367,8.454,8.5267,8.5998,8.6404,8.7243,8.8039,8.881,8.9299,8.9299,8.9299,8.9299,8.9299,8.9385,8.9393,8.9521,8.9671,8.9839,9.0022,9.0249,9.0356,9.0396,9.0501,9.0598,9.0581,9.0581,9.0618,9.0618,9.0618,9.0618,9.0618,9.0618,9.0618,9.0618,9.0618,9.0618,9.0618,9.0618,9.0618,9.0618,9.0618,9.0618,9.0618,9.0618,9.0618,9.0618,9.0618,9.0618,9.0618,9.0618,9.0618,9.0618,9.0618,9.0618,9.0618,9.0618,9.0618,9.0618,9.0618,9.0618,9.0618,9.0618,9.0618,9.0618,9.0618,9.0618,9.0618,9.0618,9.0618,9.0618,9.0618,9.0618,9.0618,9.0618,9.0618,9.0618,9.0618,9.0618,9.0618,9.0618,9.0618,8.5511,8.4954,8.4951,8.4412,8.3746,8.3869,8.3809,8.3584,8.305,8.2678,8.2813,8.1968,8.1325,8.0818,8.0615,8.0378,8.0479,8.0733,8.0596,8.0267,8.0215,8.0221,8.0082,7.9981,8.1234,8.2136,8.262,8.2521,8.2227,8.2144,8.2463,8.3095,8.3424,8.4319,8.5574,8.6254,8.7228,8.8415,8.8775,8.889,8.9023,8.9233,8.9299,8.9299,8.9299,8.932,8.9364,8.9471,8.9521,8.9479,8.9944,9.0089,9.0105,9.0376,9.0501,9.0541,9.0581,9.0618,9.0618,9.0618,9.0618,9.0618,9.0618,9.0618,9.0618,9.0618,9.0618,9.0618,9.0618,9.0618,9.0618,9.0618,9.0618,9.0618,9.0618,9.0618,9.0618,9.0618,9.0618,9.0618,9.0618,9.0618,9.0618,9.0618,9.0618,9.0618,9.0618,9.0618,9.0618,9.0618,9.0618,9.0618,9.0618,9.0618,9.0618,9.0618,9.0618,9.0618,9.0618,9.0618,9.0618,9.0618,9.0618,9.0618,9.0618,9.0618,9.0618,9.0618,9.0618,9.0618,9.0618,9.0618,9.0618,9.0618,9.0618,8.4918,8.458,8.458,8.4174,8.3524,8.349,8.3253,8.2881,8.2577,8.2382,8.2272,8.1655,8.0911,8.031,8.0209,8.0107,8.0073,8.0403,8.0656,8.0547,8.064,8.0926,8.163,8.2153,8.3114,8.3624,8.4615,8.5604,8.5187,8.4202,8.378,8.4547,8.5153,8.5939,8.7255,8.7841,8.8491,8.9061,8.9277,8.9299,8.9299,8.9299,8.9299,8.9299,8.9299,8.9385,8.9457,8.9543,8.9734,8.9818,9.0213,9.0315,9.0356,9.0517,9.0618,9.0618,9.0618,9.0618,9.0618,9.0618,9.0618,9.0618,9.0618,9.0618,9.0618,9.0618,9.0618,9.0618,9.0618,9.0618,9.0618,9.0618,9.0618,9.0618,9.0618,9.0618,9.0618,9.0618,9.0618,9.0618,9.0618,9.0618,9.0618,9.0618,9.0618,9.0618,9.0618,9.0618,9.0618,9.0618,9.0618,9.0618,9.0618,9.0618,9.0618,9.0618,9.0618,9.0618,9.0618,9.0618,9.0618,9.0618,9.0618,9.0618,9.0618,9.0618,9.0618,9.0618,9.0618,9.0618,9.0618,9.0618,9.0618,9.0618,9.0618,8.4478,8.4343,8.4512,8.3971,8.2983,8.3118,8.278,8.2171,8.1866,8.1934,8.19,8.1325,8.0682,8.031,8.0183,8.0082,7.9853,8.0251,8.0843,8.1256,8.1722,8.2314,8.3203,8.4167,8.4715,8.5203,8.6358,8.7279,8.7351,8.6655,8.5834,8.6074,8.6975,8.7566,8.8136,8.8695,8.9184,8.9241,8.9299,8.9299,8.9299,8.9299,8.9299,8.932,8.9364,8.9436,8.9586,8.9776,9.0006,9.0089,9.0315,9.0437,9.0477,9.0521,9.0618,9.0618,9.0618,9.0762,9.0799,9.0799,9.0654,9.0618,9.0618,9.0618,9.0618,9.0618,9.0618,9.0618,9.0618,9.0618,9.0618,9.0618,9.0618,9.0618,9.0618,9.0618,9.0618,9.0618,9.0618,9.0618,9.0618,9.0618,9.0618,9.0618,9.0618,9.0618,9.0618,9.0618,9.0618,9.0618,9.0618,9.0618,9.0618,9.0618,9.0618,9.0618,9.0618,9.0618,9.0618,9.0618,9.0618,9.0618,9.0618,9.0618,9.0618,9.0618,9.0618,9.0618,9.0618,9.0618,9.0618,9.0618,9.0618,9.0618,9.0618,8.4174,8.3625,8.4275,8.3389,8.1596,8.2205,8.2069,8.1351,8.0682,8.0902,8.1402,8.0758,8.0461,8.0343,8.0377,8.0234,7.9894,8.1539,8.1912,8.2359,8.3172,8.4157,8.497,8.5483,8.6148,8.7343,8.7943,8.8407,8.892,8.8574,8.8491,8.9003,8.8619,8.896,8.9253,8.951,8.9548,8.9513,8.9477,8.937,8.9334,8.9299,8.932,8.9364,8.9479,8.9607,8.9649,8.9986,9.0172,9.0167,9.0396,9.0477,9.0477,9.0521,9.0618,9.0618,9.0762,9.1052,9.1306,9.1088,9.069,9.0618,9.069,9.0726,9.0618,9.0618,9.0618,9.0618,9.0618,9.0618,9.0618,9.0618,9.0618,9.0618,9.0618,9.0618,9.0618,9.0618,9.0618,9.0618,9.0618,9.0618,9.0618,9.0618,9.0618,9.0618,9.0618,9.0618,9.0618,9.0618,9.0618,9.0618,9.0618,9.0618,9.0618,9.0618,9.0618,9.0618,9.0618,9.0618,9.0618,9.0618,9.0618,9.0618,9.0618,9.0618,9.0618,9.0618,9.0618,9.0618,9.0618,9.0618,9.0618,9.0618,9.0618,8.349,8.2915,8.3625,8.2915,8.1351,8.2069,8.1731,8.0682,8.031,8.0703,8.1493,8.1175,8.1073,8.1102,8.1316,8.0995,8.0576,8.1868,8.2576,8.331,8.4295,8.5418,8.6109,8.6855,8.7449,8.8135,8.8535,8.8928,8.9227,8.9299,8.9713,8.9762,8.9584,8.9727,8.9905,9.0355,9.0369,9.0083,8.9998,8.9891,8.9334,8.932,8.9364,8.95,8.9543,8.9797,9.0006,9.0192,9.0295,9.0396,9.0537,9.0517,9.0533,9.0578,9.069,9.0762,9.1052,9.1523,9.1776,9.1559,9.1342,9.1342,9.1306,9.1161,9.0762,9.0618,9.0618,9.0618,9.0618,9.0618,9.0618,9.0618,9.0618,9.0618,9.0618,9.0618,9.0618,9.0618,9.0618,9.0618,9.0618,9.0618,9.0618,9.0618,9.0618,9.0618,9.0618,9.0618,9.0618,9.0618,9.0618,9.0618,9.0618,9.0618,9.0618,9.0618,9.0618,9.0618,9.0618,9.0618,9.0618,9.0618,9.0618,9.0618,9.0618,9.0618,9.0618,9.0618,9.0618,9.0618,9.0618,9.0618,9.0618,9.0618,9.0618,8.3219,8.2847,8.3524,8.2847,8.146,8.1866,8.1494,8.0615,8.0276,8.0901,8.1948,8.1948,8.2086,8.2277,8.2079,8.2037,8.1868,8.2895,8.3891,8.4921,8.6005,8.6873,8.7593,8.8064,8.8413,8.8607,8.8892,8.9299,8.9299,8.9299,8.9749,9.0034,9.0034,9.0212,9.0783,9.1247,9.1319,9.0962,9.0748,9.0427,8.9798,8.9778,8.9557,8.97,8.9755,8.9965,9.0213,9.0356,9.0457,9.0537,9.0618,9.0618,9.069,9.0799,9.0943,9.1233,9.1632,9.2211,9.2428,9.2284,9.2211,9.2175,9.1813,9.1487,9.1125,9.0762,9.0618,9.0618,9.0618,9.0618,9.0618,9.0618,9.0618,9.0618,9.0618,9.0618,9.0618,9.0618,9.0618,9.0618,9.0618,9.0618,9.0618,9.0618,9.0618,9.0618,9.0618,9.0618,9.0618,9.0618,9.0618,9.0618,9.0618,9.0618,9.0618,9.0618,9.0618,9.0618,9.0618,9.0618,9.0618,9.0618,9.0618,9.0618,9.0618,9.0618,9.0618,9.0618,9.0618,9.0618,9.0618,9.0618,9.0618,9.0618,9.0618,8.3456,8.3558,8.4174,8.3219,8.1393,8.1351,8.1351,8.1139,8.0699,8.1288,8.2633,8.2725,8.3153,8.348,8.3049,8.2972,8.3444,8.458,8.5629,8.6499,8.7718,8.8825,8.9027,8.9085,8.9013,8.9227,8.9299,8.9299,8.9299,8.9299,8.9762,9.0534,9.0855,9.1033,9.1568,9.164,9.164,9.1568,9.1568,9.1033,9.0707,9.0609,9.023,9.0336,9.0438,9.0702,9.0861,9.0947,9.1012,9.0851,9.098,9.098,9.0835,9.1487,9.174,9.1849,9.2573,9.3298,9.3986,9.337,9.3117,9.2972,9.261,9.2102,9.1704,9.1197,9.0762,9.0907,9.069,9.0618,9.0618,9.0618,9.0618,9.0618,9.0618,9.0618,9.0618,9.0871,9.0943,9.1088,9.0871,9.0654,9.0654,9.0618,9.0618,9.0618,9.0618,9.0618,9.0618,9.0618,9.0618,9.0618,9.0618,9.0618,9.0618,9.0618,9.0618,9.0618,9.0618,9.0618,9.0618,9.0618,9.0618,9.0618,9.0618,9.0618,9.0618,9.0618,9.0618,9.0618,9.0618,9.0618,9.0618,9.0726,9.0871,8.3219,8.2813,8.3024,8.2441,8.152,8.2374,8.2238,8.1478,8.1697,8.2272,8.3042,8.3866,8.452,8.4743,8.5018,8.4838,8.4913,8.6201,8.7223,8.7467,8.8726,8.9118,8.9299,8.9299,8.9299,8.9299,8.9299,8.9299,8.9299,8.937,9.0155,9.0997,9.2032,9.2568,9.2639,9.2746,9.2996,9.2389,9.1925,9.1528,9.1432,9.1147,9.1104,9.1502,9.1712,9.1821,9.1887,9.1953,9.1813,9.1523,9.1704,9.1813,9.1632,9.2139,9.2573,9.2754,9.335,9.4167,9.4746,9.4638,9.4348,9.3913,9.3479,9.3008,9.2646,9.1849,9.1523,9.1269,9.0943,9.0799,9.0618,9.0618,9.0618,9.0618,9.0618,9.0618,9.069,9.1233,9.1523,9.174,9.1704,9.1523,9.1414,9.098,9.0835,9.0726,9.0726,9.0654,9.0618,9.0618,9.0618,9.0618,9.0618,9.0618,9.0618,9.0618,9.0618,9.0618,9.0618,9.0618,9.0618,9.0618,9.0618,9.0618,9.0618,9.0618,9.0618,9.0618,9.0618,9.0618,9.0618,9.0618,9.0618,9.098,9.1487,8.2611,8.2382,8.2382,8.1968,8.1486,8.2069,8.1765,8.1266,8.2484,8.3369,8.3901,8.4852,8.5571,8.5936,8.6106,8.6486,8.6065,8.7059,8.8131,8.8245,8.8899,8.9255,8.9299,8.9299,8.9299,8.9299,8.9299,8.9299,8.9334,8.9584,9.0605,9.1997,9.3281,9.3447,9.3447,9.3567,9.3697,9.3139,9.2804,9.2537,9.2356,9.2137,9.2079,9.2463,9.2688,9.2791,9.2931,9.2935,9.2827,9.2573,9.2573,9.2791,9.2573,9.2899,9.337,9.3639,9.4167,9.4819,9.5238,9.5326,9.4927,9.4674,9.442,9.3965,9.3386,9.2682,9.2356,9.1994,9.1414,9.1342,9.1306,9.1233,9.069,9.0726,9.0907,9.0943,9.1088,9.1595,9.2139,9.2356,9.2428,9.2284,9.1958,9.1523,9.1088,9.0943,9.0835,9.0762,9.0654,9.0618,9.0618,9.0618,9.0618,9.0618,9.0618,9.0618,9.0618,9.0618,9.0654,9.0726,9.0618,9.0618,9.0618,9.0618,9.0654,9.0654,9.0618,9.0618,9.0618,9.0618,9.0618,9.0618,9.0618,9.1161,9.1885,8.1731,8.2306,8.2374,8.19,8.1215,8.0809,8.0495,8.0587,8.301,8.4372,8.4991,8.5102,8.597,8.6789,8.6137,8.6324,8.7054,8.7665,8.831,8.8921,8.9255,8.9299,8.9299,8.9299,8.9299,8.9299,8.9299,8.9299,8.937,8.9963,9.1105,9.2389,9.3246,9.3625,9.3804,9.3956,9.3934,9.3755,9.3479,9.3328,9.3241,9.3258,9.3171,9.3332,9.3391,9.3453,9.3479,9.3443,9.3261,9.3153,9.3189,9.3117,9.3298,9.3805,9.4094,9.4457,9.5,9.5238,9.5383,9.5419,9.5362,9.5109,9.471,9.4363,9.4037,9.3531,9.3132,9.2718,9.2211,9.2465,9.261,9.174,9.0907,9.1161,9.1451,9.1523,9.1595,9.203,9.2573,9.2806,9.2863,9.2646,9.1994,9.1523,9.1088,9.0907,9.0799,9.0799,9.069,9.0618,9.0618,9.0618,9.0618,9.0618,9.0618,9.0618,9.0618,9.0618,9.0871,9.0943,9.0799,9.0907,9.1269,9.1306,9.0871,9.069,9.0654,9.0618,9.0618,9.0618,9.0726,9.0943,9.1052,9.1595,9.2211,8.19,8.1629,8.1596,8.119,8.064,8.1005,8.1492,8.2191,8.3565,8.4229,8.4457,8.5579,8.6433,8.7229,8.7311,8.7821,8.8326,8.8792,8.8929,8.9219,8.9299,8.9299,8.9299,8.9299,8.9299,8.9299,8.9299,8.9299,8.9477,9.0105,9.0962,9.189,9.296,9.3518,9.3943,9.4141,9.4131,9.4024,9.3806,9.39,9.3991,9.3956,9.4048,9.4274,9.4394,9.4493,9.4493,9.4529,9.4348,9.3893,9.442,9.4348,9.308,9.4239,9.5036,9.5093,9.5311,9.5419,9.5419,9.5398,9.5383,9.5347,9.5036,9.5109,9.4819,9.4348,9.382,9.3386,9.2682,9.261,9.2428,9.1776,9.1306,9.1451,9.1559,9.1451,9.1559,9.203,9.2553,9.2935,9.2972,9.2537,9.1921,9.1378,9.098,9.0799,9.0726,9.0799,9.0762,9.0654,9.0618,9.0618,9.0618,9.0618,9.0618,9.0618,9.0618,9.0654,9.098,9.1342,9.1559,9.1776,9.2139,9.2066,9.1704,9.1125,9.0654,9.069,9.0871,9.0907,9.1016,9.1269,9.1595,9.2247,9.2791,8.1257,8.0885,8.0877,8.0581,8.0385,8.1208,8.2045,8.2894,8.3833,8.4287,8.4696,8.5473,8.6444,8.7237,8.7471,8.7936,8.8685,8.9055,8.9277,8.9277,8.9299,8.9299,8.9299,8.9299,8.9299,8.9299,8.9299,8.9299,8.9584,9.0462,9.1354,9.2175,9.2853,9.3492,9.4011,9.4231,9.4298,9.4213,9.4123,9.4264,9.4388,9.4489,9.4898,9.5211,9.5398,9.5419,9.5419,9.5419,9.4927,9.4436,9.5,9.4819,9.3841,9.471,9.5383,9.5347,9.5383,9.5419,9.5326,9.5,9.5166,9.513,9.4855,9.4602,9.4819,9.4638,9.4384,9.4022,9.3117,9.2356,9.2066,9.1776,9.174,9.1704,9.1451,9.1161,9.1523,9.1921,9.2392,9.2827,9.2682,9.2284,9.1813,9.1269,9.0943,9.0835,9.0871,9.098,9.0835,9.0618,9.0618,9.0618,9.0618,9.0618,9.0618,9.0654,9.0799,9.098,9.1378,9.174,9.2175,9.2501,9.2682,9.2682,9.2537,9.1958,9.1306,9.1197,9.1269,9.1342,9.1595,9.1994,9.2501,9.3132,9.3639,8.0175,8.0132,8.0208,8.0442,8.0567,8.1532,8.2405,8.3152,8.4177,8.4803,8.519,8.5226,8.6049,8.7002,8.7171,8.7643,8.8464,8.9106,8.9299,8.9299,8.9299,8.9299,8.9299,8.9299,8.9299,8.9299,8.9334,8.9406,8.9798,9.0569,9.1568,9.2746,9.3161,9.3657,9.4146,9.4115,9.4261,9.4617,9.4647,9.4778,9.4886,9.5008,9.5129,9.532,9.5419,9.5419,9.5383,9.5238,9.4964,9.471,9.4529,9.4602,9.4674,9.4493,9.4891,9.5181,9.5109,9.4927,9.4746,9.4348,9.4493,9.4348,9.3913,9.3768,9.4022,9.4312,9.4094,9.3805,9.2863,9.261,9.2392,9.1595,9.1233,9.1378,9.1378,9.1161,9.1233,9.1632,9.2066,9.2392,9.2211,9.1849,9.1487,9.098,9.0871,9.0835,9.0871,9.1016,9.0943,9.069,9.0618,9.0618,9.0618,9.0618,9.0618,9.0726,9.1088,9.1342,9.174,9.2392,9.3008,9.3153,9.3189,9.3225,9.3225,9.2682,9.2175,9.203,9.1921,9.1994,9.2299,9.2806,9.335,9.3965,9.4348,7.987,7.9438,8.0121,8.1122,8.2393,8.3326,8.3812,8.4148,8.5107,8.5369,8.5239,8.5315,8.5861,8.6934,8.6972,8.7572,8.8799,8.9106,8.9263,8.9299,8.9299,8.9299,8.9299,8.9299,8.932,8.9299,8.937,8.9614,9.0078,9.0698,9.1484,9.2554,9.2862,9.3046,9.428,9.4104,9.41,9.4879,9.5065,9.5065,9.5044,9.5193,9.5377,9.5419,9.5419,9.5419,9.5253,9.4819,9.4565,9.4276,9.3696,9.3805,9.4182,9.3841,9.395,9.4348,9.4565,9.4348,9.3877,9.3551,9.3551,9.3515,9.3225,9.3225,9.3298,9.3479,9.3406,9.308,9.2863,9.2791,9.2428,9.1451,9.0835,9.1125,9.1306,9.1125,9.0943,9.1342,9.1776,9.174,9.1632,9.1414,9.1088,9.0907,9.0799,9.0726,9.069,9.0762,9.0871,9.0726,9.069,9.0654,9.0618,9.0618,9.0618,9.0726,9.1052,9.1595,9.2066,9.2863,9.3732,9.4022,9.4167,9.4022,9.3841,9.3406,9.3044,9.2791,9.2734,9.277,9.3024,9.3494,9.3986,9.4565,9.4891,8.0213,8.0273,8.0781,8.1539,8.2519,8.3422,8.4002,8.4554,8.5456,8.5644,8.5238,8.5287,8.5917,8.6913,8.6972,8.7786,8.9049,8.9263,8.9299,8.9299,8.9299,8.9299,8.9299,8.932,8.9371,8.9393,8.9557,8.9908,9.028,9.1139,9.1935,9.2478,9.2312,9.2915,9.4256,9.4035,9.4057,9.5114,9.532,9.5278,9.5151,9.5335,9.5419,9.5419,9.5419,9.5419,9.5311,9.4855,9.4348,9.3696,9.2935,9.3696,9.4131,9.4167,9.3893,9.4094,9.4167,9.382,9.3153,9.2718,9.2646,9.2682,9.2102,9.1921,9.2284,9.2428,9.232,9.203,9.2247,9.2175,9.1668,9.0799,9.1088,9.1414,9.1125,9.0799,9.0762,9.0943,9.1125,9.1088,9.1052,9.1016,9.0762,9.0762,9.0762,9.1306,9.1197,9.1125,9.1125,9.0907,9.0835,9.069,9.0618,9.0618,9.0618,9.0726,9.098,9.1595,9.2284,9.3044,9.3805,9.471,9.5202,9.4819,9.4493,9.4276,9.395,9.3624,9.3531,9.3531,9.382,9.4219,9.4674,9.5,9.5145,8.0682,8.1598,8.1656,8.189,8.2275,8.3074,8.3897,8.4676,8.5456,8.5625,8.5218,8.5159,8.6045,8.6772,8.7106,8.8128,8.887,8.9227,8.9299,8.9299,8.9299,8.9299,8.9299,8.932,8.9393,8.9564,8.9713,8.9892,9.0136,9.1104,9.1872,9.231,9.2935,9.361,9.423,9.4201,9.4079,9.5033,9.5398,9.5398,9.5398,9.5419,9.5419,9.5419,9.5419,9.5347,9.5311,9.5021,9.4312,9.3189,9.2211,9.3008,9.3805,9.3986,9.3696,9.3696,9.3805,9.3277,9.2646,9.1921,9.2102,9.2066,9.1125,9.0943,9.1414,9.1595,9.1451,9.1523,9.174,9.1523,9.1016,9.0835,9.1233,9.1487,9.1052,9.0943,9.098,9.098,9.098,9.098,9.098,9.1016,9.098,9.0943,9.1233,9.174,9.1921,9.1885,9.174,9.1414,9.1197,9.0871,9.0618,9.0618,9.0618,9.0762,9.0943,9.1595,9.232,9.308,9.3877,9.484,9.5383,9.5383,9.5072,9.4819,9.4674,9.4384,9.4327,9.4291,9.4529,9.4783,9.4964,9.5217,9.529,8.0469,8.2011,8.1996,8.279,8.4071,8.4921,8.5473,8.5569,8.5514,8.5453,8.5166,8.5127,8.5698,8.6957,8.6915,8.7714,8.8906,8.9192,8.9299,8.9299,8.932,8.932,8.932,8.935,8.9436,8.9586,8.9806,9.0078,9.0348,9.1043,9.1691,9.2251,9.2144,9.2841,9.3869,9.3833,9.4013,9.4946,9.5419,9.5419,9.5419,9.5419,9.5419,9.5419,9.5398,9.5,9.4638,9.4457,9.3479,9.2356,9.1632,9.2356,9.3117,9.366,9.3225,9.308,9.3189,9.2646,9.1958,9.1451,9.1595,9.1487,9.0835,9.0835,9.1269,9.1704,9.1668,9.1704,9.174,9.1342,9.0943,9.0943,9.1197,9.1414,9.1269,9.1849,9.2175,9.2247,9.2284,9.2284,9.2284,9.2284,9.2284,9.2284,9.232,9.2718,9.2791,9.2682,9.2284,9.1921,9.1668,9.1269,9.0907,9.0618,9.0618,9.0762,9.1052,9.1668,9.2428,9.337,9.4239,9.5021,9.5419,9.5419,9.5419,9.5217,9.5072,9.4927,9.5,9.4964,9.513,9.5311,9.5419,9.5419,9.5419]}]]